[[{"header":{"parameterUnit":"m.s-1","parameterCategory":1,"la1":30.6,"la2":28.766,"lo1":-90.7593,"lo2":-88.6598,"dy":0.0162,"dx":0.0183,"nx":116,"ny":114,"refTime":"2023-06-29T12:00:00:Z","depth":0,"parameterNumber":2,"parameterNumberName":"U-component_of_WINDS"},"data":[0.0,0.0,0.0,0.0,0.0,0.0,0.0,0.0,0.0,0.0,0.0,0.0,0.0,0.0,0.0,0.0,0.0,0.0,0.0,0.0,0.0,0.0,0.0,0.0,0.0,0.0,0.0,0.0,0.0,0.0,0.0,0.0,0.0,0.0,0.0,0.0,0.0,0.0,0.0,0.0,0.0,0.0,0.0,0.0,0.0,0.0,0.0,0.0,0.0,0.0,0.0,0.0,0.0,0.0,0.0,0.0,0.0,0.0,0.0,0.0,0.0,0.0,0.0,0.0,0.0,0.0,0.0,0.0,0.0,0.0,0.0,0.0,0.0,0.0,0.0,0.0,0.0,0.0,0.0,0.0,0.0,0.0,0.0,0.0,0.0,0.0,0.0,0.0,0.0,0.0,0.0,0.0,0.0,0.0,0.0,0.0,0.0,0.0,0.0,0.0,0.0,0.0,0.0,0.0,0.0,0.0,0.0,0.0,0.0,0.0,0.0,0.0,0.0,0.0,0.0,0.0,0.0,0.0,0.0,0.0,0.0,0.0,0.0,0.0,0.0,0.0,0.0,0.0,0.0,0.0,0.0,0.0,0.0,0.0,0.0,0.0,0.0,0.0,0.0,0.0,0.0,0.0,0.0,0.0,0.0,0.0,0.0,0.0,0.0,0.0,0.0,0.0,0.0,0.0,0.0,0.0,0.0,0.0,0.0,0.0,0.0,0.0,0.0,0.0,0.0,0.0,0.0,0.0,0.0,0.0,0.0,0.0,0.0,0.0,0.0,0.0,0.0,0.0,0.0,0.0,0.0,0.0,0.0,0.0,0.0,0.0,0.0,0.0,0.0,0.0,0.0,0.0,0.0,0.0,0.0,0.0,0.0,0.0,0.0,0.0,0.0,0.0,0.0,0.0,0.0,0.0,0.0,0.0,0.0,0.0,0.0,0.0,0.0,0.0,0.0,0.0,0.0,0.0,0.0,0.0,0.0,0.0,0.0,0.0,0.0,0.0,0.0,0.0,0.0,0.0,0.0,0.0,0.0,0.0,0.0,0.0,0.0,0.0,0.0,0.0,0.0,0.0,0.0,0.0,0.0,0.0,0.0,0.0,0.0,0.0,0.0,0.0,0.0,0.0,0.0,0.0,0.0,0.0,0.0,0.0,0.0,0.0,0.0,0.0,0.0,0.0,0.0,0.0,0.0,0.0,0.0,0.0,0.0,0.0,0.0,0.0,0.0,0.0,0.0,0.0,0.0,0.0,0.0,0.0,0.0,0.0,0.0,0.0,0.0,0.0,0.0,0.0,0.0,0.0,0.0,0.0,0.0,0.0,0.0,0.0,0.0,0.0,0.0,0.0,0.0,0.0,0.0,0.0,0.0,0.0,0.0,0.0,0.0,0.0,0.0,0.0,0.0,0.0,0.0,0.0,0.0,0.0,0.0,0.0,0.0,0.0,0.0,0.0,0.0,0.0,0.0,0.0,0.0,0.0,0.0,0.0,0.0,0.0,0.0,0.0,0.0,0.0,0.0,0.0,0.0,0.0,0.0,0.0,0.0,0.0,0.0,0.0,0.0,0.0,0.0,0.0,0.0,0.0,0.0,0.0,0.0,0.0,0.0,0.0,0.0,0.0,0.0,0.0,0.0,0.0,0.0,0.0,0.0,0.0,0.0,0.0,0.0,0.0,0.0,0.0,0.0,0.0,0.0,0.0,0.0,0.0,0.0,0.0,0.0,0.0,0.0,0.0,0.0,0.0,0.0,0.0,0.0,0.0,0.0,0.0,0.0,0.0,0.0,0.0,0.0,0.0,0.0,0.0,0.0,0.0,0.0,0.0,0.0,0.0,0.0,0.0,0.0,0.0,0.0,0.0,0.0,0.0,0.0,0.0,0.0,0.0,0.0,0.0,0.0,0.0,0.0,0.0,0.0,0.0,0.0,0.0,0.0,0.0,0.0,0.0,0.0,0.0,0.0,0.0,0.0,0.0,0.0,0.0,0.0,0.0,0.0,0.0,0.0,0.0,0.0,0.0,0.0,0.0,0.0,0.0,0.0,0.0,0.0,0.0,0.0,0.0,0.0,0.0,0.0,0.0,0.0,0.0,0.0,0.0,0.0,0.0,0.0,0.0,0.0,0.0,0.0,0.0,0.0,0.0,0.0,0.0,0.0,0.0,0.0,0.0,0.0,0.0,0.0,0.0,0.0,0.0,0.0,0.0,0.0,0.0,0.0,0.0,0.0,0.0,0.0,0.0,0.0,0.0,0.0,0.0,0.0,0.0,0.0,0.0,0.0,0.0,0.0,0.0,0.0,0.0,0.0,0.0,0.0,0.0,0.0,0.0,0.0,0.0,0.0,0.0,0.0,0.0,0.0,0.0,0.0,0.0,0.0,0.0,0.0,0.0,0.0,0.0,0.0,0.0,0.0,0.0,0.0,0.0,0.0,0.0,0.0,0.0,0.0,0.0,0.0,0.0,0.0,0.0,0.0,0.0,0.0,0.0,0.0,0.0,0.0,0.0,0.0,0.0,0.0,0.0,0.0,0.0,0.0,0.0,0.0,0.0,0.0,0.0,0.0,0.0,0.0,0.0,0.0,0.0,0.0,0.0,0.0,0.0,0.0,0.0,0.0,0.0,0.0,0.0,0.0,0.0,0.0,0.0,0.0,0.0,0.0,0.0,0.0,0.0,0.0,0.0,0.0,0.0,0.0,0.0,0.0,0.0,0.0,0.0,0.0,0.0,0.0,0.0,0.0,0.0,0.0,0.0,0.0,0.0,0.0,0.0,0.0,0.0,0.0,0.0,0.0,0.0,0.0,0.0,0.0,0.0,0.0,0.0,0.0,0.0,0.0,0.0,0.0,0.0,0.0,0.0,0.0,0.0,0.0,0.0,0.0,0.0,0.0,0.0,0.0,0.0,0.0,0.0,0.0,0.0,0.0,0.0,0.0,0.0,0.0,0.0,0.0,0.0,0.0,0.0,0.0,0.0,0.0,0.0,0.0,0.0,0.0,0.0,0.0,0.0,0.0,0.0,0.0,0.0,0.0,0.0,0.0,0.0,0.0,0.0,0.0,0.0,0.0,0.0,0.0,0.0,0.0,0.0,0.0,0.0,0.0,0.0,0.0,0.0,0.0,0.0,0.0,0.0,0.0,0.0,0.0,0.0,0.0,0.0,0.0,0.0,0.0,0.0,0.0,0.0,0.0,0.0,0.0,0.0,0.0,0.0,0.0,0.0,0.0,0.0,0.0,0.0,0.0,0.0,0.0,0.0,0.0,0.0,0.0,0.0,0.0,0.0,0.0,0.0,0.0,0.0,0.0,0.0,0.0,0.0,0.0,0.0,0.0,0.0,0.0,0.0,0.0,0.0,0.0,0.0,0.0,0.0,0.0,0.0,0.0,0.0,0.0,0.0,0.0,0.0,0.0,0.0,0.0,0.0,0.0,0.0,0.0,0.0,0.0,0.0,0.0,0.0,0.0,0.0,0.0,0.0,0.0,0.0,0.0,0.0,0.0,0.0,0.0,0.0,0.0,0.0,0.0,0.0,0.0,0.0,0.0,0.0,0.0,0.0,0.0,0.0,0.0,0.0,0.0,0.0,0.0,0.0,0.0,0.0,0.0,0.0,0.0,0.0,0.0,0.0,0.0,0.0,0.0,0.0,0.0,0.0,0.0,0.0,0.0,0.0,0.0,0.0,0.0,0.0,0.0,0.0,0.0,0.0,0.0,0.0,0.0,0.0,0.0,0.0,0.0,0.0,0.0,0.0,0.0,0.0,0.0,0.0,0.0,0.0,0.0,0.0,0.0,0.0,0.0,0.0,0.0,0.0,0.0,0.0,0.0,0.0,0.0,0.0,0.0,0.0,0.0,0.0,0.0,0.0,0.0,0.0,0.0,0.0,0.0,0.0,0.0,0.0,0.0,0.0,0.0,0.0,0.0,0.0,0.0,0.0,0.0,0.0,0.0,0.0,0.0,0.0,0.0,0.0,0.0,0.0,0.0,0.0,0.0,0.0,0.0,0.0,0.0,0.0,0.0,0.0,0.0,0.0,0.0,0.0,0.0,0.0,0.0,0.0,0.0,0.0,0.0,0.0,0.0,0.0,0.0,0.0,0.0,0.0,0.0,0.0,0.0,0.0,0.0,0.0,0.0,0.0,0.0,0.0,0.0,0.0,0.0,0.0,0.0,0.0,0.0,0.0,0.0,0.0,0.0,0.0,0.0,0.0,0.0,0.0,0.0,0.0,0.0,0.0,0.0,0.0,0.0,0.0,0.0,0.0,0.0,0.0,0.0,0.0,0.0,0.0,0.0,0.0,0.0,0.0,0.0,0.0,0.0,0.0,0.0,0.0,0.0,0.0,0.0,0.0,0.0,0.0,0.0,0.0,0.0,0.0,0.0,0.0,0.0,0.0,0.0,0.0,0.0,0.0,0.0,0.0,0.0,0.0,0.0,0.0,0.0,0.0,0.0,0.0,0.0,0.0,0.0,0.0,0.0,0.0,0.0,0.0,0.0,0.0,0.0,0.0,0.0,0.0,0.0,0.0,0.0,0.0,0.0,0.0,0.0,0.0,0.0,0.0,0.0,0.0,0.0,0.0,0.0,0.0,0.0,0.0,0.0,0.0,0.0,0.0,0.0,0.0,0.0,0.0,0.0,0.0,0.0,0.0,0.0,0.0,0.0,0.0,0.0,0.0,0.0,0.0,0.0,0.0,0.0,0.0,0.0,0.0,0.0,0.0,0.0,0.0,0.0,0.0,0.0,0.0,0.0,0.0,0.0,0.0,0.0,0.0,0.0,0.0,0.0,0.0,0.0,0.0,0.0,0.0,0.0,0.0,0.0,0.0,0.0,0.0,0.0,0.0,0.0,0.0,0.0,0.0,0.0,0.0,0.0,0.0,0.0,0.0,0.0,0.0,0.0,0.0,0.0,0.0,0.0,0.0,0.0,0.0,0.0,0.0,0.0,0.0,0.0,0.0,0.0,0.0,0.0,0.0,0.0,0.0,0.0,0.0,0.0,0.0,0.0,0.0,0.0,0.0,0.0,0.0,0.0,0.0,0.0,0.0,0.0,0.0,0.0,0.0,0.0,0.0,0.0,0.0,0.0,0.0,0.0,0.0,0.0,0.0,0.0,0.0,0.0,0.0,0.0,0.0,0.0,0.0,0.0,0.0,0.0,0.0,0.0,0.0,0.0,0.0,0.0,0.0,0.0,0.0,0.0,0.0,0.0,0.0,0.0,0.0,0.0,0.0,0.0,0.0,0.0,0.0,0.0,0.0,0.0,0.0,0.0,0.0,0.0,0.0,0.0,0.0,0.0,0.0,0.0,0.0,0.0,0.0,0.0,0.0,0.0,0.0,0.0,0.0,0.0,0.0,0.0,0.0,0.0,0.0,0.0,0.0,0.0,0.0,0.0,0.0,0.0,0.0,0.0,0.0,0.0,0.0,0.0,0.0,0.0,0.0,0.0,0.0,0.0,0.0,0.0,0.0,0.0,0.0,0.0,0.0,0.0,0.0,0.0,0.0,0.0,0.0,0.0,0.0,0.0,0.0,0.0,0.0,0.0,0.0,0.0,0.0,0.0,0.0,0.0,0.0,0.0,0.0,0.0,0.0,0.0,0.0,0.0,0.0,0.0,0.0,0.0,0.0,0.0,0.0,0.0,0.0,0.0,0.0,0.0,0.0,0.0,0.0,0.0,0.0,0.0,0.0,0.0,0.0,0.0,0.0,0.0,0.0,0.0,0.0,0.0,0.0,0.0,0.0,0.0,0.0,0.0,0.0,0.0,0.0,0.0,0.0,0.0,0.0,0.0,0.0,0.0,0.0,0.0,0.0,0.0,0.0,0.0,0.0,0.0,0.0,0.0,0.0,0.0,0.0,0.0,0.0,0.0,0.0,0.0,0.0,0.0,0.0,0.0,0.0,0.0,0.0,0.0,0.0,0.0,0.0,0.0,0.0,0.0,0.0,0.0,0.0,0.0,0.0,0.0,0.0,0.0,0.0,0.0,0.0,0.0,0.0,0.0,0.0,0.0,0.0,0.0,0.0,0.0,0.0,0.0,0.0,0.0,0.0,0.0,0.0,0.0,0.0,0.0,0.0,0.0,0.0,0.0,0.0,-4.8511,0.0,0.0,0.0,0.0,0.0,0.0,0.0,0.0,0.0,0.0,0.0,0.0,0.0,0.0,0.0,0.0,0.0,0.0,0.0,0.0,0.0,0.0,0.0,0.0,0.0,0.0,0.0,0.0,0.0,0.0,0.0,0.0,0.0,0.0,0.0,0.0,0.0,0.0,0.0,-4.0969,-4.1751,-4.3362,-4.3513,-4.2649,-4.0982,0.0,0.0,0.0,0.0,0.0,0.0,0.0,0.0,0.0,0.0,0.0,0.0,0.0,0.0,0.0,0.0,0.0,0.0,0.0,0.0,0.0,0.0,0.0,0.0,0.0,0.0,0.0,0.0,0.0,0.0,0.0,0.0,0.0,0.0,0.0,0.0,0.0,0.0,0.0,0.0,0.0,0.0,0.0,0.0,0.0,0.0,0.0,0.0,0.0,0.0,0.0,0.0,0.0,0.0,0.0,0.0,0.0,0.0,0.0,0.0,0.0,0.0,0.0,0.0,0.0,0.0,0.0,0.0,0.0,0.0,0.0,-5.0161,0.0,0.0,0.0,0.0,0.0,0.0,0.0,0.0,0.0,0.0,0.0,0.0,0.0,0.0,0.0,0.0,0.0,0.0,0.0,0.0,0.0,0.0,0.0,0.0,0.0,0.0,0.0,0.0,0.0,0.0,0.0,0.0,0.0,0.0,0.0,-4.0593,-4.0954,-4.1903,-4.2224,-4.3844,-4.6607,-4.744,-4.6186,-4.3168,-4.1925,0.0,0.0,0.0,0.0,0.0,0.0,0.0,0.0,0.0,0.0,0.0,0.0,0.0,0.0,0.0,0.0,0.0,0.0,0.0,0.0,0.0,0.0,0.0,0.0,0.0,0.0,0.0,0.0,0.0,0.0,0.0,0.0,0.0,0.0,0.0,0.0,0.0,0.0,0.0,0.0,0.0,0.0,0.0,0.0,0.0,0.0,0.0,0.0,0.0,0.0,0.0,0.0,0.0,0.0,0.0,0.0,0.0,0.0,0.0,0.0,0.0,0.0,0.0,0.0,0.0,-6.35,-6.35,-6.3037,-6.1988,-5.8309,-5.5105,-5.2415,0.0,0.0,0.0,0.0,0.0,0.0,0.0,0.0,0.0,0.0,0.0,0.0,0.0,0.0,0.0,0.0,0.0,0.0,0.0,0.0,0.0,0.0,0.0,-4.0516,-4.0516,-4.0516,0.0,0.0,0.0,0.0,0.0,0.0,0.0,-4.1623,-4.0893,-4.114,-4.241,-4.5327,-4.8021,-5.0467,-5.1304,-5.1396,-5.076,-4.674,-4.6118,-4.7877,0.0,0.0,0.0,0.0,0.0,0.0,0.0,0.0,0.0,0.0,0.0,0.0,0.0,0.0,0.0,0.0,0.0,0.0,0.0,0.0,0.0,0.0,0.0,0.0,0.0,0.0,0.0,0.0,0.0,0.0,0.0,0.0,0.0,0.0,0.0,0.0,0.0,0.0,0.0,0.0,0.0,-5.0124,-4.9506,0.0,0.0,0.0,0.0,0.0,0.0,0.0,0.0,0.0,0.0,0.0,0.0,0.0,0.0,-6.3119,-6.484,-6.6209,-6.7185,-6.8749,-6.9922,-7.0624,-7.0624,-7.0156,-6.9258,-6.7929,0.0,-5.6791,-5.4445,0.0,0.0,0.0,0.0,0.0,0.0,0.0,0.0,0.0,0.0,0.0,0.0,0.0,0.0,0.0,0.0,0.0,0.0,0.0,0.0,0.0,0.0,-4.2288,-4.2288,-4.3819,-4.4064,0.0,0.0,0.0,0.0,0.0,-4.1162,-4.1085,-4.1412,-4.2857,-4.5378,-5.0067,-5.3288,-5.5043,-5.6313,-5.7162,-5.742,-5.4542,-5.1766,-4.913,-4.6698,0.0,0.0,0.0,0.0,0.0,0.0,0.0,0.0,0.0,0.0,0.0,0.0,0.0,0.0,0.0,0.0,0.0,0.0,0.0,0.0,0.0,0.0,0.0,0.0,0.0,0.0,0.0,0.0,0.0,0.0,0.0,0.0,0.0,0.0,0.0,0.0,0.0,0.0,0.0,-5.0024,-5.1316,-5.0494,-5.1175,-5.1287,0.0,0.0,0.0,0.0,0.0,0.0,0.0,0.0,0.0,-6.3942,-6.5348,-6.6638,-6.7889,-6.9648,-7.1172,-7.2539,-7.3789,-7.4805,-7.5664,-7.5664,-7.4922,-7.3594,-7.3203,-7.0,-6.4647,-5.9645,-5.5907,-5.3097,0.0,0.0,0.0,0.0,0.0,0.0,0.0,0.0,0.0,0.0,0.0,0.0,0.0,0.0,0.0,0.0,0.0,0.0,0.0,-4.3025,-4.4381,-4.4787,-4.6821,-4.701,-4.4513,0.0,0.0,0.0,0.0,-4.1354,-4.117,-4.3202,-4.6094,-4.9782,-5.4548,-5.7817,-5.9575,-6.1006,-6.1961,-6.2475,-6.108,-5.7485,-5.2283,-4.9931,-4.828,-4.7097,0.0,0.0,0.0,0.0,0.0,0.0,0.0,0.0,0.0,0.0,0.0,0.0,0.0,0.0,0.0,0.0,0.0,0.0,0.0,0.0,0.0,0.0,0.0,0.0,0.0,0.0,0.0,0.0,0.0,0.0,0.0,0.0,0.0,0.0,0.0,0.0,0.0,-5.1563,-5.3228,-5.1523,-5.3391,-5.4018,0.0,0.0,0.0,0.0,0.0,0.0,-6.2031,-6.3895,-6.6211,-6.9101,-7.0624,-7.1914,-7.3008,-7.4297,-7.5703,-7.7226,-7.7656,-7.8281,-7.914,-7.8906,-7.8008,-7.6562,-7.6328,-7.4375,-7.0859,-6.4373,-5.9754,-5.6523,-5.4357,-5.2632,0.0,-5.2478,-5.2161,-5.1462,0.0,0.0,0.0,0.0,0.0,0.0,0.0,0.0,0.0,0.0,0.0,0.0,0.0,-4.4726,-4.6158,-4.7747,-4.8018,-4.75,-4.6174,-4.4612,-4.3135,-4.18,-4.0969,-4.1324,-4.2931,-4.6986,-5.1232,-5.5646,-5.7943,-6.0663,-6.3796,-6.4677,-6.5081,-6.5081,-6.4237,-6.2793,-6.054,-5.4019,-5.2032,-5.279,-4.7372,0.0,0.0,0.0,0.0,0.0,0.0,0.0,0.0,0.0,0.0,0.0,0.0,0.0,0.0,0.0,0.0,0.0,0.0,0.0,0.0,0.0,0.0,0.0,0.0,0.0,0.0,0.0,0.0,0.0,0.0,0.0,0.0,0.0,0.0,0.0,0.0,0.0,0.0,-5.2592,-5.7796,0.0,0.0,0.0,0.0,-5.8389,-6.1384,-6.4481,-6.7351,-6.912,-7.169,-7.5312,-7.6328,-7.7578,-7.9219,-7.9336,-7.9844,-8.0742,-7.9961,-8.0039,-8.0859,-8.0039,-7.918,-7.832,-7.75,-7.5625,-7.2773,-6.75,-6.3704,-6.0859,-5.7497,-5.6085,-5.5799,-5.502,-5.5157,-5.5568,0.0,0.0,0.0,0.0,0.0,0.0,0.0,0.0,0.0,0.0,0.0,0.0,0.0,-4.7296,-4.986,-5.1503,-5.2901,-5.2939,-5.1075,-4.819,-4.5975,-4.469,-4.305,-4.3484,-4.6315,-5.0134,-5.3831,-5.7339,-6.1226,-6.4237,-6.6402,-6.6696,-6.7136,-6.7577,-6.6769,-6.5778,-6.4457,-5.9894,-5.6897,-5.4983,-5.1895,-4.9356,0.0,0.0,0.0,0.0,0.0,0.0,0.0,0.0,0.0,0.0,0.0,0.0,0.0,0.0,0.0,0.0,0.0,0.0,0.0,0.0,0.0,0.0,0.0,0.0,0.0,0.0,0.0,0.0,0.0,0.0,0.0,0.0,0.0,0.0,0.0,0.0,0.0,-5.8017,-6.2832,0.0,-6.1089,-6.3096,-6.4514,-6.4229,-6.6845,-6.9722,-7.2507,-7.4381,-7.6527,-7.9101,-8.0039,-8.0781,-8.1367,-8.1367,-8.125,-8.1015,-8.0703,-8.039,-8.0156,-7.9844,-7.8945,-7.7656,-7.7344,-7.539,-7.2265,-6.9883,-6.6679,-6.3081,-6.0737,-5.8779,-5.7317,-5.7434,-5.7225,-5.6913,0.0,0.0,0.0,0.0,0.0,0.0,0.0,0.0,0.0,0.0,0.0,-4.393,-4.597,-4.9582,-5.2636,-5.4539,-5.5984,-5.5739,-5.3162,-4.9926,-4.7229,-4.5252,-4.4508,-4.613,-5.0317,-5.387,-5.7386,-6.086,-6.4677,-6.721,-6.8495,-6.8495,-6.8641,-6.8898,-6.8641,-6.8054,-6.7173,-6.5264,-6.18,-5.7371,-5.539,-5.3199,-5.0906,0.0,0.0,0.0,0.0,0.0,0.0,0.0,0.0,0.0,0.0,0.0,0.0,0.0,0.0,0.0,0.0,0.0,0.0,0.0,0.0,0.0,0.0,0.0,0.0,0.0,0.0,0.0,0.0,0.0,0.0,0.0,0.0,0.0,0.0,0.0,-6.2436,-6.1949,-6.7031,-6.9412,-6.6317,-6.8331,-6.981,-6.981,-7.2211,-7.4651,-7.6901,-7.8486,-7.997,-8.1406,-8.1992,-8.2304,-8.2304,-8.1992,-8.1562,-8.0976,-8.0117,-7.9414,-7.8828,-7.8242,-7.7383,-7.6328,-7.6328,-7.4687,-7.1914,-7.0781,-6.8086,-6.4609,-6.3125,-6.1367,-5.9648,-5.9792,-5.9388,-5.8763,0.0,0.0,0.0,0.0,0.0,0.0,0.0,0.0,0.0,0.0,-4.3125,-4.555,-4.8516,-5.1482,-5.4231,-5.6675,-5.6822,-5.5385,-5.2118,-4.9483,-4.6593,-4.3351,-4.5262,-4.9083,-5.4813,-5.8132,-6.2022,-6.6549,-6.8164,-6.9339,-7.0146,-7.011,-6.9669,-6.8972,-6.9743,-6.9633,-6.8972,-6.9779,-6.6476,-6.0432,-5.7661,-5.6411,-5.5655,0.0,0.0,0.0,0.0,0.0,0.0,0.0,0.0,0.0,0.0,0.0,0.0,0.0,0.0,0.0,0.0,0.0,0.0,0.0,0.0,0.0,0.0,0.0,0.0,0.0,0.0,0.0,0.0,0.0,0.0,0.0,0.0,0.0,-5.507,-6.1443,-6.5616,-6.417,-7.044,-7.3273,-6.9219,-7.2531,-7.4899,-7.4861,-7.7184,-7.9134,-8.0388,-8.1267,-8.1889,-8.2304,-8.2304,-8.2304,-8.2304,-8.1445,-8.0976,-8.0937,-7.8398,-7.7187,-7.7109,-7.5351,-7.4531,-7.4531,-7.4492,-7.3476,-7.1719,-7.0078,-6.789,-6.5469,-6.4609,-6.3711,-6.2851,-6.1992,-6.1629,-6.1201,0.0,0.0,0.0,0.0,0.0,0.0,0.0,0.0,0.0,0.0,-4.3604,-4.6375,-4.9371,-5.281,-5.5904,-5.8304,-5.7483,-5.6012,-5.4186,-4.9728,-4.6609,-4.5327,-4.8798,-5.2899,-5.7373,-6.1066,-6.4363,-6.7357,-6.8972,-7.0183,-7.0954,-7.0367,-6.9963,-6.9779,-7.0,-6.9633,-6.9009,-7.0403,-6.9596,-6.71,-6.3441,-6.0287,-5.7489,0.0,0.0,0.0,0.0,0.0,0.0,0.0,0.0,0.0,0.0,0.0,0.0,0.0,0.0,0.0,0.0,0.0,0.0,0.0,0.0,0.0,0.0,0.0,0.0,0.0,0.0,0.0,0.0,0.0,0.0,0.0,0.0,-6.1269,-6.1113,-6.5958,-7.0298,-7.2365,-7.6044,-7.7938,-7.6813,-7.8299,-7.9092,-7.8438,-7.9775,-8.0844,-8.1322,-8.1694,-8.2049,-8.2304,-8.2304,-8.2304,-8.2304,-8.1445,-8.0664,-8.0039,-7.8125,-7.6875,-7.6211,-7.4453,-7.332,-7.2695,-7.2031,-7.0469,-6.8281,-6.7812,-6.6445,-6.457,-6.3711,-6.2812,-6.2031,-6.1797,-6.1532,-6.1089,0.0,0.0,0.0,0.0,0.0,0.0,0.0,0.0,0.0,0.0,-4.426,-4.7086,-4.951,-5.2966,-5.5647,-5.7079,-5.5837,-5.4115,-5.2192,-4.8604,-4.7198,-4.8664,-5.2098,-5.6162,-6.0743,-6.3984,-6.6769,-6.9192,-7.0477,-7.1358,-7.1798,-7.1321,-7.0734,-7.011,-7.0807,-7.0477,-6.9522,-7.1138,-7.1541,-7.0881,-6.8201,-6.5419,-6.2456,-5.8751,-5.6325,-5.4576,-5.2531,-5.1645,-5.1153,-4.9085,0.0,0.0,0.0,0.0,0.0,0.0,0.0,0.0,0.0,0.0,0.0,0.0,0.0,0.0,0.0,0.0,0.0,0.0,0.0,0.0,0.0,0.0,0.0,0.0,-6.2198,-6.614,-6.7936,-7.0977,-7.4014,-7.6746,-7.9015,-8.0323,-8.0323,-8.0785,-8.09,-8.04,-8.0916,-8.1407,-8.1664,-8.1825,-8.1996,-8.2304,-8.2304,-8.2109,-8.1758,-8.0898,-7.9844,-7.8633,-7.6914,-7.5664,-7.4765,-7.3008,-7.1914,0.0,-7.0547,-6.8945,-6.6875,-6.6523,-6.5312,0.0,0.0,0.0,0.0,0.0,-6.0948,-6.0493,0.0,0.0,0.0,0.0,0.0,0.0,0.0,0.0,0.0,0.0,0.0,-4.7286,-4.9026,-5.2013,-5.3959,-5.4252,-5.2892,-5.089,-4.8243,-4.7108,-4.8376,-5.2605,-5.5421,-5.9243,-6.4409,-6.6843,-6.9229,-7.1578,-7.2202,-7.2569,-7.2642,-7.2532,-7.1688,-7.0293,-7.1835,-7.1651,-7.033,-7.1872,-7.2496,-7.2459,-7.1725,-7.0367,-6.8255,-6.3353,-6.1315,-6.0543,-5.7077,-5.493,-5.3564,-5.235,0.0,0.0,0.0,0.0,0.0,0.0,0.0,0.0,0.0,0.0,0.0,0.0,0.0,0.0,0.0,0.0,0.0,0.0,0.0,0.0,0.0,0.0,0.0,0.0,-6.5692,-7.0437,-7.4553,-7.5976,-7.713,-7.8631,-8.0169,-8.1093,-8.1093,-8.1093,-8.1093,-8.1093,-8.1139,-8.1298,-8.1662,0.0,0.0,0.0,0.0,-8.1719,-8.0859,-8.0,-7.8789,-7.7187,-7.543,-7.414,-7.3242,-7.1406,-7.0547,-7.0508,-6.9609,-6.8203,-6.6562,-6.5781,-6.4414,-6.2851,-6.2851,-6.2851,-6.2656,-6.0876,-6.0137,0.0,0.0,0.0,0.0,0.0,0.0,0.0,0.0,0.0,0.0,-4.198,-4.3781,-4.5625,-4.7371,-4.9334,-5.1316,-5.3261,-5.1007,-4.9084,-4.8077,-4.8199,-5.0408,-5.5121,-5.9315,-6.321,-6.6943,-6.9376,-7.1468,-7.323,-7.2753,-7.2826,-7.345,-7.2789,-7.1982,-7.1138,-7.2092,-7.1982,-7.1138,-7.2092,-7.2496,-7.2496,-7.2349,-7.0513,-6.7751,-6.6066,-6.3775,-6.1187,-5.9196,-5.8666,-5.8452,-5.5273,-5.4406,-5.4333,-5.237,-5.0274,0.0,0.0,0.0,0.0,0.0,0.0,0.0,0.0,0.0,0.0,0.0,0.0,0.0,0.0,0.0,0.0,0.0,0.0,0.0,-6.4239,-6.9194,-7.3745,-7.7284,-7.9131,-8.0246,-8.0554,-8.09,-8.1093,-8.1093,-8.1093,-8.1093,-8.1093,-8.1231,-8.1371,-8.1447,-8.1785,0.0,-8.1041,-8.1166,-8.082,-7.9961,-7.914,-7.8203,-7.7187,0.0,0.0,-7.3203,-7.0781,-6.9687,-6.9648,-6.8086,-6.6406,-6.4805,-6.4609,-6.3515,-6.1953,-6.1953,-6.1953,-6.1836,-6.0741,-6.0224,-5.9744,0.0,0.0,0.0,0.0,0.0,0.0,0.0,0.0,0.0,0.0,-4.3215,-4.4624,-4.5746,-4.7335,-4.8646,-4.9365,-4.7692,-4.7011,-4.7995,-4.9883,-5.3269,-5.8368,-6.2308,-6.5767,-6.8615,-7.0386,-7.1908,-7.3083,-7.2716,-7.2716,-7.3083,-7.2679,-7.2092,-7.1329,-7.2165,-7.2275,-7.1945,-7.2349,-7.2716,-7.3083,-7.2679,-7.1064,-6.8862,-6.8458,-6.6769,-6.4494,-6.3282,-6.2328,-6.1251,-5.8975,-5.7678,-5.6688,-5.4842,-5.2958,-5.1088,0.0,0.0,0.0,0.0,0.0,0.0,0.0,0.0,0.0,0.0,0.0,0.0,0.0,0.0,-5.6222,0.0,0.0,-6.415,-6.836,-7.2259,-7.563,-7.813,-8.0015,-8.1093,-8.1093,-8.1093,-8.1093,-8.1093,-8.1093,-8.1093,-8.1093,-8.1196,-8.1272,-8.1407,-8.1275,-8.107,-8.07,-8.0459,-7.9961,-7.9101,-7.8281,-7.7187,-7.5898,-7.457,-7.3476,-7.2578,-7.039,-6.9414,-6.9336,-6.7187,-6.5508,-6.4219,-6.3359,-6.25,-6.1719,-6.1719,-6.1445,-6.0898,-5.9524,-5.8978,-5.8659,0.0,0.0,0.0,0.0,0.0,0.0,0.0,0.0,0.0,0.0,-4.2663,-4.3636,-4.406,-4.5318,-4.5824,0.0,-4.4926,-4.5927,-4.8329,-5.1737,-5.611,-6.1569,-6.4924,-6.774,-7.0079,-7.125,-7.2235,-7.2907,-7.2863,-7.2863,-7.2907,-7.2863,-7.2475,-7.1921,-7.2595,-7.2907,-7.2879,-7.2773,-7.312,-7.3634,-7.2826,-7.1725,-7.0513,-7.0036,-6.8862,-6.732,-6.6366,-6.4457,-6.2254,-6.1594,-5.9758,-5.7593,-5.6602,-5.5217,-5.3437,-5.0725,-5.0633,0.0,0.0,0.0,0.0,0.0,0.0,0.0,0.0,-5.3369,-5.4332,-5.6174,-5.8438,-6.0702,-6.2698,-6.5151,-6.8052,-7.1604,-7.4476,-7.6784,-7.8284,-7.9862,-8.0862,-8.0862,-8.1016,-8.1093,-8.1093,-8.1093,-8.1093,-8.1093,-8.1093,-8.1152,-8.1336,-8.0854,-8.0543,-8.0388,-7.9899,-7.91,-7.8008,-7.7305,-7.6055,-7.4336,-7.3633,-7.2734,-7.168,-7.0117,-6.9219,-6.8789,-6.6211,-6.4687,-6.3945,-6.2344,-6.1719,-6.168,-6.1523,-6.0937,-6.0,-5.8534,-5.7965,-5.7788,0.0,0.0,0.0,0.0,0.0,0.0,0.0,0.0,0.0,0.0,0.0,0.0,0.0,0.0,0.0,-4.2001,-4.4919,-4.7656,-4.9732,-5.3337,-5.7993,-6.3785,-6.7196,-6.9738,-7.153,-7.316,-7.408,-7.438,-7.4193,-7.4193,-7.4343,-7.4179,-7.4056,-7.3959,-7.425,-7.438,-7.4327,-7.3774,-7.3597,-7.3634,-7.2826,-7.2386,-7.2018,-6.9853,-6.8054,-6.6439,-6.4897,-6.2768,-6.0639,-6.0566,-5.8951,-5.7152,-5.8377,-5.7212,-5.5017,-5.3047,-5.163,-5.0287,-4.8367,-4.8663,-5.024,-5.3049,-5.3378,-5.4381,0.0,-6.0338,-6.0591,-6.2998,-6.4883,-6.623,-6.6487,-6.8642,-7.0758,-7.1975,-7.4976,-7.7476,-7.8361,-7.9323,-7.9939,-7.9939,-8.0631,-8.1093,-8.1093,-8.1093,-8.1093,-8.1093,-8.1093,-8.1108,-8.1116,-8.1246,-8.0689,-7.9321,-7.9369,-7.8408,-7.6211,-7.6094,-7.5156,-7.3437,-7.3359,-7.2422,-7.082,-6.9844,-6.8594,-6.7031,-6.4414,-6.3242,-6.3086,-6.2109,-6.1719,-6.1601,-6.0859,-6.0039,-5.9297,-5.9101,-5.8933,-5.8538,0.0,0.0,0.0,0.0,0.0,0.0,0.0,0.0,0.0,0.0,0.0,0.0,0.0,0.0,0.0,-4.1124,-4.3609,-4.6595,-4.9866,-5.3451,-5.803,-6.3866,-6.6777,-6.9075,-7.0782,-7.2116,-7.2821,-7.2927,-7.2837,-7.2837,-7.2927,-7.337,-7.3555,-7.3592,-7.4177,-7.4699,-7.5065,-7.3971,-7.3801,-7.4107,-7.2446,-7.1248,-7.0183,-6.8238,-6.5595,-6.2903,-6.2387,-6.1265,0.0,-5.8312,-5.719,-5.6509,-5.7238,-5.605,-5.4195,-5.2994,-5.2349,-5.1858,-5.0912,-5.1928,-5.3427,-5.4293,-5.6123,-5.8484,-6.1416,-6.261,-6.3803,-6.6295,-6.8129,-6.9629,-7.0629,-7.2091,-7.3399,0.0,-7.6438,-7.7938,-7.7823,-7.8515,-7.8669,-7.7707,-7.79,-7.8707,-8.0208,-8.0323,-8.0554,-8.1054,-8.1093,-8.1093,-8.1093,-8.0332,-7.9593,-7.8971,-7.7818,-7.6737,-7.5716,-7.4841,-7.4023,-7.3281,-7.2265,-7.1406,-7.0625,-6.8789,-6.6719,-6.457,-6.3476,-6.2695,-6.2226,-6.1836,-6.1719,-6.164,-6.1289,-6.0625,-5.9765,-5.8789,-5.8084,-5.7451,0.0,0.0,0.0,0.0,0.0,0.0,0.0,0.0,0.0,0.0,0.0,0.0,0.0,0.0,-4.0814,-4.0814,-4.2564,-4.539,-4.9329,-5.3,-5.7443,-6.2796,-6.5849,-6.8088,-6.9578,-7.11,-7.1768,-7.161,-7.2014,-7.2128,-7.195,-7.2754,-7.3249,-7.3515,-7.4189,-7.496,-7.5636,-7.4451,-7.4089,-7.4085,-7.2066,-7.0236,-6.8515,-6.6077,-6.3015,-6.0048,-5.9952,-5.8794,-5.7114,-5.5411,-5.4558,-5.4317,-5.4801,-5.4093,-5.2918,-5.2253,-5.2254,-5.252,-5.2738,-5.4336,-5.6011,-5.648,-5.9463,-6.261,-6.3919,-6.5536,-6.7295,-6.909,-7.0591,-7.2014,-7.3283,-7.3976,-7.4668,-7.5515,-7.6861,-7.7592,-7.7015,-7.7246,-7.6899,-7.5476,-7.4899,-7.5515,-7.7861,-7.89,-7.9785,-8.0669,-8.0746,-8.0746,-8.0746,-7.9467,-7.8629,-7.8479,-7.6798,-7.5673,-7.5237,-7.3702,-7.2812,-7.2578,-7.1055,-7.0234,-6.9922,-6.7344,-6.5039,-6.3008,-6.2734,-6.2265,-6.1719,-6.1719,-6.1719,-6.168,-6.1445,-6.082,-5.9883,-5.8437,-5.75,-5.6914,0.0,0.0,0.0,0.0,0.0,0.0,0.0,0.0,0.0,0.0,0.0,0.0,0.0,0.0,-4.0907,-4.0907,-4.2427,-4.4828,-4.8145,-5.2307,-5.6508,-6.0692,-6.4885,-6.7538,-6.841,-7.0909,-7.1896,-7.1284,-7.274,-7.3162,-7.2577,-7.3216,-7.3894,-7.4649,-7.4966,-7.5513,-7.6256,-7.5695,-7.4685,-7.328,-7.1678,-6.9966,-6.7924,-6.3432,-6.0707,-5.9065,-5.7793,-5.483,-5.1581,-5.1765,-5.0794,-4.9775,-5.1356,-5.1778,-5.1678,-5.1268,-5.0993,-5.1233,-5.291,-5.461,-5.686,-6.0883,-6.3818,-6.6397,-6.8898,-7.0783,-7.1989,-7.2052,-7.2783,-7.3437,-7.35,-7.3514,-7.3822,-7.463,-7.5476,-7.6053,-7.6053,-7.5322,-7.4514,-7.3668,-7.2091,-7.1745,0.0,-7.663,-7.89,-7.9785,-7.9862,-7.9862,-7.9862,-7.8992,-7.8241,-7.7666,-7.6929,-7.5839,-7.4336,-7.2804,-7.1601,-7.0781,-6.9883,-6.9023,-6.8203,-6.5586,-6.3867,-6.2969,-6.2109,-6.1719,-6.1719,-6.1719,-6.1719,-6.1601,-6.0781,-5.9961,-5.914,-5.8242,-5.789,-5.7734,0.0,0.0,0.0,0.0,0.0,0.0,0.0,0.0,0.0,0.0,0.0,0.0,0.0,0.0,0.0,0.0,-4.1985,-4.3784,-4.6538,-4.9528,-5.307,-5.7289,-6.0431,-6.2974,-6.4974,-6.6436,-6.7601,-6.8498,-6.9023,-6.9446,-6.9841,-7.0598,-7.1129,-7.1423,-7.2639,-7.3331,-7.3584,-7.357,-7.2964,-7.1837,-6.9804,-6.7996,-6.6024,-6.1744,-5.8408,-5.5685,0.0,-5.1548,-5.0122,-4.8626,-4.8098,-4.8211,-4.8846,-4.8618,-4.8251,-4.9001,-5.0807,-5.2919,-5.4582,-5.7091,-5.9969,-6.3022,-6.6102,-6.8783,-7.0167,-7.136,-7.2206,-7.2206,-7.0656,-6.9489,-7.0067,-6.9258,-6.9104,-7.1068,-7.3028,-7.4361,-7.4361,-7.5053,-7.4437,-7.136,-7.0937,0.0,0.0,0.0,0.0,-7.7938,-7.7592,-7.7746,-7.8861,-7.7592,-7.6765,-7.6544,-7.4896,-7.3522,-7.245,-7.1579,-7.0703,-6.9883,-6.8437,-6.6992,-6.5547,-6.4101,-6.2969,-6.2109,-6.1836,-6.1719,-6.1719,-6.1719,-6.1367,-6.082,-6.0508,-5.9531,-5.8281,-5.8008,-5.7539,-5.6992,0.0,0.0,0.0,0.0,0.0,0.0,0.0,0.0,0.0,0.0,0.0,0.0,0.0,0.0,0.0,0.0,0.0,-4.2689,-4.487,-4.7048,-4.9722,-5.3026,-5.5548,-5.7649,-5.9307,-6.0453,-6.1621,-6.2684,-6.3889,-6.474,-6.5329,-6.7077,-6.8052,-6.8398,-6.9783,-7.0552,-7.0846,-7.103,-6.9977,-6.809,-6.6663,-6.4568,-6.1911,-5.8565,-5.573,0.0,-5.0262,-4.9071,-4.8592,-4.6689,-4.64,-4.6887,-4.7299,-4.7462,-4.7769,-4.9178,-5.1859,-5.4889,-5.7428,-6.0355,-6.3442,-6.6526,-6.9206,-7.1283,-7.2091,-7.2476,-7.2399,-7.1475,-6.913,-6.7178,-6.7152,-6.5714,-6.5303,-6.7598,-6.9066,-7.0425,-7.1953,-7.2555,-7.2195,-7.036,-7.0321,-7.0398,0.0,0.0,0.0,-7.613,-7.6438,-7.6784,-7.7553,-7.6284,-7.5553,-7.5553,-7.3323,-7.1949,-7.1503,-7.0606,-6.9762,-6.9023,-6.7265,-6.5703,-6.4258,-6.3398,-6.2539,-6.1719,-6.1719,-6.1719,-6.1719,-6.1719,-6.1172,-6.0351,-6.0078,-5.9101,-5.7851,-5.7539,-5.6875,-5.6172,0.0,0.0,0.0,0.0,0.0,0.0,0.0,0.0,0.0,0.0,0.0,0.0,0.0,0.0,0.0,0.0,0.0,0.0,-4.3194,-4.4921,-4.6556,-4.8128,-5.0618,-5.1981,-5.2087,-5.3639,-5.4498,-5.4682,-5.7803,-5.935,-5.9534,-6.2617,-6.4549,-6.5435,-6.6243,-6.7051,-6.7834,-6.7872,-6.5793,-6.2432,-6.2366,-5.9983,-5.6252,-5.4141,-5.2828,-5.1755,-4.8817,-4.7441,-4.6907,-4.5981,-4.5748,-4.6034,-4.6916,-4.8408,-5.0146,-5.1756,-5.4146,-5.7177,-6.1203,-6.4236,-6.7215,-7.1272,-7.2899,-7.3668,-7.4361,-7.386,-7.2514,-6.9975,-6.7988,-6.6278,0.0,0.0,-6.2497,-6.4461,-6.4122,-6.511,-6.9282,-6.859,-6.8501,0.0,0.0,0.0,0.0,0.0,0.0,-7.4399,0.0,-7.6707,-7.5976,-7.513,-7.463,-7.4591,-7.2333,-7.1221,-7.1425,-6.9926,-6.8804,-6.8125,-6.6367,-6.5117,-6.4258,-6.3359,-6.2461,-6.1719,-6.1719,-6.168,-6.164,-6.164,-6.1094,-6.0195,-5.9414,-5.8594,-5.7734,-5.6914,-5.6055,-5.543,0.0,0.0,0.0,0.0,0.0,0.0,0.0,0.0,0.0,0.0,0.0,0.0,0.0,0.0,0.0,0.0,0.0,0.0,-4.1583,-4.318,-4.4569,-4.56,-4.7417,-4.9004,-5.0298,-5.0759,-5.1608,-5.2852,-5.3709,-5.4783,-5.6078,-5.6904,-5.7761,-5.8614,-5.942,-5.9921,-6.0151,-6.0838,-6.0143,-5.8616,-5.7959,-5.7082,-5.5875,-5.3501,-5.2039,-5.0975,-4.8995,-4.734,-4.618,-4.6584,-4.7975,-4.9567,-4.9723,-5.1411,-5.3513,-5.4583,-5.7572,-6.1175,-6.4135,-6.7218,-7.0208,-7.2591,-7.336,-7.3206,-7.2129,-7.0744,-6.8988,-6.6509,-6.3174,-6.0614,-6.021,-5.9235,0.0,-6.246,-6.5288,0.0,-7.0284,-7.2426,0.0,-7.2899,-7.3206,-7.3283,-7.2899,-7.3206,0.0,0.0,-7.363,-7.3937,-7.4976,-7.4245,-7.3514,-7.286,-7.1147,-7.0329,-7.053,-6.9168,-6.8045,-6.7226,-6.5469,-6.4531,-6.4258,-6.2734,-6.1914,-6.1719,-6.1719,-6.1328,-6.0742,-6.0742,-5.9844,-5.8515,-5.832,-5.7695,-5.6914,-5.668,-5.6055,-5.5312,0.0,0.0,0.0,0.0,0.0,0.0,0.0,0.0,0.0,0.0,0.0,0.0,0.0,0.0,0.0,0.0,0.0,0.0,0.0,-4.1933,-4.2645,-4.3098,-4.398,-4.4926,-4.59,-4.5936,-4.6401,-4.7343,-4.8783,-4.9975,-5.1035,-5.2865,-5.3963,-5.4486,-5.5252,-5.5631,-5.5666,-5.6163,-5.5458,0.0,0.0,-5.3187,-5.2104,-5.1069,-5.0352,-4.973,-4.8387,-4.7727,-4.7649,-4.8933,-5.0797,-5.2691,-5.3347,-5.5326,-5.7718,-5.9318,-6.1935,-6.5048,-6.8321,-7.1143,-7.3476,-7.4822,-7.4591,-7.3413,-7.0965,-6.8822,-6.6536,-6.3681,-6.0664,-5.8449,-5.8139,-5.7288,-5.738,0.0,0.0,0.0,-6.8886,-7.1299,-7.3042,0.0,-7.4784,0.0,-7.463,-7.5014,-7.5091,0.0,-7.413,-7.3976,-7.4168,-7.3745,-7.2937,-7.1668,-7.0078,-6.9217,-6.9104,-6.8024,-6.7299,-6.6875,-6.5117,-6.4101,-6.3672,-6.2305,-6.1719,-6.1719,0.0,-6.1211,-6.039,-6.039,-5.9414,-5.789,-5.789,-5.7383,-5.6562,-5.6172,-5.5469,-5.4687,0.0,0.0,0.0,0.0,0.0,0.0,0.0,0.0,0.0,0.0,0.0,0.0,0.0,0.0,0.0,0.0,0.0,0.0,0.0,0.0,0.0,-4.1099,-4.1109,-4.1083,-4.1093,-4.1092,-4.1093,-4.1093,-4.3968,-4.5434,-4.5673,-4.9406,-5.1203,-5.1355,-5.2165,-5.2558,-5.2525,-5.2519,-5.1275,-4.9386,-5.0165,-4.921,-4.7466,0.0,-4.8427,-4.8322,-4.7377,-4.8005,-4.9598,-5.1655,-5.3765,-5.5805,-5.7477,-5.9765,-6.2309,-6.481,-6.6536,-6.8604,-7.2706,-7.4976,-7.6361,-7.7092,-7.5822,-7.3504,-7.0234,-6.7251,-6.4288,-6.1244,-5.9297,-5.7915,-5.7343,-5.6635,-5.6467,-5.7536,0.0,-6.1847,-6.6764,-6.8231,-7.0336,-7.4399,-7.5553,-7.6053,-7.6169,-7.6053,-7.5938,-7.5822,-7.5745,-7.4976,-7.3399,-7.3206,-7.2322,-7.0437,-6.913,-6.8077,-6.7333,-6.6833,-6.657,-6.6522,-6.4883,-6.3711,-6.2969,-6.2109,-6.1719,-6.168,0.0,0.0,-6.0234,-6.0117,-5.914,-5.7734,-5.7734,-5.7265,-5.6484,-5.5625,-5.4765,-5.3867,0.0,0.0,0.0,0.0,0.0,0.0,0.0,0.0,0.0,0.0,0.0,0.0,0.0,0.0,0.0,0.0,0.0,0.0,0.0,0.0,0.0,0.0,-4.1088,-4.1094,-4.1119,-4.1119,-4.1119,-4.1116,-4.1671,-4.2336,-4.3077,-4.4527,-4.5585,-4.6289,-4.7187,-4.7536,-4.7557,-4.7496,-4.7203,-4.6841,-4.6976,-4.7211,-4.7427,-4.7558,0.0,0.0,-4.653,-4.6795,-4.8192,-5.1934,-5.6154,-6.01,-6.1736,-6.3984,-6.6551,-6.9078,-7.004,-7.1027,-7.4591,-7.6284,-7.7092,-7.7246,-7.4938,-7.1772,-6.8499,-6.4127,-6.0257,-5.8432,-5.6699,-5.576,-5.6375,-5.6861,-5.7636,-5.9124,-6.133,-6.4093,-6.7706,-6.9527,-7.1797,0.0,-7.5899,-7.6284,-7.6976,-7.6438,0.0,0.0,0.0,0.0,-7.2476,-7.1745,-7.0244,-6.7821,-6.8331,-6.7571,-6.533,-6.6166,-6.5923,-6.4572,-6.3668,-6.3164,-6.2969,-6.2109,-6.1719,-6.164,0.0,0.0,-5.9336,-5.8633,-5.7734,-5.6836,-5.6836,-5.6719,-5.6484,-5.5625,-5.4765,-5.3867,0.0,0.0,0.0,0.0,0.0,0.0,0.0,0.0,0.0,0.0,0.0,0.0,0.0,0.0,0.0,0.0,0.0,0.0,0.0,0.0,0.0,0.0,0.0,0.0,0.0,-4.1537,-4.1771,-4.1771,0.0,-4.3333,-4.3762,-4.466,-4.529,-4.5687,-4.6117,-4.6283,-4.6289,-4.6242,-4.6186,-4.6204,-4.619,-4.6419,0.0,0.0,0.0,0.0,-4.6657,-4.7466,-4.8948,-5.1842,-5.6414,-6.1263,-6.3306,-6.632,-6.9398,-7.1091,-7.2206,-7.3437,-7.5976,-7.7284,-7.7823,-7.74,-7.4399,-7.0669,-6.7413,-6.2748,-5.8528,-5.6551,-5.5151,-5.4537,-5.5404,-5.6194,-5.7124,-5.8294,-5.9793,-6.1962,-6.5331,-6.7218,-6.9706,-7.3553,-7.5207,-7.6322,-7.7207,-7.6515,0.0,0.0,0.0,0.0,-7.1552,-6.986,-6.8167,-6.6513,-6.653,-6.5786,-6.4182,-6.483,-6.4579,-6.3419,-6.3158,-6.2773,-6.2305,-6.1875,-6.1719,-6.164,0.0,0.0,-5.914,-5.8242,-5.7383,-5.6601,-5.6601,-5.6601,-5.6445,-5.5117,-5.4375,-5.3828,0.0,0.0,0.0,0.0,0.0,0.0,0.0,0.0,0.0,0.0,0.0,0.0,0.0,0.0,0.0,0.0,0.0,0.0,0.0,0.0,0.0,0.0,0.0,0.0,0.0,0.0,0.0,0.0,-4.4036,0.0,0.0,0.0,0.0,0.0,0.0,-4.6311,-4.6285,-4.6248,-4.6196,0.0,0.0,0.0,0.0,0.0,0.0,0.0,0.0,-4.841,-4.975,-5.1661,-5.5548,-5.9976,-6.2298,-6.614,-7.0054,-7.1079,-7.2465,-7.4197,-7.6645,-7.7746,-7.8054,-7.7207,-7.3822,-6.9797,-6.6582,-6.1776,-5.74,-5.5404,-5.4155,-5.3682,-5.4498,-5.5171,-5.5885,-5.6863,-5.7458,-5.9055,-6.2633,-6.46,-6.7141,-7.1168,-7.3899,0.0,-7.6399,-7.5861,0.0,0.0,0.0,0.0,0.0,-6.8013,-6.6474,-6.5628,-6.4782,-6.3978,-6.3284,-6.3394,-6.3147,-6.2492,-6.2601,-6.2342,-6.1719,-6.1719,-6.1601,-6.1367,0.0,0.0,0.0,-5.7969,-5.7226,-5.6562,-5.6406,-5.6328,-5.6094,-5.4375,-5.3711,-5.3516,0.0,0.0,0.0,0.0,0.0,0.0,0.0,0.0,0.0,0.0,0.0,0.0,0.0,0.0,0.0,0.0,0.0,0.0,0.0,0.0,0.0,0.0,0.0,0.0,0.0,0.0,0.0,0.0,0.0,0.0,0.0,0.0,0.0,0.0,0.0,0.0,0.0,-4.6211,0.0,0.0,0.0,0.0,0.0,0.0,0.0,0.0,0.0,-4.8594,-4.9087,-5.1495,-5.3661,-5.5644,-5.733,-6.1839,-6.6776,-6.8371,-6.9489,-7.13,-7.6005,-7.7361,-7.7207,-7.6322,-7.2937,-6.8963,-6.5743,-6.0471,-5.6007,-5.5171,-5.3689,-5.2789,-5.3644,-5.3863,-5.4403,-5.5874,-5.6149,-5.7632,-6.1643,-6.37,-6.6075,-6.9513,0.0,0.0,-7.386,0.0,0.0,0.0,0.0,0.0,0.0,-6.6513,-6.559,-6.4743,-6.3858,-6.3024,-6.2263,-6.2375,-6.2098,-6.1429,-6.1552,-6.1658,-6.1719,-6.1719,-6.1289,-6.0469,0.0,0.0,0.0,-5.707,-5.668,-5.6523,-5.5742,-5.543,-5.5195,-5.3476,-5.2812,-5.2695,0.0,0.0,0.0,0.0,0.0,0.0,0.0,0.0,0.0,0.0,0.0,0.0,0.0,0.0,0.0,0.0,0.0,0.0,0.0,0.0,0.0,0.0,0.0,0.0,0.0,0.0,0.0,0.0,0.0,0.0,0.0,0.0,0.0,0.0,0.0,0.0,0.0,0.0,0.0,0.0,0.0,0.0,0.0,0.0,0.0,0.0,0.0,0.0,-4.9532,-5.0506,-5.2284,-5.3909,-5.3078,-5.5777,-6.0084,-6.4266,-6.7162,-6.9797,-7.3273,-7.5361,-7.6207,-7.4822,-7.1376,-6.7381,-6.4093,-5.9163,-5.4909,-5.3709,-5.2472,-5.1865,-5.2686,-5.2852,-5.339,-5.5015,-5.4409,-5.4984,-5.8654,-5.9248,-6.1362,-6.6756,-6.8732,0.0,0.0,0.0,0.0,0.0,0.0,0.0,0.0,-6.4512,-6.3935,-6.3128,-6.2743,-6.2166,-6.132,-6.1457,-6.1389,-6.1128,-6.1387,-6.1517,-6.1541,-6.1131,-6.0742,0.0,0.0,0.0,0.0,-5.6953,-5.6289,-5.5781,-5.543,-5.5312,-5.5156,-5.3945,-5.3476,-5.3359,0.0,0.0,0.0,0.0,0.0,0.0,0.0,0.0,0.0,0.0,0.0,0.0,0.0,0.0,0.0,0.0,0.0,0.0,0.0,0.0,0.0,0.0,0.0,0.0,0.0,0.0,0.0,-4.4075,0.0,0.0,0.0,0.0,0.0,0.0,0.0,0.0,0.0,0.0,0.0,0.0,0.0,0.0,0.0,0.0,0.0,0.0,0.0,0.0,0.0,0.0,0.0,-5.2608,-5.0841,-5.1865,-5.4699,-5.9515,-6.3643,-6.7224,-6.9708,-7.2388,-7.4168,-7.2745,-6.9246,-6.5423,-6.2576,-5.8058,-5.4054,-5.268,-5.1716,-5.1309,-5.1837,-5.1925,-5.2399,-5.3815,-5.321,-5.3572,-5.6443,-5.6917,-5.8845,-6.3873,0.0,0.0,0.0,0.0,0.0,0.0,0.0,0.0,0.0,0.0,-6.2435,-6.2101,-6.187,-6.1396,-6.0819,-6.0874,-6.0973,-6.1006,-6.1238,-6.1413,-6.1465,-6.0687,-6.0232,0.0,0.0,0.0,0.0,-5.6836,-5.625,-5.5664,-5.539,-5.5312,-5.5156,-5.4023,-5.3633,-5.3476,0.0,0.0,0.0,0.0,0.0,0.0,0.0,0.0,0.0,0.0,0.0,0.0,0.0,0.0,0.0,0.0,0.0,0.0,0.0,0.0,0.0,0.0,0.0,0.0,0.0,0.0,0.0,-4.4971,-4.587,-4.63,0.0,0.0,0.0,0.0,0.0,0.0,0.0,0.0,0.0,0.0,0.0,0.0,0.0,0.0,0.0,0.0,0.0,0.0,0.0,0.0,0.0,0.0,0.0,-5.1202,-5.1728,-5.4156,-5.8437,-6.2905,-6.5384,-6.8475,-7.0744,-6.9937,-6.6627,-6.3097,-6.1386,-5.7181,-5.3374,-5.2496,-5.1697,-5.1172,-5.1027,-5.1073,-5.1344,-5.2121,-5.2917,-5.4061,-5.5787,-5.8172,-6.0094,0.0,0.0,0.0,0.0,0.0,0.0,0.0,0.0,0.0,0.0,0.0,-6.1204,-6.2062,-6.1243,-6.0819,-6.0781,-6.0793,-6.086,-6.0997,-6.1006,-6.1182,-6.1465,-6.0603,0.0,0.0,0.0,0.0,0.0,-5.6601,-5.6601,-5.6484,-5.5625,-5.5312,-5.5078,-5.3359,-5.2695,-5.2578,0.0,0.0,0.0,0.0,0.0,0.0,0.0,0.0,0.0,0.0,0.0,0.0,0.0,0.0,0.0,0.0,0.0,0.0,0.0,0.0,0.0,0.0,0.0,0.0,0.0,0.0,0.0,-4.4114,-4.5597,-4.63,-4.63,-4.6294,0.0,0.0,0.0,0.0,0.0,0.0,0.0,0.0,0.0,0.0,0.0,0.0,0.0,0.0,0.0,0.0,0.0,0.0,0.0,0.0,0.0,0.0,0.0,-5.1405,-5.4583,-5.8592,-6.1089,-6.3355,-6.4828,-6.399,-6.1939,-5.955,-5.7284,-5.4706,-5.2518,-5.1645,-5.1289,-5.1114,-5.102,-5.099,-5.1246,-5.2074,-5.2422,-5.2995,0.0,0.0,0.0,-5.9801,-6.3812,0.0,0.0,0.0,0.0,0.0,0.0,0.0,0.0,0.0,-6.0935,-6.1204,-6.0935,-6.0781,-6.0781,-6.0781,-6.0839,-6.085,-6.0383,-6.0296,-6.0414,0.0,0.0,0.0,0.0,0.0,0.0,-5.656,-5.5898,-5.4805,-5.4531,-5.4062,-5.3476,-5.2891,-5.2695,-5.2656,0.0,0.0,0.0,0.0,0.0,0.0,0.0,0.0,0.0,0.0,0.0,0.0,0.0,0.0,0.0,0.0,0.0,0.0,0.0,0.0,0.0,0.0,0.0,0.0,0.0,-4.2474,-4.3372,-4.3686,-4.5129,-4.5987,-4.63,-4.6294,-4.6294,-4.63,0.0,0.0,0.0,0.0,0.0,0.0,0.0,0.0,-4.7509,0.0,0.0,0.0,0.0,0.0,0.0,0.0,0.0,0.0,0.0,0.0,0.0,0.0,-5.1981,-5.4784,-5.7254,-5.9359,-6.0751,-6.0201,-5.8613,-5.6737,-5.5125,-5.3265,-5.1735,-5.1139,-5.1055,-5.108,-5.099,-5.0937,-5.1115,-5.1641,-5.1989,-5.2376,0.0,0.0,0.0,-5.8865,0.0,0.0,0.0,0.0,0.0,0.0,0.0,0.0,0.0,0.0,-6.0666,-6.0319,-6.0627,-6.0781,-6.0781,-6.0473,-6.0319,-6.0281,-5.958,-5.9284,-5.9399,0.0,0.0,0.0,0.0,0.0,0.0,-5.6558,-5.5781,-5.4492,-5.4492,-5.3945,-5.3164,-5.2812,-5.2695,-5.2656,0.0,0.0,0.0,0.0,0.0,0.0,0.0,0.0,0.0,0.0,0.0,0.0,0.0,0.0,0.0,0.0,0.0,0.0,0.0,0.0,0.0,0.0,0.0,0.0,0.0,-4.1967,-4.2825,-4.3686,-4.4621,-4.5558,-4.6378,-4.6378,-4.6378,-4.6378,-4.6339,0.0,0.0,0.0,0.0,0.0,0.0,0.0,0.0,0.0,0.0,0.0,0.0,0.0,0.0,0.0,0.0,0.0,0.0,0.0,0.0,0.0,0.0,0.0,0.0,-5.6178,-5.7996,-5.7959,-5.6197,-5.4459,-5.4452,-5.264,0.0,-5.0921,-5.1005,-5.1034,-5.0914,-5.0937,-5.099,-5.0906,-5.1563,0.0,0.0,-5.431,0.0,0.0,0.0,0.0,0.0,0.0,0.0,0.0,0.0,0.0,0.0,0.0,0.0,0.0,-6.0204,-6.0627,-6.0627,-5.9819,-5.9396,-5.9396,-5.8588,-5.8276,-5.8372,0.0,0.0,0.0,0.0,0.0,0.0,-5.6516,-5.6054,-5.5195,-5.5195,-5.4648,-5.3711,-5.2891,-5.2617,-5.25,0.0,0.0,0.0,0.0,0.0,0.0,0.0,0.0,0.0,0.0,0.0,0.0,0.0,0.0,0.0,0.0,0.0,0.0,0.0,0.0,0.0,0.0,0.0,0.0,0.0,-4.1967,-4.2825,-4.3686,-4.5246,-4.6456,-4.7276,-4.7276,-4.7276,-4.7276,-4.6612,0.0,0.0,0.0,0.0,0.0,0.0,0.0,0.0,0.0,0.0,0.0,-4.79,-4.8017,0.0,0.0,0.0,0.0,0.0,0.0,0.0,0.0,-4.9066,-4.9487,-5.0718,0.0,-5.2925,-5.2919,-5.1962,-5.1192,0.0,-5.1004,-5.0267,-5.085,-5.1005,-5.1005,-5.0914,-5.0906,-5.0914,-5.0898,0.0,0.0,-5.1197,0.0,0.0,0.0,0.0,0.0,0.0,0.0,0.0,0.0,0.0,0.0,0.0,0.0,0.0,-5.8627,-5.8781,-5.8896,-5.8896,-5.8665,-5.8588,-5.8588,-5.7703,-5.7389,0.0,0.0,0.0,0.0,0.0,0.0,0.0,-5.6319,-5.5552,-5.4151,-5.4256,-5.3359,-5.1992,-5.1797,-5.1719,-5.168,0.0,0.0,0.0,0.0,0.0,0.0,0.0,0.0,0.0,0.0,0.0,0.0,0.0,0.0,0.0,0.0,0.0,0.0,0.0,0.0,0.0,0.0,0.0,0.0,0.0,-4.1576,-4.2435,-4.3686,-4.4621,-4.5753,-4.7002,-4.7002,-4.7002,-4.6963,-4.6495,0.0,0.0,0.0,0.0,0.0,-4.675,0.0,0.0,0.0,0.0,0.0,-4.7084,-4.7084,0.0,-4.7706,-4.8017,-4.8017,0.0,0.0,0.0,0.0,-4.8277,-4.8699,-4.9165,-4.9953,-5.0691,-5.1049,-5.05,-5.006,-5.0822,-5.0343,-4.9981,-5.0789,-5.0937,-5.0929,-5.0906,-5.0573,-5.0418,-5.0821,-5.0526,0.0,0.0,0.0,0.0,0.0,0.0,0.0,0.0,0.0,0.0,0.0,0.0,0.0,0.0,0.0,0.0,0.0,-5.7703,-5.7896,-5.8319,-5.7896,-5.7703,-5.7703,-5.6819,-5.6442,0.0,0.0,0.0,0.0,0.0,0.0,-5.4754,-5.5015,-5.4369,-5.3194,-5.3264,-5.2536,-5.1406,-5.1406,-5.1406,-5.1406,0.0,0.0,0.0,0.0,0.0,0.0,0.0,0.0,0.0,0.0,0.0,0.0,0.0,0.0,0.0,0.0,0.0,0.0,0.0,0.0,0.0,0.0,0.0,0.0,-4.1109,-4.1109,-4.189,-4.3489,-4.3918,-4.4933,-4.6495,-4.6768,-4.6729,-4.6495,-4.6378,-4.6302,0.0,0.0,0.0,0.0,-4.6986,0.0,0.0,0.0,0.0,0.0,0.0,0.0,0.0,-4.6851,-4.7084,-4.7123,-4.7273,0.0,0.0,0.0,0.0,0.0,-4.8365,-4.9037,-4.9852,-5.0532,-5.0131,-4.9762,-5.0387,-4.9908,-4.956,-5.0364,-5.0627,-5.0666,-5.0542,-5.014,-5.0008,0.0,0.0,0.0,-5.3494,0.0,0.0,0.0,0.0,0.0,0.0,0.0,0.0,0.0,0.0,0.0,0.0,0.0,0.0,0.0,-5.6791,-5.7165,-5.7896,-5.7165,-5.6791,-5.6791,-5.5934,-5.5511,-5.5472,-5.4664,0.0,0.0,0.0,0.0,-5.3391,-5.3506,-5.3121,-5.2458,-5.2473,-5.2005,-5.1366,-5.1366,-5.1367,-5.1406,0.0,0.0,0.0,0.0,0.0,0.0,0.0,0.0,0.0,0.0,0.0,0.0,0.0,0.0,0.0,0.0,0.0,0.0,0.0,0.0,0.0,0.0,0.0,0.0,0.0,0.0,-4.1576,-4.2591,-4.4816,-4.6417,-4.743,-4.8835,-4.8757,-4.7352,-4.6612,-4.6305,-4.6312,-4.6367,-4.6708,-4.7175,-4.6534,0.0,0.0,0.0,0.0,0.0,0.0,0.0,0.0,-4.6157,-4.6191,-4.6346,-4.7084,0.0,0.0,0.0,0.0,0.0,-4.7311,-4.805,-4.867,-4.8852,-4.8813,-4.8722,-4.8836,-4.821,-4.7816,-4.8631,-4.9359,-4.9653,-4.8848,-4.9792,-5.0496,-4.9892,0.0,-5.2838,0.0,0.0,0.0,0.0,0.0,0.0,0.0,0.0,0.0,0.0,0.0,0.0,0.0,0.0,0.0,0.0,0.0,-5.5972,-5.6088,-5.5972,-5.5895,-5.5895,-5.5049,-5.4664,-5.4664,-5.378,-5.3395,0.0,0.0,0.0,-5.3244,-5.3383,-5.2937,-5.2149,-5.229,-5.1892,-5.1217,-5.1217,-5.1317,-5.1406,0.0,0.0,0.0,0.0,0.0,0.0,0.0,0.0,0.0,0.0,0.0,0.0,0.0,0.0,0.0,0.0,0.0,0.0,0.0,0.0,0.0,0.0,0.0,0.0,0.0,0.0,-4.224,-4.3099,-4.5246,-4.6768,-4.7625,-4.8406,-4.8094,-4.6885,-4.6495,-4.6575,-4.7009,-4.6988,-4.7145,-4.7381,0.0,0.0,0.0,0.0,0.0,0.0,0.0,0.0,0.0,0.0,-4.6002,-4.6079,-4.6463,0.0,0.0,0.0,0.0,0.0,-4.6434,-4.712,-4.7608,-4.7143,-4.7724,-4.8406,-4.8408,-4.7743,-4.7318,-4.8168,-4.8671,-4.8818,-4.8377,-4.8948,-4.9658,-5.013,0.0,0.0,0.0,0.0,0.0,0.0,0.0,0.0,0.0,0.0,0.0,0.0,0.0,0.0,0.0,0.0,0.0,0.0,0.0,0.0,-5.5049,-5.5049,-5.5049,-5.5049,-5.4203,-5.3818,-5.378,-5.2895,-5.25,0.0,0.0,-5.1856,-5.1866,-5.1922,-5.1763,-5.1477,-5.1528,-5.138,-5.114,-5.1188,-5.1273,-5.1406,0.0,0.0,0.0,0.0,0.0,0.0,0.0,0.0,0.0,0.0,0.0,0.0,0.0,0.0,0.0,0.0,0.0,0.0,0.0,0.0,0.0,0.0,0.0,0.0,0.0,0.0,-4.2747,-4.3411,-4.5558,-4.7159,-4.8172,-4.7781,-4.7237,-4.6612,-4.6378,-4.6653,-4.7283,-4.7294,-4.7226,-4.7123,0.0,0.0,0.0,0.0,0.0,0.0,0.0,0.0,0.0,0.0,0.0,0.0,0.0,0.0,0.0,-4.6002,-4.5958,-4.5911,-4.5911,-4.6506,-4.69,-4.6027,-4.6916,-4.806,-4.8243,-4.7772,-4.7557,-4.8392,-4.8739,-4.8701,-4.8121,-4.8329,0.0,-5.075,0.0,0.0,0.0,0.0,0.0,0.0,0.0,0.0,0.0,0.0,0.0,0.0,0.0,0.0,0.0,0.0,0.0,0.0,0.0,0.0,-5.4203,-5.3972,-5.3972,-5.4203,-5.3318,-5.2895,-5.2856,-5.201,-5.1625,-5.1587,-5.0971,-5.0712,-5.0712,-5.0712,-5.0747,-5.0859,-5.0859,-5.0939,-5.1063,-5.1144,-5.1258,-5.1365,0.0,0.0,0.0,0.0,0.0,0.0,0.0,0.0,0.0,0.0,0.0,0.0,0.0,0.0,0.0,0.0,0.0,0.0,0.0,0.0,0.0,0.0,0.0,0.0,0.0,-4.1967,-4.2435,-4.2474,-4.5869,-4.8328,-4.9889,-4.8328,-4.7586,-4.7469,-4.6651,-4.6348,-4.6398,-4.6399,-4.6367,-4.6273,-4.6272,0.0,0.0,0.0,0.0,0.0,0.0,0.0,0.0,0.0,0.0,0.0,0.0,0.0,-4.6002,-4.6002,-4.5958,-4.5911,-4.5911,-4.6485,-4.6901,-4.602,-4.6506,-4.7364,-4.8128,-4.8252,-4.8422,-4.923,-5.0079,-4.9886,-4.7532,-4.8373,-4.9993,-5.172,0.0,0.0,0.0,0.0,0.0,0.0,0.0,0.0,0.0,0.0,0.0,0.0,0.0,0.0,0.0,0.0,0.0,0.0,0.0,0.0,-5.328,-5.25,-5.25,-5.328,-5.2423,-5.2,-5.1962,-5.1164,-5.0789,-5.0789,-5.075,-5.0712,-5.0712,-5.0712,-5.0721,-5.0702,-5.0702,-5.0808,-5.0932,-5.1058,-5.114,-5.1208,0.0,0.0,0.0,0.0,0.0,0.0,0.0,0.0,0.0,0.0,0.0,0.0,0.0,0.0,0.0,0.0,0.0,0.0,0.0,0.0,0.0,0.0,0.0,-4.1109,-4.1109,-4.2474,-4.3216,-4.3216,-4.6144,-4.7938,-4.8523,-4.7899,-4.7317,-4.6776,-4.6464,-4.6587,-4.7062,-4.6519,-4.6562,-4.6943,-4.6432,-4.6173,0.0,0.0,0.0,0.0,0.0,0.0,0.0,0.0,-4.6002,-4.6002,-4.6002,-4.6002,-4.6002,-4.6002,-4.5958,-4.5911,-4.5911,-4.6105,-4.6205,-4.5865,-4.6066,-4.6638,-4.7932,-4.8232,-4.8317,-4.8681,-4.9821,-5.0305,-4.8827,0.0,-5.0653,0.0,0.0,0.0,0.0,0.0,0.0,0.0,0.0,0.0,0.0,0.0,0.0,0.0,0.0,0.0,0.0,0.0,0.0,0.0,0.0,0.0,0.0,-5.1318,-5.0779,-5.0048,-5.0779,-5.1164,-5.1125,-5.0827,-5.0712,-5.0712,-5.0712,-5.0712,-5.0712,-5.0712,-5.0712,-5.0712,-5.0712,-5.0435,-5.0167,-5.0772,-5.0708,-5.04,0.0,0.0,0.0,0.0,0.0,0.0,0.0,0.0,0.0,0.0,0.0,0.0,0.0,0.0,0.0,0.0,0.0,0.0,0.0,0.0,0.0,0.0,0.0,-4.1109,-4.1109,-4.2552,-4.3411,-4.3686,-4.6027,-4.7313,-4.7586,0.0,-4.6851,-4.6312,-4.6312,-4.6629,-4.7182,-4.6833,-4.6875,-4.7106,-4.7064,-4.67,0.0,0.0,0.0,0.0,0.0,0.0,0.0,0.0,-4.6002,-4.6002,-4.6002,-4.6002,-4.6002,-4.6002,-4.5759,-4.5505,-4.5505,-4.544,-4.5402,-4.5387,-4.5812,-4.6685,-4.8561,-4.9015,-4.9178,-4.9717,-5.0094,-5.0248,-4.9928,-5.0114,0.0,0.0,0.0,0.0,0.0,0.0,0.0,0.0,0.0,0.0,0.0,0.0,0.0,0.0,0.0,0.0,0.0,0.0,0.0,0.0,0.0,0.0,0.0,-4.9894,-4.9279,-4.8125,-4.9317,-4.9894,-4.9894,-5.0164,-5.0289,-5.0289,-5.0596,-5.0558,-5.0289,-5.0289,-5.0125,-4.9894,-4.9894,-4.9572,-4.9212,-4.9792,-4.9723,-4.9459,0.0,0.0,0.0,0.0,0.0,0.0,0.0,0.0,0.0,0.0,0.0,0.0,0.0,0.0,0.0,0.0,0.0,0.0,0.0,0.0,0.0,0.0,0.0,-4.1109,-4.1109,-4.1967,-4.2864,-4.3725,-4.5441,-4.6729,-4.7586,-4.669,-4.6305,-4.6312,-4.6312,-4.6319,-4.6365,-4.7225,-4.7109,-4.6445,-4.8164,-4.781,-4.6311,0.0,0.0,0.0,0.0,0.0,0.0,0.0,-4.6002,-4.6002,-4.6002,-4.6002,-4.6002,-4.6002,-4.5359,-4.4628,-4.4628,-4.4569,-4.4506,-4.45,-4.5827,-4.7719,-5.0141,-5.0729,-5.1239,-5.2877,-5.1241,-4.9776,-5.0586,-5.0046,0.0,0.0,0.0,0.0,0.0,0.0,0.0,0.0,0.0,0.0,0.0,0.0,0.0,0.0,0.0,0.0,0.0,0.0,0.0,0.0,0.0,0.0,0.0,-4.8086,-4.8086,-4.8086,-4.8086,-4.8086,-4.8125,-4.8971,-4.9394,-4.9433,-5.0289,-5.0212,-4.9394,-4.9394,-4.8894,-4.8086,-4.8086,-4.8086,-4.8086,-4.8086,-4.8197,-4.8417,0.0,0.0,0.0,0.0,0.0,0.0,0.0,0.0,0.0,0.0,0.0,0.0,0.0,0.0,0.0,0.0,0.0,0.0,0.0,0.0,0.0,0.0,0.0,0.0,0.0,0.0,-4.4348,-4.4621,-4.5753,-4.6417,0.0,-4.6424,-4.6313,-4.6319,-4.6284,-4.6287,-4.6328,-4.6562,-4.6523,-4.6367,-4.6875,-4.6757,-4.6286,0.0,0.0,0.0,0.0,0.0,0.0,0.0,0.0,0.0,-4.6002,-4.6002,-4.6002,-4.6002,-4.5759,-4.5511,-4.5511,-4.542,-4.5364,-4.5418,-4.619,-4.7452,-4.9391,-4.9863,-5.0508,-5.2751,-5.2155,-5.1347,-5.1578,-5.1395,0.0,0.0,0.0,0.0,0.0,0.0,0.0,0.0,0.0,0.0,0.0,0.0,0.0,0.0,0.0,0.0,0.0,0.0,0.0,0.0,0.0,0.0,0.0,0.0,-4.6971,-4.6355,-4.6355,-4.6971,-4.8125,-4.8355,-4.8509,-4.8509,-4.8779,-4.8702,-4.8509,-4.8509,-4.8317,-4.8086,-4.8086,-4.774,-4.7308,-4.7894,-4.7785,-4.7524,0.0,0.0,0.0,0.0,0.0,0.0,0.0,0.0,0.0,0.0,-4.3164,-4.4022,0.0,0.0,0.0,0.0,0.0,0.0,0.0,0.0,0.0,0.0,0.0,0.0,0.0,-4.4309,-4.501,0.0,0.0,0.0,-4.63,-4.6306,-4.6313,-4.6282,-4.6285,-4.6288,-4.6328,-4.668,-4.6601,-4.6367,-4.7031,-4.6914,-4.6327,0.0,0.0,0.0,0.0,0.0,0.0,0.0,0.0,0.0,-4.6002,-4.6002,-4.5919,-4.5587,-4.5431,-4.5299,-4.4912,-4.503,-4.5302,-4.5642,-4.6565,-4.7764,-4.9133,-5.0519,-5.2011,-5.3828,-5.2992,-5.2088,-5.2396,-5.1597,0.0,0.0,0.0,0.0,0.0,0.0,0.0,0.0,0.0,0.0,0.0,0.0,0.0,0.0,0.0,0.0,0.0,0.0,0.0,0.0,0.0,0.0,0.0,0.0,0.0,-4.5594,-4.5594,-4.6133,-4.7124,-4.7471,-4.7625,-4.7625,-4.7625,-4.7625,-4.7586,-4.724,-4.7124,-4.7124,-4.7124,-4.6817,-4.6432,-4.6932,-4.6817,-4.6604,0.0,0.0,0.0,0.0,0.0,0.0,0.0,0.0,0.0,0.0,-4.3906,-4.5,0.0,0.0,0.0,0.0,0.0,0.0,0.0,0.0,0.0,0.0,0.0,0.0,0.0,0.0,0.0,0.0,0.0,0.0,-4.63,-4.6302,-4.6311,-4.6282,-4.6283,-4.6287,-4.6367,-4.7148,-4.7031,-4.6445,-4.8047,-4.7773,-4.6482,-4.7129,0.0,0.0,0.0,0.0,0.0,0.0,0.0,0.0,-4.6002,-4.6002,-4.5836,-4.5049,-4.4703,-4.4466,-4.3656,-4.3982,-4.4708,-4.5539,-4.7097,-4.8664,-4.9477,-5.2098,-5.4542,-5.5137,0.0,-5.2192,-5.2856,0.0,0.0,0.0,0.0,0.0,0.0,0.0,0.0,0.0,0.0,0.0,0.0,0.0,0.0,0.0,0.0,0.0,0.0,0.0,0.0,0.0,0.0,0.0,0.0,0.0,0.0,0.0,0.0,-4.5594,-4.5633,-4.6432,-4.6778,-4.6778,-4.6778,-4.6778,-4.674,-4.5932,-4.5594,-4.5594,-4.5594,-4.5594,-4.5594,-4.5594,-4.5594,-4.571,0.0,0.0,0.0,0.0,0.0,0.0,0.0,0.0,0.0,0.0,0.0,0.0,0.0,0.0,0.0,0.0,0.0,0.0,0.0,0.0,0.0,0.0,0.0,0.0,0.0,0.0,0.0,0.0,0.0,-4.63,-4.6302,-4.6313,-4.6319,-4.6283,-4.6288,-4.6289,-4.6328,-4.6484,-4.6484,-4.6328,-4.6718,-4.703,-4.7263,-4.6694,-4.673,0.0,0.0,0.0,0.0,0.0,0.0,0.0,-4.6002,-4.6002,-4.5958,-4.5792,-4.5269,-4.4836,-4.5209,-4.5004,-4.4997,-4.6435,-4.8651,-5.0697,-5.1501,-5.2707,-5.3284,-5.2021,-5.2395,-5.2587,0.0,0.0,0.0,0.0,0.0,0.0,0.0,0.0,0.0,0.0,0.0,0.0,0.0,0.0,0.0,0.0,0.0,0.0,0.0,0.0,0.0,0.0,0.0,0.0,-4.5594,-4.5594,-4.5594,0.0,-4.5594,-4.5594,-4.5594,-4.5787,-4.5893,-4.5893,-4.5893,-4.5893,-4.5864,-4.5671,-4.5594,-4.5594,-4.5594,-4.5594,-4.5594,-4.5594,-4.5594,-4.571,0.0,0.0,0.0,0.0,0.0,0.0,0.0,0.0,0.0,0.0,0.0,0.0,0.0,0.0,0.0,0.0,0.0,0.0,0.0,0.0,0.0,0.0,0.0,0.0,0.0,0.0,0.0,0.0,0.0,-4.6303,-4.6306,-4.6315,-4.6281,-4.6285,-4.6288,-4.6289,-4.6289,-4.6289,-4.6289,-4.6328,-4.6757,-4.6952,-4.6987,-4.6898,-4.6867,-4.6775,-4.6307,0.0,0.0,0.0,0.0,0.0,0.0,0.0,-4.5919,-4.5504,-4.537,-4.5264,-4.4799,-4.4971,-4.558,-4.6823,-4.852,-4.9951,-5.0379,-5.0786,-5.0778,-4.9829,-5.1198,0.0,0.0,0.0,0.0,0.0,0.0,0.0,0.0,0.0,0.0,0.0,0.0,0.0,0.0,0.0,0.0,0.0,0.0,0.0,0.0,0.0,0.0,0.0,0.0,0.0,-4.5594,-4.5594,-4.5594,-4.5594,-4.5594,-4.5594,-4.5594,-4.5594,-4.5594,-4.5594,-4.5594,-4.5594,-4.5594,-4.5594,-4.5594,-4.5594,-4.5594,-4.5594,-4.5594,-4.5594,-4.5594,-4.5671,0.0,0.0,0.0,0.0,0.0,0.0,0.0,0.0,0.0,0.0,0.0,0.0,0.0,0.0,0.0,0.0,0.0,0.0,0.0,0.0,0.0,0.0,0.0,0.0,0.0,0.0,0.0,0.0,-4.63,-4.6306,-4.6315,-4.6315,-4.6281,-4.6287,-4.6288,-4.6289,-4.6289,-4.6289,-4.6289,-4.6367,-4.7265,-4.7186,-4.6594,-4.7335,-4.7116,-4.6404,-4.6233,-4.6154,-4.6104,-4.6107,0.0,0.0,0.0,0.0,-4.5877,-4.516,-4.5359,-4.5497,-4.416,-4.4963,-4.6289,-4.689,-4.7794,-4.8569,-4.8569,-4.8552,-4.853,-4.8511,-4.9976,0.0,0.0,0.0,0.0,0.0,0.0,0.0,0.0,0.0,0.0,0.0,0.0,0.0,0.0,0.0,0.0,0.0,0.0,0.0,0.0,0.0,0.0,0.0,0.0,-4.5594,-4.5594,-4.5594,-4.5594,-4.5594,-4.5594,-4.5594,-4.5594,-4.5594,-4.5594,-4.5594,-4.5594,-4.5594,-4.5594,-4.5594,-4.5594,-4.5594,-4.5594,-4.5594,-4.5594,-4.5594,-4.5594,-4.5594,0.0,0.0,0.0,0.0,0.0,0.0,0.0,0.0,0.0,0.0,-4.5039,-4.6133,0.0,0.0,0.0,0.0,0.0,0.0,0.0,0.0,0.0,0.0,0.0,0.0,0.0,0.0,0.0,0.0,-4.63,-4.6308,-4.6281,-4.6281,-4.6284,-4.6287,-4.6289,-4.6289,-4.6289,-4.6289,-4.6289,-4.6367,-4.7262,-4.7532,-4.7452,-4.7557,-4.7491,-4.7219,-4.6457,-4.6167,-4.6091,-4.6151,-4.6164,0.0,0.0,0.0,-4.6122,-4.5952,-4.5503,-4.5141,-4.5601,-4.6449,-4.7089,-4.6553,-4.7653,-4.8864,-4.8864,0.0,-4.8629,0.0,0.0,0.0,0.0,0.0,0.0,0.0,0.0,0.0,0.0,0.0,0.0,0.0,0.0,0.0,0.0,0.0,0.0,0.0,0.0,0.0,0.0,0.0,-4.5248,-4.4509,-4.521,0.0,-4.5594,-4.5594,-4.5594,-4.5594,-4.5594,-4.5594,-4.5594,-4.5594,-4.5594,-4.5594,-4.5594,-4.5594,-4.5594,-4.5594,-4.5594,-4.5594,-4.5594,-4.5594,-4.5594,-4.5594,-4.5594,-4.5594,0.0,0.0,0.0,0.0,0.0,0.0,0.0,0.0,0.0,0.0,0.0,-4.5586,0.0,0.0,0.0,0.0,0.0,0.0,0.0,0.0,0.0,-4.6261,-4.63,-4.63,0.0,0.0,0.0,-4.63,-4.63,-4.6309,-4.6282,-4.6282,-4.6286,-4.6289,-4.6289,-4.6289,-4.6289,-4.6289,-4.6289,-4.6366,-4.7263,-4.7026,-4.6241,-4.7248,-4.6963,-4.6093,-4.6216,-4.6199,-4.6173,-4.6194,-4.6189,-4.6173,-4.6161,0.0,0.0,0.0,-4.5923,-4.5591,-4.5479,-4.5391,-4.5377,-4.5546,-4.6133,-4.6836,-4.7344,-4.7419,-4.733,0.0,0.0,0.0,0.0,0.0,0.0,0.0,0.0,0.0,0.0,0.0,0.0,0.0,0.0,0.0,0.0,0.0,0.0,0.0,0.0,0.0,0.0,-4.4662,-4.447,-4.3662,-4.4432,0.0,-4.4201,-4.4201,-4.4432,-4.4893,-4.5364,-4.5594,-4.5594,-4.5594,-4.5594,-4.5594,-4.5594,-4.5594,-4.5594,-4.5594,-4.5594,-4.5594,-4.5594,-4.5594,-4.5594,-4.5594,-4.5594,-4.5594,0.0,0.0,0.0,0.0,0.0,0.0,0.0,0.0,0.0,0.0,0.0,0.0,0.0,0.0,0.0,0.0,0.0,0.0,0.0,0.0,0.0,-4.6261,-4.63,-4.63,-4.63,0.0,0.0,-4.63,-4.6303,-4.6311,-4.6282,-4.6284,-4.6287,-4.6289,-4.6289,-4.6289,-4.6289,-4.6289,-4.6289,-4.6365,-4.7028,-4.6362,-4.5148,-4.6433,-4.6002,-4.479,-4.5648,-4.595,-4.5935,-4.6147,-4.6216,-4.6238,-4.6201,-4.6208,0.0,0.0,0.0,-4.5947,-4.4875,-4.427,-4.3972,-4.3982,-4.4335,-4.4804,0.0,0.0,0.0,0.0,0.0,0.0,0.0,0.0,0.0,0.0,0.0,0.0,0.0,0.0,0.0,0.0,0.0,0.0,0.0,0.0,0.0,0.0,0.0,0.0,-4.4008,-4.4201,-4.3816,-4.2816,-4.3585,-4.3701,-4.3124,-4.3085,-4.3508,-4.4316,-4.4979,-4.5402,-4.5594,-4.5594,-4.5594,-4.5594,-4.5594,-4.5594,-4.5594,-4.5594,-4.5594,-4.5594,-4.5594,-4.5594,-4.5594,-4.5594,-4.5594,-4.5594,0.0,0.0,0.0,0.0,0.0,0.0,0.0,0.0,0.0,0.0,0.0,0.0,-4.6211,-4.6286,-4.6282,-4.6281,-4.6309,0.0,0.0,0.0,0.0,-4.63,-4.63,0.0,-4.63,-4.63,-4.63,-4.63,-4.6308,-4.6316,-4.6282,-4.6286,-4.6288,-4.6289,-4.6289,-4.6289,-4.6289,-4.6288,-4.6287,-4.6287,-4.6361,-4.5812,-4.4993,-4.5108,-4.4562,-4.3898,-4.4751,-4.5065,-4.5186,-4.6008,-4.6284,-4.6285,-4.6237,-4.6244,-4.6288,0.0,0.0,0.0,-4.4133,-4.4189,-4.4199,-4.1882,-4.2518,-4.3697,0.0,0.0,0.0,0.0,0.0,0.0,0.0,0.0,0.0,0.0,0.0,0.0,0.0,0.0,0.0,0.0,0.0,0.0,0.0,0.0,0.0,0.0,0.0,0.0,-4.3239,-4.3893,-4.3547,-4.1923,-4.2701,-4.3124,-4.3085,-4.3085,-4.3508,-4.4316,-4.4355,-4.4778,-4.5594,-4.5594,-4.5594,-4.5594,-4.5594,-4.5594,-4.5594,-4.5594,-4.5594,-4.5594,-4.5594,-4.5594,-4.5594,-4.5594,-4.5594,-4.5594,0.0,0.0,0.0,0.0,0.0,0.0,0.0,0.0,0.0,0.0,0.0,0.0,0.0,-4.6287,-4.6284,-4.6317,-4.6306,0.0,0.0,0.0,0.0,-4.63,-4.63,-4.63,-4.63,-4.6306,-4.6308,-4.6308,-4.6316,-4.6282,-4.6286,-4.6287,-4.6288,-4.6289,-4.6289,-4.6289,-4.6288,-4.6288,-4.6285,-4.6241,-4.5695,-4.4953,-4.4211,-4.4793,-4.4093,-4.3042,-4.448,-4.4986,-4.5066,-4.5344,0.0,0.0,-4.6284,-4.6288,-4.6289,-4.6235,-4.5789,-4.5109,-4.3935,-4.341,-4.3101,-4.2738,-4.2692,-4.291,-4.3502,0.0,0.0,0.0,0.0,0.0,0.0,0.0,0.0,0.0,0.0,0.0,0.0,0.0,0.0,0.0,0.0,0.0,0.0,0.0,0.0,0.0,0.0,0.0,-4.3124,-4.2854,-4.2162,-4.1008,-4.1816,-4.2008,-4.1439,-4.2008,-4.2431,-4.2701,-4.3278,-4.397,-4.4778,-4.4778,-4.5056,-4.5594,-4.5594,-4.5594,-4.5594,-4.5594,-4.5594,-4.5594,-4.5594,-4.5594,-4.5594,-4.5594,-4.5594,-4.5594,0.0,0.0,0.0,0.0,0.0,0.0,0.0,0.0,0.0,-4.4062,0.0,0.0,0.0,0.0,-4.6286,-4.6317,-4.6309,-4.6306,-4.6309,-4.6306,-4.6305,-4.6305,-4.6305,-4.6305,-4.6305,-4.6309,-4.6313,-4.6316,-4.6282,-4.6286,-4.6287,-4.6288,-4.6289,-4.6289,-4.6289,-4.6289,-4.6287,-4.6286,-4.6282,-4.6196,-4.503,-4.4405,-4.4131,-4.4131,-4.3587,-4.3004,0.0,0.0,0.0,0.0,0.0,0.0,-4.578,-4.6054,-4.6288,-4.6228,-4.5579,-4.4652,-4.3775,-4.2883,-4.2209,-4.2198,-4.2202,-4.2239,-4.2251,0.0,0.0,0.0,0.0,0.0,0.0,0.0,0.0,0.0,0.0,0.0,0.0,0.0,0.0,0.0,0.0,0.0,0.0,0.0,0.0,0.0,0.0,0.0,-4.2701,-4.2124,-4.1393,-4.0516,-4.1046,-4.1085,-4.0516,-4.1085,-4.1508,-4.1808,-4.2393,-4.3085,-4.3893,-4.3893,-4.4355,-4.5171,-4.5171,-4.5325,-4.5594,-4.5594,-4.5594,-4.5594,-4.5594,-4.5594,-4.5594,-4.5594,-4.5594,-4.5594,0.0,0.0,0.0,0.0,0.0,0.0,0.0,0.0,-4.3047,-4.4766,0.0,0.0,0.0,0.0,0.0,-4.6283,-4.6317,-4.6316,-4.6282,-4.6316,-4.6312,-4.6312,0.0,0.0,0.0,-4.6313,-4.6316,-4.6282,-4.6286,-4.6287,-4.6287,-4.6289,-4.6289,-4.6289,-4.6289,-4.6289,-4.6287,-4.6284,-4.6318,-4.6156,-4.4443,-4.4247,-4.479,-4.3082,-4.2926,0.0,-4.3665,-4.3703,0.0,-4.3708,0.0,0.0,-4.4765,-4.5585,-4.6245,-4.6218,-4.5507,-4.4538,0.0,0.0,0.0,-4.0048,0.0,0.0,-4.0022,0.0,0.0,0.0,0.0,0.0,0.0,0.0,0.0,0.0,0.0,0.0,0.0,0.0,0.0,0.0,0.0,0.0,0.0,0.0,0.0,0.0,0.0,-4.2701,-4.1846,-4.1769,-4.1354,-4.0516,-4.0516,-4.0516,-4.0516,-4.0516,-4.0931,-4.1769,-4.1769,-4.2239,-4.3047,-4.3047,-4.3508,-4.4278,-4.4278,-4.4778,-4.5556,-4.5594,-4.5594,-4.5594,-4.5594,-4.5594,-4.5594,-4.5594,-4.5594,-4.5594,0.0,0.0,0.0,0.0,0.0,0.0,-4.2266,-4.293,-4.375,0.0,0.0,0.0,-4.6289,-4.6288,-4.6287,-4.6286,-4.6283,-4.6281,-4.6282,-4.6281,-4.6319,-4.6319,-4.6319,-4.6319,-4.6319,-4.6284,-4.6285,-4.6286,-4.6288,-4.6289,-4.6289,-4.6289,-4.6289,-4.6289,-4.6289,-4.6287,-4.6284,-4.6283,-4.6316,-4.6188,-4.5106,-4.4406,0.0,0.0,0.0,0.0,0.0,-4.3706,-4.3704,0.0,-4.4526,-4.5615,-4.5855,-4.5654,-4.5402,-4.5944,-4.4603,-4.2979,-4.3325,0.0,0.0,0.0,0.0,0.0,0.0,0.0,0.0,0.0,0.0,0.0,0.0,0.0,0.0,0.0,0.0,0.0,0.0,0.0,0.0,0.0,0.0,0.0,0.0,0.0,0.0,0.0,0.0,-4.2038,-4.1808,-4.12,-4.0746,-4.0516,-4.0516,-4.0516,-4.0516,-4.0516,-4.0631,-4.0854,-4.0854,-4.1316,-4.2162,-4.2162,-4.2624,-4.347,-4.4047,-4.4432,-4.4701,-4.5325,-4.5594,-4.5594,-4.5594,-4.5594,-4.5594,-4.5594,-4.5594,-4.5594,0.0,0.0,0.0,0.0,0.0,0.0,-4.2344,-4.3125,-4.4023,0.0,0.0,0.0,-4.625,-4.6289,-4.6132,-4.578,-4.5778,-4.5777,-4.5779,-4.5426,-4.5542,-4.6284,-4.5933,-4.5933,-4.6284,-4.6286,-4.6288,-4.6288,-4.6289,-4.6289,-4.6289,-4.6289,-4.6289,-4.6289,-4.6288,-4.6285,-4.6318,-4.6318,-4.6312,0.0,-4.4949,0.0,0.0,-4.3434,-4.2772,0.0,0.0,0.0,-4.359,-4.2889,-4.3786,0.0,0.0,-4.534,-4.5473,-4.553,-4.4234,-4.2732,-4.278,-4.2079,-4.1338,-4.1474,0.0,0.0,-4.0023,-4.0261,0.0,0.0,0.0,0.0,0.0,0.0,0.0,0.0,0.0,0.0,0.0,0.0,0.0,0.0,0.0,0.0,0.0,0.0,0.0,0.0,-4.1277,-4.1277,-4.1277,-4.0785,-4.0516,-4.0516,-4.0516,-4.0516,-4.0516,-4.0516,-4.0516,-4.0516,-4.0516,-4.0785,-4.1277,-4.1277,-4.1739,-4.2585,-4.3047,-4.3662,-4.4355,-4.4855,-4.5287,-4.5594,-4.5594,-4.5594,-4.5594,-4.5594,-4.5594,-4.5594,0.0,0.0,0.0,0.0,0.0,-4.2422,-4.2539,-4.3281,-4.4141,0.0,-4.5156,-4.543,-4.6211,-4.6211,-4.5859,-4.5078,-4.4921,-4.4843,-4.4844,-4.414,-4.4374,-4.5936,-4.5272,-4.5233,-4.5975,-4.6092,-4.6171,-4.6172,-4.625,-4.6289,-4.6289,-4.6289,-4.6289,-4.6287,0.0,0.0,-4.6312,-4.6312,0.0,-4.603,-4.448,-4.4247,0.0,0.0,-4.2848,-4.3315,-4.2654,-4.2889,-4.3358,-4.1953,-4.2382,0.0,0.0,0.0,0.0,0.0,-4.3993,-4.2892,-4.2181,-4.1932,-4.1699,-4.0971,0.0,0.0,-3.9116,-3.9598,0.0,0.0,0.0,0.0,0.0,0.0,0.0,0.0,0.0,0.0,0.0,0.0,0.0,0.0,0.0,0.0,0.0,0.0,0.0,-4.0516,-4.0516,-4.0516,-4.0516,-4.0516,-4.0516,-4.0516,-4.0516,-4.0516,-4.0516,-4.0516,-4.0516,-4.0516,-4.0516,-4.0516,-4.0516,-4.0516,-4.0931,-4.1662,-4.1846,-4.2777,-4.4162,-4.4355,-4.4893,-4.5594,-4.5594,-4.5594,-4.5594,-4.5594,-4.5594,-4.5594,-4.1211,0.0,0.0,0.0,0.0,0.0,-4.3359,-4.4179,-4.5077,-4.5937,-4.6055,-4.6094,-4.6289,-4.5664,-4.5195,-4.5,-4.4375,-4.3945,-4.3945,-4.3789,-4.3867,-4.4179,-4.4023,-4.4023,-4.4219,-4.4883,-4.5234,-4.5234,-4.5976,-4.6289,-4.6289,-4.6289,-4.6288,-4.6287,-4.6281,-4.6315,-4.6312,0.0,0.0,-4.5216,-4.4867,0.0,-4.3859,-4.2809,-4.2108,-4.1757,-4.2226,-4.2499,-4.2693,-4.3082,-4.2966,-4.2888,0.0,0.0,0.0,-4.4246,0.0,-4.0616,-4.1698,-4.1545,-4.1009,0.0,0.0,0.0,-4.041,-4.0501,-4.0359,0.0,0.0,0.0,0.0,0.0,0.0,0.0,0.0,0.0,0.0,0.0,0.0,0.0,0.0,0.0,0.0,0.0,-4.0516,-4.0516,-4.0516,-4.0516,-4.0516,-4.0516,-4.0516,-4.0516,-4.0516,-4.0516,-4.0516,-4.0516,-4.0516,-4.0516,-4.0516,-4.0516,-4.0516,-4.0516,-4.0593,-4.0823,-4.2239,-4.3047,-4.3431,-4.4786,-4.5441,-4.5594,-4.5594,-4.5594,-4.5594,-4.5594,-4.5594,-4.5594,-4.1211,-4.1211,-4.1328,0.0,0.0,0.0,-4.4217,-4.5075,-4.5817,-4.6248,-4.6287,-4.6288,-4.6289,-4.5507,-4.4804,-4.4375,-4.3555,-4.3047,-4.3047,-4.2695,-4.2812,-4.3672,-4.3281,-4.3476,-4.4336,-4.4766,-4.5195,-4.5664,-4.6093,-4.6289,-4.6289,-4.6287,-4.5855,-4.5034,-4.5926,-4.5805,-4.5061,0.0,-4.6066,-4.556,-4.4711,0.0,-4.2965,-4.2108,-4.1562,-4.125,-4.1641,-4.1797,-4.1913,-4.2772,-4.2771,0.0,0.0,-4.2749,-4.1883,0.0,-4.1976,-4.0402,0.0,0.0,0.0,-4.0946,0.0,0.0,0.0,-4.0183,-3.9885,0.0,0.0,0.0,0.0,0.0,0.0,0.0,0.0,0.0,0.0,0.0,0.0,0.0,0.0,0.0,0.0,0.0,-4.0054,-4.0477,-4.0516,-4.0516,-4.0516,-4.0516,-4.0516,-4.0516,-4.0516,-4.0516,-4.0516,-4.0516,-4.0516,-4.0516,-4.0516,-4.0516,-4.0516,-4.0516,-4.0516,-4.0554,-4.1439,-4.2316,-4.3162,-4.4008,-4.4863,-4.5594,-4.5594,-4.5594,-4.5594,-4.5594,-4.5594,-4.5594,-4.1172,-4.1172,-4.1406,0.0,0.0,0.0,0.0,-4.5617,-4.6281,-4.6281,-4.6282,-4.6284,-4.6287,-4.5506,-4.4765,-4.4258,-4.3086,-4.2461,-4.2656,-4.1719,-4.1797,-4.3164,-4.2539,-4.289,-4.4453,-4.4648,-4.5195,-4.6054,-4.6209,-4.6287,-4.6286,-4.6283,-4.5538,-4.4249,-4.5338,-4.5217,-4.4278,-4.5327,0.0,-4.5436,0.0,-4.3352,-4.2768,-4.1795,-4.1445,-4.1406,-4.125,-4.1094,-4.1094,-4.207,-4.2186,-4.1986,-4.2496,-4.2123,0.0,0.0,0.0,0.0,0.0,0.0,0.0,0.0,0.0,-4.1591,0.0,0.0,0.0,0.0,0.0,0.0,0.0,0.0,0.0,0.0,0.0,0.0,0.0,0.0,0.0,0.0,0.0,0.0,0.0,0.0,-3.9746,-4.0246,-4.0554,-4.0669,-4.0516,-4.0516,-4.0516,-4.0516,-4.0516,-4.0516,-4.0516,-4.0516,-4.0516,-4.0516,-4.0516,-4.0516,-4.0516,-4.0516,-4.0516,-4.0516,-4.0669,-4.1546,-4.2854,-4.3201,-4.4124,-4.5364,-4.5518,-4.5594,-4.5594,-4.5594,-4.5594,-4.5594,-4.1092,-4.1092,-4.1131,-4.1245,0.0,0.0,0.0,0.0,-4.6313,-4.6313,-4.6283,-4.6287,-4.6287,-4.5507,-4.5273,-4.5937,-4.3789,-4.2734,-4.3516,-4.2031,-4.121,-4.1484,-4.1326,-4.1715,-4.2655,-4.3434,-4.4252,-4.5151,-4.5931,0.0,0.0,-4.6317,-4.6196,-4.5962,-4.4594,-4.4746,-4.5911,0.0,-4.3534,0.0,-4.3463,-4.4078,0.0,-4.2872,-4.2255,-4.2182,-4.1445,-4.0703,-4.0273,0.0,-4.1404,-4.0582,0.0,-4.1378,-3.9275,-4.1551,0.0,0.0,0.0,0.0,0.0,0.0,-4.0972,0.0,0.0,0.0,0.0,0.0,0.0,0.0,0.0,0.0,0.0,0.0,0.0,0.0,0.0,0.0,0.0,0.0,0.0,0.0,0.0,0.0,0.0,-3.9477,-4.0816,-4.1316,-4.0554,-4.0516,-4.0516,-4.0516,-4.0516,-4.0516,-4.0516,-4.0516,-4.0516,-4.0516,-4.0516,-4.0516,-4.0516,-4.0516,-4.0516,-4.0554,-4.1316,-4.1769,-4.2038,-4.3547,-4.4278,-4.4509,-4.5287,-4.5594,-4.5594,-4.5594,-4.5594,-4.5594,-4.1092,-4.1092,-4.1247,-4.1788,0.0,0.0,0.0,0.0,-4.6111,-4.5602,-4.5569,-4.573,-4.6242,-4.4603,-4.4059,-4.5429,-4.3632,-4.2577,0.0,0.0,-4.1639,-4.117,-4.1129,-4.1518,-4.2379,-4.2768,-4.3353,-4.4252,-4.4601,0.0,0.0,0.0,0.0,-4.4749,-4.3984,0.0,-4.3304,0.0,-4.3164,0.0,0.0,0.0,0.0,-4.1787,-4.0622,-4.0155,-3.9804,-3.9453,-3.9258,0.0,-4.0077,0.0,0.0,0.0,0.0,0.0,0.0,0.0,0.0,0.0,0.0,0.0,0.0,0.0,-4.0905,0.0,-4.102,0.0,0.0,0.0,0.0,0.0,0.0,0.0,0.0,0.0,0.0,0.0,0.0,0.0,0.0,0.0,0.0,0.0,0.0,0.0,0.0,-4.0662,-3.9861,-3.9785,-4.0015,-4.0477,-4.0516,-4.0516,-4.0516,-4.0516,-4.0516,-4.0516,-4.0516,-4.0516,-4.0516,-4.0516,-4.0516,-4.0516,-4.0893,-4.1316,-4.1846,-4.2547,-4.3162,-4.3624,-4.4008,-4.4748,-4.5594,-4.5594,-4.5594,-4.5594,-4.1089,-4.109,-4.1283,-4.1939,0.0,0.0,0.0,0.0,-4.5363,-4.4738,-4.4623,-4.4862,-4.5531,-4.4324,-4.4056,-4.5584,-4.4335,-4.3476,0.0,0.0,-4.2028,0.0,0.0,0.0,0.0,-4.2414,-4.2841,-4.3701,-4.3697,0.0,0.0,0.0,0.0,-4.4343,0.0,-4.271,-4.18,0.0,-4.2025,-4.1342,-4.2217,-4.2249,-4.1691,-4.0617,-3.953,-3.8552,-3.8552,-3.8393,-3.8232,-3.87,-3.8966,0.0,-3.8812,0.0,0.0,0.0,0.0,0.0,-4.0139,0.0,0.0,0.0,0.0,0.0,0.0,0.0,0.0,0.0,0.0,0.0,0.0,0.0,0.0,-4.0711,0.0,0.0,0.0,0.0,0.0,0.0,0.0,0.0,0.0,0.0,0.0,0.0,-3.9777,0.0,-3.9008,-3.9169,-3.9554,-4.0169,-4.04,-4.0516,-4.0516,-4.0516,-4.0516,-4.0516,-4.0516,-4.0516,-4.0516,-4.0516,-4.0516,-4.0516,-4.0516,-4.0854,-4.147,-4.1692,-4.2162,-4.2777,-4.3008,-4.3855,-4.4902,-4.4902,-4.5056,-4.521,-4.1119,-4.1119,-4.1116,-4.115,-4.1849,0.0,0.0,0.0,0.0,0.0,0.0,0.0,0.0,0.0,0.0,0.0,0.0,-4.6172,-4.6172,0.0,-4.2028,0.0,0.0,-4.1507,0.0,0.0,-4.2825,-4.3686,-4.3686,0.0,0.0,0.0,-4.5384,-4.6011,-4.3473,-4.274,-4.3259,-4.0697,-3.9185,-3.8517,-3.9396,-3.8708,-3.7504,0.0,-3.9946,-3.8406,-3.8406,0.0,0.0,-3.9003,-3.8482,0.0,0.0,0.0,0.0,0.0,0.0,0.0,0.0,0.0,0.0,-4.0762,0.0,0.0,0.0,0.0,-4.1109,0.0,0.0,0.0,0.0,-4.109,-4.0838,-3.9982,-4.0334,0.0,0.0,0.0,0.0,0.0,0.0,0.0,0.0,0.0,0.0,0.0,-4.0315,0.0,-3.8161,-3.8854,-3.9323,-3.9361,-4.0092,-4.0516,-4.0516,-4.0516,-4.0516,-4.0516,-4.0516,-4.0516,-4.0516,-4.0516,-4.0516,-4.0516,-4.0516,-4.0516,-4.0593,-4.147,-4.1808,-4.1923,-4.2777,-4.3124,-4.3162,-4.3162,-4.3662,-4.4239,-4.1112,-4.1112,-4.1112,-4.1109,-4.1343,0.0,0.0,-4.2944,0.0,0.0,0.0,0.0,0.0,-4.8315,-4.8356,0.0,0.0,-4.7496,-4.6264,-4.4871,0.0,0.0,0.0,-4.148,0.0,0.0,0.0,0.0,0.0,0.0,-4.3143,-4.3143,-4.3867,-4.5118,0.0,-4.1971,0.0,0.0,0.0,0.0,0.0,-3.8031,-3.7046,0.0,0.0,-3.6626,-3.6626,-3.6414,0.0,-3.6812,-3.6996,-3.6973,-3.6944,-3.7327,-3.771,-3.7365,-3.7462,0.0,0.0,0.0,-3.8114,-3.9616,0.0,0.0,0.0,0.0,0.0,0.0,0.0,0.0,0.0,-4.1113,-4.0986,-4.0713,-4.0793,-4.0738,0.0,0.0,0.0,0.0,0.0,0.0,0.0,0.0,0.0,-3.7238,-3.7923,0.0,0.0,-3.7969,-3.87,-3.9284,-4.0092,-4.0516,-4.0516,-4.0516,-4.0516,-4.0516,-4.0516,-4.0516,-4.0516,-4.0516,-4.0516,-4.0516,-4.0516,-4.0516,-4.0516,-4.0823,-4.0931,-4.0969,-4.1247,-4.1739,-4.2316,-4.2893,-4.3278,-4.3547,-4.1104,-4.1104,-4.1104,-4.1108,0.0,0.0,0.0,0.0,0.0,0.0,-4.5994,0.0,-4.9628,0.0,-4.9289,0.0,-4.9378,-4.8311,-4.6157,-4.556,0.0,-4.3025,-4.2298,0.0,0.0,0.0,0.0,0.0,0.0,-4.1346,-4.217,-4.217,-4.2887,-4.4122,0.0,-4.1341,-4.0245,-3.9905,-3.8468,0.0,0.0,-3.6983,0.0,0.0,-3.5827,0.0,0.0,-3.5646,-3.5645,-3.5645,-3.5989,-3.6353,-3.577,-3.6333,-3.7133,-3.6537,-3.6754,-3.7237,-3.7507,-3.7178,0.0,0.0,-3.8595,0.0,-4.0163,0.0,0.0,0.0,0.0,0.0,0.0,0.0,-4.0978,-4.0649,-4.0739,-4.0801,0.0,-4.0574,0.0,0.0,0.0,0.0,0.0,0.0,-3.8623,-3.6846,-3.7276,-3.7238,0.0,0.0,-3.7815,-3.8354,-3.9477,-4.0054,-4.0054,-4.0362,-4.0516,-4.0516,-4.0516,-4.0516,-4.0516,-4.0516,-4.0516,-4.0516,-4.0516,-4.0516,-4.0516,-4.0516,-4.0516,-4.0516,-4.0516,-4.0854,-4.1393,-4.197,-4.2354,-4.2777,-4.1095,-4.1092,0.0,0.0,-4.1099,0.0,0.0,0.0,-4.2903,0.0,-4.5623,-4.6463,-4.7394,-4.8949,-4.9559,-4.8748,-4.9435,-4.8827,-4.6182,-4.5998,0.0,0.0,-4.301,-4.3034,-4.2238,0.0,0.0,0.0,0.0,0.0,-4.2034,-4.2034,-4.246,-4.3182,-4.2376,0.0,-3.9266,-3.8414,-3.7084,-3.55,-3.55,-3.5538,-3.5577,-3.5538,0.0,-3.6776,-3.5929,-3.5564,-3.55,-3.55,-3.55,-3.55,-3.55,-3.55,-3.55,-3.55,-3.55,-3.5654,-3.6423,-3.6654,-3.6881,-3.7803,0.0,0.0,0.0,0.0,-3.9646,0.0,0.0,0.0,0.0,0.0,-4.0741,-3.9898,-4.0329,-4.0709,-4.0523,0.0,0.0,0.0,0.0,0.0,0.0,-4.07,-4.0231,-3.7,-3.8238,-3.8046,0.0,0.0,0.0,-3.6769,-3.8392,-3.9323,-3.9361,-4.0131,-4.0516,-4.0516,-4.0516,-4.0516,-4.0516,-4.0516,-4.0516,-4.0516,-4.0516,-4.0516,-4.0516,-4.0516,-4.0516,-4.0516,-4.0516,-4.0516,-4.0516,-4.0516,-4.1008,-4.1846,-4.112,-4.1118,-4.1074,0.0,-4.1069,-4.1118,0.0,0.0,0.0,0.0,-4.7932,-4.9604,-5.1735,-5.2329,-5.2256,-5.14,-5.1522,0.0,0.0,0.0,0.0,-4.4754,-4.3877,-4.3546,-4.3796,-4.2687,0.0,-4.1628,0.0,0.0,-4.0991,-4.0991,-4.1422,-4.2254,0.0,-4.0938,-3.9299,-3.9053,-3.7623,-3.55,-3.55,-3.5846,0.0,0.0,-3.6028,-3.6646,-3.5836,-3.5502,-3.55,-3.55,-3.55,-3.55,-3.55,-3.55,-3.55,-3.55,-3.55,-3.5538,-3.5731,-3.5808,-3.6007,-3.685,-3.7128,-3.7439,0.0,0.0,0.0,0.0,0.0,0.0,0.0,0.0,0.0,-4.0461,-4.0637,-4.0707,-4.0647,0.0,0.0,0.0,0.0,0.0,0.0,-3.8854,-3.7923,-3.77,-3.693,0.0,0.0,0.0,0.0,0.0,-3.8738,-3.9592,-4.0208,-4.04,-4.0516,-4.0516,-4.0516,-4.0516,-4.0516,-4.0516,-4.0516,-4.0516,-4.0516,-4.0516,-4.0516,-4.0516,-4.0516,-4.0516,-4.0516,-4.0516,-4.0516,-4.0516,-4.0631,-4.0969,-4.105,0.0,0.0,-4.0925,0.0,0.0,-4.2096,0.0,0.0,-4.6846,-4.8283,0.0,-5.1566,-5.2412,-5.2373,-5.1132,-5.1016,0.0,-4.7295,0.0,0.0,-4.5103,-4.4607,-4.4197,-4.3849,-4.2613,0.0,-4.1308,0.0,0.0,-4.0545,-4.0545,-4.0838,0.0,0.0,-4.0539,-3.9246,-3.8469,-3.7353,-3.6,-3.5654,0.0,0.0,-3.5654,-3.5769,-3.6115,-3.5654,-3.55,-3.55,-3.55,-3.55,-3.55,-3.55,-3.55,-3.55,-3.55,-3.55,-3.55,-3.55,-3.55,-3.5615,-3.6077,-3.6247,-3.6504,-3.7365,-3.7649,-3.7683,0.0,0.0,0.0,0.0,0.0,0.0,-4.061,-4.0726,-4.0661,0.0,0.0,0.0,0.0,0.0,0.0,0.0,0.0,0.0,0.0,0.0,0.0,0.0,0.0,0.0,0.0,-3.8469,-3.9169,-3.8854,-4.0315,-4.07,-3.9977,-4.0323,-4.0516,-4.0516,-4.0516,-4.0516,-4.0516,-4.0516,-4.0516,-4.0516,-4.0516,-4.0516,-4.0516,-4.0516,-4.0516,-4.0516,-4.0516,-4.0746,-4.1123,-4.0953,0.0,0.0,0.0,0.0,0.0,0.0,-4.3163,0.0,-4.68,0.0,-4.874,-4.9471,-5.0779,-5.101,-4.951,0.0,-4.824,-4.5941,-4.6471,-4.6163,-4.4547,-4.521,-4.4863,-4.3278,-4.2316,-4.1431,0.0,0.0,0.0,-4.0516,0.0,0.0,0.0,0.0,0.0,0.0,-3.7392,-3.6654,0.0,-3.5769,-3.55,-3.55,-3.55,-3.55,-3.55,-3.55,-3.55,-3.55,-3.55,-3.55,-3.55,-3.55,-3.55,-3.55,-3.55,-3.55,-3.55,-3.55,-3.55,-3.55,-3.55,-3.55,-3.572,-3.6523,-3.6734,-3.6734,-3.6734,-3.7384,0.0,0.0,0.0,0.0,-4.0242,0.0,0.0,0.0,0.0,0.0,0.0,0.0,0.0,0.0,0.0,0.0,0.0,0.0,0.0,0.0,0.0,0.0,0.0,-3.7815,0.0,-3.7199,0.0,-4.0854,-3.9623,-4.0208,-4.0516,-4.0516,-4.0516,-4.0516,-4.0516,-4.0516,-4.0516,-4.0516,-4.0516,-4.0516,-4.0516,-4.0516,-4.0516,-4.0516,-4.0516,-4.0954,-4.1583,-4.0824,0.0,0.0,0.0,0.0,-4.3708,-4.5078,-4.6383,-4.738,-4.7998,-4.9362,-5.0289,-5.0481,-5.0087,-4.9702,-4.9433,-4.874,0.0,0.0,0.0,0.0,-4.5441,-4.5518,-4.5133,-4.4124,-4.2585,-4.1731,0.0,0.0,0.0,-4.0516,-4.0516,-4.0516,0.0,0.0,0.0,-3.8161,-3.7123,0.0,-3.5692,-3.5577,-3.55,-3.55,-3.55,-3.55,-3.55,-3.55,-3.55,-3.55,-3.55,-3.55,-3.55,-3.55,-3.55,-3.55,-3.55,-3.55,-3.55,-3.55,-3.55,-3.55,-3.55,-3.55,-3.5545,-3.572,-3.5765,-3.5765,-3.5765,-3.5894,-3.6093,-3.643,0.0,0.0,0.0,0.0,0.0,0.0,0.0,0.0,0.0,0.0,0.0,0.0,0.0,0.0,0.0,0.0,0.0,0.0,0.0,0.0,0.0,0.0,0.0,0.0,0.0,0.0,-4.1354,-4.0777,-4.0516,-4.0516,-4.0516,-4.0516,-4.0516,-4.0516,-4.0516,-4.0516,-4.0516,-4.0516,-4.0516,-4.0516,-4.0516,-4.0516,-4.0516,-4.0471,-4.0444,-4.07,0.0,0.0,0.0,0.0,0.0,0.0,-4.8052,0.0,-4.8253,-4.8508,-4.874,-4.874,-4.874,-4.8548,-4.8125,-4.774,-4.7124,-4.6278,-4.624,-4.6047,-4.5633,-4.5171,0.0,-4.3701,-4.1585,-4.0731,-4.113,0.0,0.0,-4.0515,-4.05,-4.0516,-4.0477,0.0,-3.9438,0.0,0.0,0.0,-3.6077,-3.5654,-3.55,-3.55,-3.55,-3.55,-3.55,-3.55,-3.55,-3.55,-3.55,-3.55,-3.55,-3.55,-3.55,-3.55,-3.55,-3.55,-3.55,-3.55,-3.55,-3.55,-3.55,-3.55,-3.55,-3.55,-3.55,-3.55,-3.55,-3.55,-3.5731,-3.6538,-3.7038,0.0,0.0,0.0,0.0,0.0,0.0,0.0,0.0,0.0,0.0,0.0,0.0,0.0,0.0,0.0,0.0,0.0,0.0,0.0,0.0,0.0,0.0,0.0,0.0,0.0,-3.9815,-3.9854,-4.0092,-4.0516,-4.0516,-4.0414,-4.0304,-4.0304,-4.0194,-4.0034,-4.0034,-4.0034,-4.0034,-4.0034,-4.0034,-4.0034,-4.0034,-3.9954,-3.9872,0.0,-4.0829,0.0,0.0,-4.4624,0.0,-4.7394,-4.8779,-4.9356,-4.8509,-4.7663,-4.7154,-4.7154,-4.7586,-4.7586,-4.6962,-4.674,-4.6317,-4.5633,-4.5594,-4.5518,-4.5325,-4.4662,-4.3855,-4.2854,-4.0508,-3.9608,0.0,0.0,0.0,0.0,-4.0391,0.0,0.0,0.0,0.0,0.0,0.0,-3.6615,-3.6385,-3.5769,-3.55,-3.55,-3.55,-3.55,-3.55,-3.55,-3.55,-3.55,-3.55,-3.55,-3.55,-3.55,-3.55,-3.55,-3.55,-3.55,-3.55,-3.55,-3.55,-3.55,-3.55,-3.55,-3.55,-3.55,-3.55,-3.55,-3.55,-3.55,-3.5692,-3.6346,-3.6423,0.0,0.0,0.0,0.0,0.0,0.0,0.0,0.0,0.0,0.0,0.0,0.0,0.0,0.0,0.0,0.0,0.0,0.0,0.0,0.0,0.0,0.0,-3.6563,0.0,-3.8931,0.0,-3.9315,-3.9877,-4.0406,-4.0406,-4.0239,-3.9992,-3.9992,-3.984,-3.958,-3.958,-3.958,-3.958,-3.958,-3.958,-3.958,-3.958,-3.9545,-3.9522,0.0,0.0,0.0,0.0,0.0,0.0,0.0,-4.8519,-5.0289,-4.9394,-4.8509,-4.8009,-4.8009,-4.7394,-4.6962,-4.6923,-4.6163,-4.571,-4.5594,-4.5594,-4.5248,-4.447,-4.4355,-4.3547,-4.1962,-4.02,-3.9354,0.0,0.0,0.0,0.0,0.0,0.0,0.0,0.0,0.0,0.0,-3.6769,-3.6269,-3.5615,-3.5538,-3.55,-3.55,-3.55,-3.55,-3.55,-3.55,-3.55,-3.55,-3.55,-3.55,-3.55,-3.55,-3.55,-3.55,-3.55,-3.55,-3.55,-3.55,-3.55,-3.55,-3.55,-3.55,-3.55,-3.55,-3.55,-3.55,-3.55,-3.55,-3.5538,-3.5615,-3.5615,-3.5885,0.0,0.0,0.0,0.0,0.0,0.0,0.0,0.0,0.0,0.0,0.0,0.0,0.0,0.0,0.0,0.0,0.0,0.0,0.0,0.0,-3.7878,-4.003,-3.8762,0.0,-4.1423,-4.0739,-4.0296,-4.0158,-4.0158,-3.9972,-3.9664,-3.9664,-3.9652,-3.958,-3.958,-3.958,-3.958,-3.958,-3.958,-3.958,-3.958,-3.9401,-3.9147,0.0,0.0,0.0,0.0,0.0,0.0,0.0,-4.7855,-4.8279,-4.7971,-4.8009,-4.7932,-4.7432,-4.6624,-4.6124,-4.6124,-4.5787,-4.5594,-4.5594,-4.5594,-4.521,-4.4355,-4.3855,-4.3008,-4.1808,-3.9662,-3.8769,0.0,0.0,0.0,0.0,0.0,0.0,0.0,0.0,-3.7332,-3.6654,-3.6192,-3.5808,-3.55,-3.55,-3.55,-3.55,-3.55,-3.55,-3.55,-3.55,-3.55,-3.55,-3.55,-3.55,-3.55,-3.55,-3.55,-3.55,-3.55,-3.55,-3.55,-3.55,-3.55,-3.55,-3.55,-3.55,-3.55,-3.55,-3.55,-3.55,-3.55,-3.55,-3.55,-3.55,-3.55,-3.5615,0.0,0.0,0.0,0.0,0.0,0.0,0.0,0.0,-3.6877,0.0,0.0,0.0,0.0,0.0,0.0,0.0,0.0,0.0,-3.6711,0.0,-3.6787,-3.8985,-3.7808,-3.8277,-4.0315,-3.9938,-3.9895,-4.012,-4.012,-3.9808,-3.9289,-3.9141,-3.9045,-3.9045,-3.9045,-3.9045,-3.9045,-3.9045,-3.9045,-3.9045,-3.9045,-3.8984,-3.8855,-4.3393,0.0,-4.3915,0.0,-4.5825,-4.6278,-4.7201,-4.7317,-4.7086,-4.6586,-4.724,-4.7432,-4.6624,-4.597,-4.5594,-4.5594,-4.5594,-4.5594,-4.5594,-4.5364,-4.4825,-4.397,-4.3162,0.0,-4.1431,-3.9161,-3.8262,-3.8846,-3.7986,0.0,0.0,0.0,0.0,0.0,-3.6986,-3.657,-3.6308,-3.5731,-3.55,-3.55,-3.55,-3.55,-3.55,-3.55,-3.55,-3.55,-3.55,-3.55,-3.55,-3.55,-3.55,-3.55,-3.55,-3.55,-3.55,-3.55,-3.55,-3.55,-3.55,-3.55,-3.55,-3.55,-3.55,-3.55,-3.55,-3.55,-3.55,-3.55,-3.55,-3.55,-3.55,-3.55,-3.5577,0.0,0.0,0.0,0.0,0.0,0.0,0.0,-3.5902,-3.5943,-3.5324,0.0,0.0,0.0,0.0,0.0,0.0,0.0,0.0,0.0,0.0,0.0,0.0,0.0,-3.7925,-3.9397,-3.9397,-3.9528,-3.9797,-3.9709,-3.9427,-3.8975,-3.8773,-3.8689,-3.8689,-3.8689,-3.8689,-3.8689,-3.8689,-3.8689,-3.8689,-3.8689,-3.8689,-3.8689,-4.4115,-4.4282,-4.4572,-4.547,-4.6317,-4.6586,-4.5748,-4.7048,-4.7509,-4.5825,-4.6355,-4.6586,-4.571,-4.5594,-4.5594,-4.5594,-4.5594,-4.5594,-4.5594,-4.4778,-4.397,0.0,0.0,-4.1393,-4.0516,-3.8854,-3.8007,-3.8007,0.0,0.0,-3.6757,0.0,0.0,-3.6718,-3.668,-3.6279,-3.55,-3.55,-3.55,-3.55,-3.55,-3.55,-3.55,-3.55,-3.55,-3.55,-3.55,-3.55,-3.55,-3.55,-3.55,-3.55,-3.55,-3.55,-3.55,-3.55,-3.55,-3.55,-3.55,-3.55,-3.55,-3.55,-3.55,-3.55,-3.55,-3.55,-3.55,-3.55,-3.55,-3.55,-3.55,-3.55,-3.5769,-3.6577,0.0,0.0,0.0,0.0,0.0,0.0,-3.688,-3.71,-3.5186,0.0,0.0,0.0,0.0,0.0,0.0,0.0,0.0,-3.5905,-3.6674,0.0,-3.829,-3.8301,-3.8701,-3.9592,-3.9592,-3.9426,-3.9093,-3.8862,-3.8704,-3.8689,-3.8689,-3.8689,-3.8689,-3.8689,-3.8689,-3.8689,-3.8689,-3.8689,-3.8689,-3.8689,-3.8689,-3.8689,-4.5124,-4.5192,-4.5269,-4.5547,-4.5825,-4.5932,-4.5633,-4.6056,-4.6201,-4.5671,-4.5825,-4.5893,-4.5633,-4.5594,-4.5594,0.0,-4.5594,-4.5364,0.0,-4.4432,-4.3662,-4.2277,-4.1962,-4.1393,-4.0516,-3.8854,-3.8007,-3.8007,0.0,0.0,0.0,-3.6972,-3.6642,-3.5871,-3.5871,-3.5724,-3.55,-3.55,-3.55,-3.55,-3.55,-3.55,-3.55,-3.55,-3.55,-3.55,-3.55,-3.55,-3.55,-3.55,-3.55,-3.55,-3.55,-3.55,-3.55,-3.55,-3.55,-3.55,-3.55,-3.55,-3.55,-3.55,-3.55,-3.55,-3.55,-3.55,-3.55,-3.55,-3.55,-3.55,-3.55,-3.55,-3.5577,-3.5846,0.0,0.0,0.0,0.0,0.0,0.0,-3.5564,-3.5678,0.0,-3.4746,0.0,0.0,0.0,0.0,0.0,0.0,0.0,0.0,-3.539,0.0,-3.8362,-3.7769,-3.8184,-3.958,-3.958,-3.9414,-3.908,-3.8833,-3.8689,-3.8689,-3.8689,-3.8689,-3.8689,-3.8689,-3.8689,-3.8689,-3.8689,-3.8358,-3.7955,-3.8505,-3.8358,-3.797,-4.5594,-4.5594,-4.5594,-4.5594,-4.5594,-4.5594,-4.5594,-4.5594,-4.5559,-4.5429,-4.541,-4.5381,-4.5243,-4.5232,0.0,-4.5577,-4.5594,0.0,-4.4816,-4.4201,-4.3321,-4.2159,-4.1498,-4.084,-4.0185,0.0,0.0,-3.7653,-3.6519,-3.5938,-3.5938,-3.5938,-3.5679,-3.5198,-3.5198,-3.5198,-3.5198,-3.5198,-3.5198,-3.5198,-3.5198,-3.5198,-3.5198,-3.5198,-3.5198,-3.5198,-3.5198,-3.5254,-3.5354,-3.5354,-3.5405,-3.55,-3.55,-3.55,-3.55,-3.55,-3.55,-3.55,-3.55,-3.55,-3.55,-3.55,-3.55,-3.5479,-3.5369,-3.5354,-3.5354,-3.5354,-3.5354,-3.5376,-3.5486,-3.5405,-3.5354,-3.5354,0.0,0.0,0.0,0.0,0.0,0.0,0.0,0.0,0.0,-3.3987,0.0,0.0,0.0,0.0,0.0,0.0,0.0,-3.5551,-3.5182,0.0,-3.8028,-3.7829,-3.8227,-3.9249,-3.9249,-3.9131,-3.8947,-3.8758,-3.8689,-3.8689,-3.8689,-3.8689,-3.8689,-3.8689,-3.8505,-3.8285,-3.8579,-3.8212,-3.7603,-3.8395,-3.8395,-3.8028,-4.555,-4.5559,0.0,0.0,-4.5541,0.0,-4.5541,-4.5541,-4.5419,-4.5126,-4.5082,-4.4943,-4.465,-4.4612,-4.4823,-4.5389,0.0,0.0,0.0,-4.3889,-4.2831,-4.2418,-4.0901,0.0,-3.963,-3.869,-3.7785,-3.695,-3.543,-3.4713,-3.4713,-3.4713,-3.4713,-3.4713,-3.4713,-3.4713,-3.4713,-3.4713,-3.4713,-3.4713,-3.4713,-3.4713,-3.4713,-3.4713,-3.4713,-3.4713,-3.4713,-3.487,-3.506,-3.506,-3.5231,-3.5427,-3.5427,-3.5427,-3.5465,-3.5493,-3.55,-3.55,-3.55,-3.55,-3.55,-3.5486,-3.5472,-3.5376,-3.5141,-3.506,-3.506,-3.506,-3.506,-3.5157,-3.5391,-3.5231,-3.506,-3.506,-3.487,-3.4703,-3.4682,0.0,0.0,0.0,0.0,0.0,0.0,-3.4056,-3.366,0.0,0.0,0.0,0.0,0.0,0.0,-3.4908,-3.5752,-3.6597,-3.7419,-3.8212,-3.8652,-3.8689,-3.8689,-3.8689,-3.8689,-3.8689,-3.8689,-3.8689,-3.8689,-3.8689,-3.8689,-3.8689,-3.8248,-3.7676,-3.8395,-3.8212,-3.7603,-3.8395,-3.8652,-3.8615,0.0,0.0,-4.5148,-4.4884,-4.4849,-4.4849,-4.4849,-4.4849,-4.4825,-4.4739,-4.4726,-4.4701,-4.4624,-4.4612,-4.4411,-4.39,-4.4431,-4.4279,-4.3027,-4.2561,-4.1742,-4.0386,-3.9921,-3.9698,-3.958,-3.8146,-3.6675,-3.5279,-3.4902,-3.4713,-3.4713,-3.4713,-3.4713,-3.4713,-3.4713,-3.4713,-3.4713,-3.4713,-3.4713,-3.4713,-3.4713,-3.4713,-3.4713,-3.4713,-3.4713,-3.4713,-3.4713,-3.4753,-3.4803,-3.4803,-3.4851,-3.4898,-3.4898,-3.4898,-3.4972,-3.5376,-3.55,-3.55,-3.55,-3.55,-3.5465,-3.5239,-3.5034,-3.4879,-3.4822,-3.4803,-3.4803,-3.4803,-3.4803,-3.4822,-3.4889,-3.4851,-3.4803,-3.4803,-3.4753,-3.4603,-3.4338,0.0,0.0,0.0,-3.4165,-3.4177,-3.3902,-3.3335,-3.3189,0.0,0.0,0.0,0.0,0.0,-3.4142,-3.41,-3.4894,-3.5716,-3.6574,-3.7382,-3.8102,-3.8689,-3.8689,-3.8689,-3.8689,-3.8689,-3.8689,-3.8689,-3.8689,-3.8689,-3.8689,-3.8689,-3.8579,-3.8432,-3.8615,-3.8212,-3.7603,-3.8395,-3.8322,-3.786,-4.465,-4.4751,-4.4825,-4.4637,-4.4612,-4.4612,-4.4612,-4.4612,-4.4508,-4.4346,-4.4318,-4.4247,-4.411,-4.3759,-4.3349,-4.2864,-4.356,-4.3441,-4.2158,-4.1743,-4.1079,-4.0015,-3.959,-3.9152,-3.8661,-3.7753,-3.6472,-3.4857,-3.4458,-3.4272,-3.4272,-3.4272,-3.4272,-3.4272,-3.4272,-3.4272,-3.4272,-3.4272,-3.4272,-3.4272,-3.4272,-3.4272,-3.4272,-3.4272,-3.4272,-3.4272,-3.4272,-3.4364,-3.4475,-3.4475,-3.4572,-3.4713,-3.4713,-3.4713,-3.4773,-3.5034,-3.5149,-3.5174,-3.527,-3.5223,-3.5077,-3.4954,-3.4822,-3.4645,-3.4508,-3.4475,-3.4475,-3.4475,-3.4475,-3.4518,-3.4655,-3.4572,-3.4475,-3.4475,-3.4076,-3.3692,-3.3475,-3.3608,0.0,-3.3296,-3.372,-3.3979,-3.382,-3.3403,-3.3369,-3.3928,0.0,0.0,-3.3941,-3.3941,-3.4073,-3.4357,-3.5151,-3.6009,-3.6831,-3.7639,-3.8285,-3.8689,-3.8689,-3.8689,-3.8689,-3.8689,-3.8689,-3.8689,-3.8689,-3.8689,-3.8689,-3.8689,-3.8469,-3.8175,-3.8579,-3.8212,-3.7603,-3.8395,-3.8432,-3.8102,-4.4428,-4.4455,-4.4468,-4.4452,-4.4414,-4.4414,-4.4414,-4.4414,-4.429,-4.3989,-4.3943,-4.3802,-4.3512,-4.2873,-4.2396,-4.2139,-4.2663,-4.2622,-4.1807,-4.113,-4.059,-4.017,-3.9421,-3.8563,-3.7507,-3.7235,-3.6376,-3.4821,-3.4137,-3.3807,-3.3807,-3.3807,-3.3807,-3.3807,-3.3807,-3.3807,-3.3807,-3.3807,-3.3807,-3.3807,-3.3807,-3.3807,-3.3807,-3.3807,-3.3807,-3.3807,-3.3807,-3.3967,-3.4128,-3.4128,-3.4341,-3.4551,-3.4551,-3.4551,-3.4561,-3.4603,-3.4582,-3.4624,-3.4954,-3.4851,-3.4614,-3.4614,-3.4582,-3.4486,-3.4188,-3.4128,-3.4128,-3.4128,-3.4128,-3.4249,-3.4508,-3.4341,-3.4153,-3.4141,-3.3253,-3.2619,-3.2606,0.0,0.0,-3.2583,-3.333,-3.3807,-3.3807,-3.3807,-3.3807,-3.3807,-3.3807,0.0,0.0,-3.3807,-3.41,-3.4821,-3.5642,-3.656,-3.7492,-3.8285,-3.8689,-3.8689,-3.8689,-3.8689,-3.8689,-3.8689,-3.8689,-3.8689,-3.8689,-3.8615,-3.8542,-3.8652,-3.8212,-3.7566,-3.8395,-3.8285,-3.7749,-3.8469,-3.8689,-3.8689,-4.371,-4.3896,-4.402,-4.371,-4.3681,-4.3681,-4.3681,-4.3681,-4.3647,-4.358,-4.358,-4.3546,-4.3515,-4.3404,-4.2763,-4.1389,-4.1372,-4.1098,-4.0302,-4.0102,-3.974,-3.9016,-3.8817,-3.836,-3.7529,-3.6119,-3.4931,-3.399,-3.3844,-3.3807,-3.3807,-3.3807,-3.3807,-3.3807,-3.3807,-3.3807,-3.3807,-3.3807,-3.3807,-3.3807,-3.3807,-3.3807,-3.3807,-3.3807,-3.3807,-3.3807,-3.3807,-3.3847,-3.385,-3.385,-3.3889,-3.3941,-3.3941,-3.3941,-3.3992,-3.4225,-3.4117,-3.4068,-3.4603,-3.4529,-3.4269,-3.4269,-3.4105,-3.3915,-3.3863,-3.385,-3.385,-3.385,-3.385,-3.3863,-3.3928,-3.3889,-3.3837,-3.377,-3.3133,-3.2557,0.0,0.0,-3.2583,-3.2583,-3.333,-3.3807,-3.3807,-3.3807,-3.3807,-3.3807,-3.3807,-3.3807,-3.3807,-3.3807,-3.3844,-3.399,-3.4784,-3.5936,-3.7492,-3.8285,-3.8689,-3.8689,-3.8689,-3.8689,-3.8689,-3.8689,-3.8689,-3.8689,-3.8689,-3.8322,-3.7749,-3.8432,-3.8212,-3.7566,-3.8395,-3.8615,-3.8542,-3.8652,-3.8689,-3.8689,-4.3512,-4.3631,-4.3677,-4.3549,-4.3515,-4.3515,-4.3515,-4.3515,-4.3515,-4.3515,-4.3515,-4.3515,-4.3515,-4.3094,-4.2396,-4.1205,-4.0708,-4.012,-3.9313,-3.9239,-3.8872,-3.808,-3.8028,-3.7441,-3.6193,-3.4968,-3.4174,-3.3807,-3.3807,-3.3807,-3.3807,-3.3807,-3.3807,-3.3807,-3.3807,-3.3807,-3.3807,-3.3807,-3.3807,-3.3807,-3.3807,-3.3807,-3.3807,-3.3807,-3.3807,-3.3807,-3.3807,-3.3807,-3.3807,-3.3807,-3.3807,-3.3807,-3.3807,-3.3807,-3.3797,-3.3967,-3.3993,-3.4043,-3.4165,-3.4093,-3.3968,-3.3968,-3.3889,-3.3807,-3.3807,-3.3807,-3.3807,-3.3807,-3.3807,-3.3807,-3.3807,-3.3807,-3.3793,-3.3766,-3.2716,0.0,0.0,-3.2203,-3.2118,-3.2546,-3.333,-3.3807,-3.3807,-3.3807,-3.3807,-3.3807,-3.3807,-3.3807,-3.3807,-3.3807,-3.3807,-3.3807,-3.4564,-3.5591,-3.6831,-3.7639,-3.8028,-3.8065,-3.8505,-3.8689,-3.8689,-3.8689,-3.8689,-3.8689,-3.8248,-3.8102,-3.8138,-3.8065,-3.8102,-3.8175,-3.8579,-3.8689,-3.8689,-3.8689,-3.8689,-3.8689,-4.3515,-4.3515,-4.3515,-4.3515,-4.3515,-4.3515,-4.3515,-4.3515,-4.3441,-4.324,-4.3404,-4.3368,-4.2983,-4.2543,-4.1919,-4.0928,-4.0267,-3.957,-3.8762,-3.8689,-3.8432,-3.7823,-3.7603,-3.6707,-3.5041,-3.438,-3.399,-3.3807,-3.3807,-3.3807,-3.3807,-3.3807,-3.3807,-3.3807,-3.3807,-3.3807,-3.3807,-3.3807,-3.3807,-3.3807,-3.3807,-3.3807,-3.3807,-3.3807,-3.3807,-3.3807,-3.3807,-3.3807,-3.3807,-3.3807,-3.3807,-3.3807,-3.3807,-3.3807,-3.3807,-3.3807,-3.3967,-3.4068,-3.385,-3.3807,-3.3807,-3.3807,-3.3807,-3.3807,-3.3807,-3.3954,-3.4027,-3.3844,-3.41,-3.4247,-3.388,-3.3954,-3.4014,-3.3817,0.0,0.0,0.0,-3.2326,-3.2192,-3.2816,-3.3587,-3.4027,-3.3807,-3.3807,-3.3807,-3.3807,-3.3807,-3.3807,-3.3807,-3.3807,-3.3807,-3.3807,-3.4564,-3.5334,-3.5973,-3.6831,-3.7309,-3.7492,-3.8138,-3.8505,-3.8689,-3.8689,-3.8689,-3.8689,-3.8028,-3.8028,-3.8395,-3.797,-3.8028,-3.8432,-3.8615,-3.8689,-3.8689,-3.8689,-3.8689,-3.8689,-4.3515,-4.3515,-4.3515,-4.3515,-4.3515,-4.3515,-4.3515,-4.3515,-4.3204,-4.2506,-4.302,-4.291,-4.1425,-4.1882,-4.1662,-4.012,-3.9937,-3.957,-3.8762,-3.8689,-3.8689,-3.8615,-3.7896,-3.6707,-3.5041,-3.4931,-3.4564,-3.3807,-3.3807,-3.3807,-3.3807,-3.3807,-3.3807,-3.3807,-3.3807,-3.3807,-3.3807,-3.3807,-3.3807,-3.3807,-3.3807,-3.3807,-3.3807,-3.3807,-3.3807,-3.3807,-3.3807,-3.3807,-3.3807,-3.3807,-3.3807,-3.3807,-3.3807,-3.3807,-3.3807,-3.3807,-3.382,-3.3834,-3.382,-3.3807,-3.3807,-3.3807,-3.3807,-3.3807,-3.3807,-3.438,-3.4711,-3.3954,-3.5018,-3.5642,-3.41,-3.4417,-3.4646,-3.3822,0.0,0.0,-3.3492,-3.362,-3.366,-3.3697,-3.4417,-3.4601,-3.388,-3.3807,-3.3807,-3.3807,-3.3807,-3.3807,-3.3807,-3.3807,-3.3807,-3.3807,-3.4564,-3.5041,-3.5114,-3.5973,-3.6758,-3.7492,-3.7566,-3.797,-3.8689,-3.8689,-3.8689,-3.8689,-3.8652,-3.8212,-3.7639,-3.8322,-3.8212,-3.7676,-3.8395,-3.8689,-3.8689,-3.8689,-3.8689,-3.8689,-4.3387,-4.3515,-4.3515,-4.3515,-4.3515,-4.3515,-4.3515,-4.3515,-4.3221,-4.2396,-4.258,-4.2323,-4.1205,-4.1352,-4.1111,-4.001,-3.99,-3.957,-3.8762,-3.8689,-3.8469,-3.797,-3.667,-3.5665,-3.5004,-3.4491,-3.41,-3.3807,-3.3807,-3.3807,-3.3807,-3.3807,-3.3807,-3.3807,-3.3807,-3.3807,-3.3807,-3.3807,-3.3807,-3.3807,-3.3807,-3.3807,-3.3807,-3.3807,-3.3807,-3.3807,-3.3807,-3.3807,-3.3807,-3.3807,-3.3807,-3.3807,-3.3807,-3.3807,-3.3807,-3.3807,-3.3807,-3.3807,-3.3807,-3.3807,-3.3807,-3.3807,-3.3807,-3.3807,-3.3807,-3.4417,-3.4931,-3.4601,-3.5495,-3.6119,-3.5459,-3.5151,-3.5064,-3.527,0.0,-3.3793,-3.5137,-3.488,-3.4527,-3.4527,-3.4821,-3.4674,-3.388,-3.3807,-3.3807,-3.3807,-3.3807,-3.3807,-3.3807,-3.3807,-3.3807,-3.3807,-3.41,-3.4284,-3.4284,-3.5605,-3.645,-3.6795,-3.7771,-3.8395,-3.8689,-3.8689,-3.8689,-3.8689,-3.8175,-3.8065,-3.8212,-3.8043,-3.8065,-3.8285,-3.8579,-3.8689,-3.8689,-3.8689,-3.8689,-3.8689,-4.2947,-4.313,-4.3204,-4.3478,-4.3515,-4.3515,-4.3515,-4.3277,-4.2837,-4.2029,-4.1919,-4.1515,-4.0471,-4.0561,-4.0414,-3.957,-3.9533,-3.9276,-3.8726,-3.8689,-3.8322,-3.7529,-3.6413,-3.5555,-3.5004,-3.4454,-3.4064,-3.3807,-3.3807,-3.3807,-3.3807,-3.3807,-3.3807,-3.3807,-3.3807,-3.3807,-3.3807,-3.3807,-3.3807,-3.3807,-3.3807,-3.3807,-3.3807,-3.3807,-3.3807,-3.3807,-3.3807,-3.3807,-3.3807,-3.3807,-3.3807,-3.3807,-3.3807,-3.3807,-3.3807,-3.3807,-3.3807,-3.3807,-3.3807,-3.3807,-3.3807,-3.3807,-3.3807,-3.3807,-3.3807,-3.4651,-3.5334,-3.5078,-3.6119,-3.689,-3.6376,-3.6009,-3.5899,-3.6229,-3.5349,-3.5055,-3.6486,-3.6156,-3.5701,-3.5445,-3.5408,-3.4968,-3.3917,-3.4027,-3.4064,-3.3807,-3.4284,-3.4468,-3.4211,-3.4174,-3.4064,-3.3807,-3.3807,-3.3917,-3.416,-3.5312,-3.6046,-3.6303,-3.7661,-3.8469,-3.8689,-3.8689,-3.8689,-3.8689,-3.8102,-3.8175,-3.8652,-3.8102,-3.8212,-3.8689,-3.8689,-3.8689,-3.8673,-3.8496,-3.8449,-3.8433,-4.2139,-4.2286,-4.2543,-4.3368,-4.3515,-4.3515,-4.3515,-4.28,-4.2029,-4.1205,-4.1095,-4.0471,-3.8872,-3.9423,-3.957,-3.8762,-3.8689,-3.8689,-3.8689,-3.8689,-3.8322,-3.7529,-3.7492,-3.6707,-3.5078,-3.5004,-3.4601,-3.3807,-3.3807,-3.3807,-3.3807,-3.3807,-3.3807,-3.3807,-3.3807,-3.3807,-3.3807,-3.3807,-3.3807,-3.3807,-3.3807,-3.3807,-3.3807,-3.3807,-3.3807,-3.3807,-3.3807,-3.3807,-3.3807,-3.3807,-3.3807,-3.3807,-3.3807,-3.3807,-3.3807,-3.3807,-3.3807,-3.3807,-3.3807,-3.3807,-3.3807,-3.3807,-3.3807,-3.3807,-3.3807,-3.5092,-3.6046,-3.5188,-3.6986,-3.8212,-3.6597,-3.6978,-3.7235,-3.645,-3.6303,-3.6597,-3.7419,-3.7492,-3.7199,-3.6376,-3.6303,-3.5642,-3.3954,-3.4527,-3.4674,-3.388,-3.5349,-3.5936,-3.5064,-3.499,-3.4637,-3.383,-3.3807,-3.4197,-3.499,-3.499,-3.5445,-3.6303,-3.7125,-3.7933,-3.8689,-3.8689,-3.8689,-3.8689,-3.8689,-3.8689,-3.8689,-3.8689,-3.8689,-3.8689,-3.8689,-3.8689,-3.8643,-3.8099,-3.7893,-3.7825,-4.2139,-4.2286,-4.2543,-4.3368,-4.3515,-4.3515,-4.3515,-4.28,-4.2029,-4.1205,-4.0634,-3.9863,-3.8799,-3.8909,-3.8946,-3.8726,-3.8689,-3.8689,-3.8689,-3.8689,-3.8579,-3.8358,-3.7823,-3.7272,-3.6795,-3.5591,-3.4894,-3.4637,-3.41,-3.3807,-3.3807,-3.3807,-3.3807,-3.3807,-3.3807,-3.3807,-3.3807,-3.3807,-3.3807,-3.3807,-3.3807,-3.3807,-3.3807,-3.3807,-3.3807,-3.3807,-3.3807,-3.3807,-3.3807,-3.3807,-3.3807,-3.3807,-3.3807,-3.3807,-3.3807,-3.3807,-3.3807,-3.3807,-3.3807,-3.3807,-3.3807,-3.3807,-3.4197,-3.4637,-3.4637,-3.5936,-3.7088,-3.6817,-3.7808,-3.8542,-3.8065,-3.7713,-3.7603,-3.7918,-3.7514,-3.7419,-3.8212,-3.786,-3.7199,-3.6376,-3.6303,-3.5862,-3.4747,-3.5422,-3.5826,-3.5569,-3.6009,-3.6025,-3.5395,-3.5344,-3.5094,-3.4467,-3.481,-3.5126,-3.5344,-3.5718,-3.634,-3.7162,-3.7955,-3.8469,-3.8689,-3.8689,-3.8689,-3.8689,-3.8689,-3.8689,-3.8689,-3.8689,-3.8689,-3.8689,-3.8689,-3.8689,-3.8643,-3.8099,-3.7893,-3.7825,-4.1589,-4.1846,-4.2109,-4.3032,-4.3178,-4.3178,-4.3178,-4.2485,-4.1735,-4.1189,-4.0414,-3.957,-3.8799,-3.8689,-3.8689,-3.8689,-3.8496,-3.8481,-3.8673,-3.8496,-3.8481,-3.8673,-3.8212,-3.7676,-3.7052,-3.5701,-3.4857,-3.4527,-3.4027,-3.3807,-3.3807,-3.3807,-3.3807,-3.3807,-3.3807,-3.3807,-3.3807,-3.3807,-3.3807,-3.3807,-3.3807,-3.3807,-3.3807,-3.3807,-3.3807,-3.3807,-3.3807,-3.3807,-3.3807,-3.3807,-3.3807,-3.3807,-3.3807,-3.3807,-3.3807,-3.3807,-3.3807,-3.3807,-3.3807,-3.3807,-3.388,-3.4211,-3.4637,-3.5078,-3.5445,-3.6523,-3.7492,-3.7492,-3.8138,-3.8689,-3.8689,-3.8285,-3.8138,-3.8615,-3.8285,-3.8138,-3.8615,-3.8285,-3.7551,-3.6413,-3.6376,-3.6015,-3.4834,-3.5592,-3.6274,-3.6616,-3.6347,-3.6,-3.5681,-3.5664,-3.5348,-3.473,-3.501,-3.5342,-3.5664,-3.5984,-3.6594,-3.7492,-3.8322,-3.8689,-3.8689,-3.8689,-3.8689,-3.8689,-3.8689,-3.8689,-3.8673,-3.8465,-3.8364,-3.8385,-3.8185,-3.8118,-3.8051,-3.7506,-3.7323,-3.7248,-4.0593,-4.085,-4.1226,-4.2351,-4.2527,-4.2563,-4.2616,-4.1823,-4.1161,-4.1052,-4.0207,-3.9401,-3.87,-3.8596,-3.858,-3.858,-3.8115,-3.8048,-3.8512,-3.8099,-3.8048,-3.8564,-3.858,-3.7848,-3.6311,-3.56,-3.4857,-3.4137,-3.399,-3.3903,-3.3826,-3.3803,-3.3766,-3.3766,-3.3766,-3.378,-3.3807,-3.3807,-3.3807,-3.3807,-3.3807,-3.3807,-3.3807,-3.3807,-3.3807,-3.3807,-3.3807,-3.3807,-3.3807,-3.3807,-3.3807,-3.3807,-3.3807,-3.378,-3.3766,-3.3766,-3.3766,-3.3766,-3.3766,-3.378,-3.399,-3.4821,-3.5078,-3.5334,-3.6193,-3.7052,-3.7603,-3.7603,-3.8175,-3.8689,-3.8689,-3.8689,-3.8689,-3.8689,-3.8658,-3.8627,-3.8627,-3.8523,-3.7921,-3.6457,-3.6467,-3.6062,-3.4591,-3.5403,-3.6357,-3.7156,-3.6481,-3.6001,-3.5946,-3.5946,-3.561,-3.4796,-3.4851,-3.5187,-3.5946,-3.6001,-3.6522,-3.7497,-3.8214,-3.858,-3.858,-3.8611,-3.8611,-3.858,-3.8611,-3.8611,-3.8549,-3.8048,-3.7842,-3.779,-3.736,-3.7192,-3.7135,-3.66,-3.643,-3.6416,-3.8992,-3.8989,-3.9435,-4.0887,-4.1116,-4.1329,-4.1929,-4.0826,-4.0042,-4.0366,-3.8869,-3.7864,-3.8032,-3.7756,-3.7542,-3.7542,-3.7415,-3.7396,-3.7542,-3.7415,-3.7396,-3.7542,-3.7542,-3.7059,-3.6007,-3.663,-3.6868,-3.6684,-3.5371,-3.457,-3.4241,-3.364,-3.335,-3.335,-3.335,-3.3508,-3.3807,-3.3807,-3.3807,-3.3807,-3.3807,-3.3807,-3.3807,-3.3807,-3.3807,-3.3807,-3.3807,-3.3807,-3.3807,-3.3807,-3.3807,-3.3807,-3.3807,-3.3578,-3.335,-3.335,-3.335,-3.335,-3.335,-3.3564,-3.399,-3.4821,-3.5518,-3.6229,-3.7052,-3.7845,-3.8432,-3.8432,-3.8579,-3.8689,-3.8689,-3.8689,-3.8689,-3.8689,-3.8332,-3.8082,-3.8082,-3.7164,-3.6381,-3.6025,-3.6025,-3.5918,-3.5599,-3.6395,-3.6996,-3.7192,-3.7031,-3.6735,-3.6301,-3.6281,-3.6008,-3.5407,-3.5794,-3.6142,-3.6281,-3.6716,-3.7037,-3.7256,-3.7434,-3.7542,-3.756,-3.7912,-3.7878,-3.756,-3.7929,-3.7878,-3.7542,-3.7396,-3.7341,-3.7341,-3.7229,-3.7192,-3.7135,-3.66,-3.6776,-3.7176,-3.8367,-3.8415,-3.8797,-4.0046,-4.0284,-4.0508,-4.1257,-4.0381,-3.9693,-3.986,-3.8621,-3.773,-3.7578,-3.7341,-3.7192,-3.7192,-3.6962,-3.6923,-3.7173,-3.6943,-3.6923,-3.7173,-3.7192,-3.6996,-3.6517,-3.7057,-3.6952,-3.6177,-3.5535,-3.4811,-3.4002,-3.3573,-3.318,-3.2874,-3.2874,-3.2999,-3.3196,-3.3437,-3.3508,-3.3536,-3.3703,-3.3712,-3.3508,-3.3508,-3.3357,-3.3196,-3.3196,-3.3314,-3.3536,-3.3753,-3.3807,-3.378,-3.3564,-3.3379,-3.3151,-3.2937,-3.2874,-3.2874,-3.2874,-3.347,-3.4229,-3.478,-3.5722,-3.6671,-3.7338,-3.8102,-3.8689,-3.8689,-3.8496,-3.8316,-3.8316,-3.8152,-3.7964,-3.7964,-3.7756,-3.756,-3.756,-3.6967,-3.6357,-3.5949,-3.606,-3.6018,-3.5792,-3.6159,-3.6457,-3.6457,-3.6457,-3.6312,-3.6049,-3.6028,-3.5898,-3.5622,-3.5876,-3.6028,-3.6028,-3.6312,-3.6457,-3.6422,-3.6962,-3.7192,-3.7192,-3.7451,-3.7433,-3.721,-3.7451,-3.7433,-3.7173,-3.6904,-3.6805,-3.6786,-3.6525,-3.6457,-3.6416,-3.6101,-3.6268,-3.6566,-3.7807,-3.7928,-3.8208,-3.9143,-3.9399,-3.9721,-4.0446,-4.0066,-3.9601,-3.9376,-3.8742,-3.8053,-3.7321,-3.7173,-3.7099,-3.6958,-3.6539,-3.6457,-3.6884,-3.6519,-3.6478,-3.6904,-3.6923,-3.6923,-3.6923,-3.702,-3.6442,-3.5118,-3.5415,-3.4917,-3.3688,-3.3583,-3.3089,-3.2366,-3.2366,-3.2416,-3.2535,-3.2921,-3.3075,-3.3105,-3.3451,-3.3357,-3.3075,-3.3075,-3.2858,-3.2483,-3.2483,-3.2763,-3.3121,-3.348,-3.3578,-3.3536,-3.3181,-3.3029,-3.2905,-3.266,-3.2578,-3.2613,-3.2737,-3.3586,-3.449,-3.4711,-3.5685,-3.6689,-3.7114,-3.7865,-3.8433,-3.8433,-3.8082,-3.7772,-3.7772,-3.747,-3.7192,-3.7192,-3.7116,-3.7058,-3.7058,-3.6981,-3.6658,-3.5933,-3.6102,-3.6114,-3.5644,-3.56,-3.56,-3.56,-3.56,-3.56,-3.56,-3.56,-3.56,-3.56,-3.56,-3.56,-3.56,-3.56,-3.56,-3.5622,-3.6484,-3.6923,-3.6923,-3.702,-3.7001,-3.6923,-3.702,-3.7001,-3.6884,-3.6457,-3.6249,-3.6207,-3.5766,-3.56,-3.5633,-3.5735,-3.5701,-3.5633,-3.6056,-3.6002,-3.6253,-3.7069,-3.7725,-3.8414,-3.9151,-3.9185,-3.9027,-3.8737,-3.8277,-3.7855,-3.7498,-3.7075,-3.6581,-3.5878,-3.5744,-3.5722,-3.581,-3.5744,-3.5722,-3.581,-3.581,-3.581,-3.581,-3.627,-3.6601,-3.6854,-3.6164,-3.5256,-3.4125,-3.3392,-3.2644,-3.188,-3.188,-3.2109,-3.2483,-3.2584,-3.2582,-3.2617,-3.2631,-3.2631,-3.2582,-3.2582,-3.2568,-3.2483,-3.2483,-3.2516,-3.2582,-3.2647,-3.2699,-3.2647,-3.2598,-3.2315,-3.2108,-3.275,-3.294,-3.306,-3.3701,-3.4247,-3.4659,-3.4712,-3.5349,-3.6024,-3.6096,-3.679,-3.7396,-3.7396,-3.7341,-3.7285,-3.7285,-3.7229,-3.7192,-3.7192,-3.6786,-3.6519,-3.6519,-3.6101,-3.5776,-3.5652,-3.5688,-3.5689,-3.56,-3.56,-3.56,-3.56,-3.56,-3.56,-3.56,-3.56,-3.56,-3.56,-3.56,-3.56,-3.56,-3.56,-3.56,-3.56,-3.5744,-3.581,-3.5832,-3.6291,-3.6249,-3.5832,-3.6312,-3.6228,-3.581,-3.5722,-3.5734,-3.5711,-3.5644,-3.56,-3.5667,-3.6366,-3.6197,-3.5701,-3.5644,-3.56,-3.5971,-3.7212,-3.7686,-3.8294,-3.9436,-3.9242,-3.8967,-3.8822,-3.7919,-3.7261,-3.7103,-3.6525,-3.5994,-3.5633,-3.56,-3.56,-3.56,-3.56,-3.56,-3.56,-3.56,-3.56,-3.56,-3.5832,-3.6092,-3.6312,-3.6217,-3.5575,-3.4343,-3.357,-3.2818,-3.2066,-3.1656,-3.1582,-3.1804,-3.2004,-3.2109,-3.2127,-3.2383,-3.2332,-3.2109,-3.2109,-3.1986,-3.1822,-3.2039,-3.2109,-3.2144,-3.24,-3.2483,-3.2433,-3.2179,-3.2282,-3.2514,-3.2574,-3.2886,-3.3297,-3.3618,-3.4362,-3.4952,-3.4659,-3.5387,-3.6083,-3.5814,-3.636,-3.7158,-3.7709,-3.7591,-3.7356,-3.7356,-3.7144,-3.6851,-3.6381,-3.6101,-3.5963,-3.5963,-3.5744,-3.56,-3.56,-3.56,-3.56,-3.56,-3.56,-3.56,-3.56,-3.56,-3.56,-3.56,-3.56,-3.56,-3.56,-3.56,-3.5802,-3.6265,-3.6265,-3.6265,-3.6265,-3.6705,-3.6411,-3.5622,-3.5832,-3.581,-3.5622,-3.5854,-3.6048,-3.6231,-3.5769,-3.5836,-3.6231,-3.5769,-3.56,-3.5633,-3.5994,-3.5926,-3.5633]},{"header":{"parameterUnit":"m.s-1","parameterCategory":1,"la1":30.6,"la2":28.766,"lo1":-90.7593,"lo2":-88.6598,"dy":0.0162,"dx":0.0183,"nx":116,"ny":114,"refTime":"2023-06-29T12:00:00:Z","depth":0,"parameterNumber":3,"parameterNumberName":"V-component_of_WINDS"},"data":[0.0,0.0,0.0,0.0,0.0,0.0,0.0,0.0,0.0,0.0,0.0,0.0,0.0,0.0,0.0,0.0,0.0,0.0,0.0,0.0,0.0,0.0,0.0,0.0,0.0,0.0,0.0,0.0,0.0,0.0,0.0,0.0,0.0,0.0,0.0,0.0,0.0,0.0,0.0,0.0,0.0,0.0,0.0,0.0,0.0,0.0,0.0,0.0,0.0,0.0,0.0,0.0,0.0,0.0,0.0,0.0,0.0,0.0,0.0,0.0,0.0,0.0,0.0,0.0,0.0,0.0,0.0,0.0,0.0,0.0,0.0,0.0,0.0,0.0,0.0,0.0,0.0,0.0,0.0,0.0,0.0,0.0,0.0,0.0,0.0,0.0,0.0,0.0,0.0,0.0,0.0,0.0,0.0,0.0,0.0,0.0,0.0,0.0,0.0,0.0,0.0,0.0,0.0,0.0,0.0,0.0,0.0,0.0,0.0,0.0,0.0,0.0,0.0,0.0,0.0,0.0,0.0,0.0,0.0,0.0,0.0,0.0,0.0,0.0,0.0,0.0,0.0,0.0,0.0,0.0,0.0,0.0,0.0,0.0,0.0,0.0,0.0,0.0,0.0,0.0,0.0,0.0,0.0,0.0,0.0,0.0,0.0,0.0,0.0,0.0,0.0,0.0,0.0,0.0,0.0,0.0,0.0,0.0,0.0,0.0,0.0,0.0,0.0,0.0,0.0,0.0,0.0,0.0,0.0,0.0,0.0,0.0,0.0,0.0,0.0,0.0,0.0,0.0,0.0,0.0,0.0,0.0,0.0,0.0,0.0,0.0,0.0,0.0,0.0,0.0,0.0,0.0,0.0,0.0,0.0,0.0,0.0,0.0,0.0,0.0,0.0,0.0,0.0,0.0,0.0,0.0,0.0,0.0,0.0,0.0,0.0,0.0,0.0,0.0,0.0,0.0,0.0,0.0,0.0,0.0,0.0,0.0,0.0,0.0,0.0,0.0,0.0,0.0,0.0,0.0,0.0,0.0,0.0,0.0,0.0,0.0,0.0,0.0,0.0,0.0,0.0,0.0,0.0,0.0,0.0,0.0,0.0,0.0,0.0,0.0,0.0,0.0,0.0,0.0,0.0,0.0,0.0,0.0,0.0,0.0,0.0,0.0,0.0,0.0,0.0,0.0,0.0,0.0,0.0,0.0,0.0,0.0,0.0,0.0,0.0,0.0,0.0,0.0,0.0,0.0,0.0,0.0,0.0,0.0,0.0,0.0,0.0,0.0,0.0,0.0,0.0,0.0,0.0,0.0,0.0,0.0,0.0,0.0,0.0,0.0,0.0,0.0,0.0,0.0,0.0,0.0,0.0,0.0,0.0,0.0,0.0,0.0,0.0,0.0,0.0,0.0,0.0,0.0,0.0,0.0,0.0,0.0,0.0,0.0,0.0,0.0,0.0,0.0,0.0,0.0,0.0,0.0,0.0,0.0,0.0,0.0,0.0,0.0,0.0,0.0,0.0,0.0,0.0,0.0,0.0,0.0,0.0,0.0,0.0,0.0,0.0,0.0,0.0,0.0,0.0,0.0,0.0,0.0,0.0,0.0,0.0,0.0,0.0,0.0,0.0,0.0,0.0,0.0,0.0,0.0,0.0,0.0,0.0,0.0,0.0,0.0,0.0,0.0,0.0,0.0,0.0,0.0,0.0,0.0,0.0,0.0,0.0,0.0,0.0,0.0,0.0,0.0,0.0,0.0,0.0,0.0,0.0,0.0,0.0,0.0,0.0,0.0,0.0,0.0,0.0,0.0,0.0,0.0,0.0,0.0,0.0,0.0,0.0,0.0,0.0,0.0,0.0,0.0,0.0,0.0,0.0,0.0,0.0,0.0,0.0,0.0,0.0,0.0,0.0,0.0,0.0,0.0,0.0,0.0,0.0,0.0,0.0,0.0,0.0,0.0,0.0,0.0,0.0,0.0,0.0,0.0,0.0,0.0,0.0,0.0,0.0,0.0,0.0,0.0,0.0,0.0,0.0,0.0,0.0,0.0,0.0,0.0,0.0,0.0,0.0,0.0,0.0,0.0,0.0,0.0,0.0,0.0,0.0,0.0,0.0,0.0,0.0,0.0,0.0,0.0,0.0,0.0,0.0,0.0,0.0,0.0,0.0,0.0,0.0,0.0,0.0,0.0,0.0,0.0,0.0,0.0,0.0,0.0,0.0,0.0,0.0,0.0,0.0,0.0,0.0,0.0,0.0,0.0,0.0,0.0,0.0,0.0,0.0,0.0,0.0,0.0,0.0,0.0,0.0,0.0,0.0,0.0,0.0,0.0,0.0,0.0,0.0,0.0,0.0,0.0,0.0,0.0,0.0,0.0,0.0,0.0,0.0,0.0,0.0,0.0,0.0,0.0,0.0,0.0,0.0,0.0,0.0,0.0,0.0,0.0,0.0,0.0,0.0,0.0,0.0,0.0,0.0,0.0,0.0,0.0,0.0,0.0,0.0,0.0,0.0,0.0,0.0,0.0,0.0,0.0,0.0,0.0,0.0,0.0,0.0,0.0,0.0,0.0,0.0,0.0,0.0,0.0,0.0,0.0,0.0,0.0,0.0,0.0,0.0,0.0,0.0,0.0,0.0,0.0,0.0,0.0,0.0,0.0,0.0,0.0,0.0,0.0,0.0,0.0,0.0,0.0,0.0,0.0,0.0,0.0,0.0,0.0,0.0,0.0,0.0,0.0,0.0,0.0,0.0,0.0,0.0,0.0,0.0,0.0,0.0,0.0,0.0,0.0,0.0,0.0,0.0,0.0,0.0,0.0,0.0,0.0,0.0,0.0,0.0,0.0,0.0,0.0,0.0,0.0,0.0,0.0,0.0,0.0,0.0,0.0,0.0,0.0,0.0,0.0,0.0,0.0,0.0,0.0,0.0,0.0,0.0,0.0,0.0,0.0,0.0,0.0,0.0,0.0,0.0,0.0,0.0,0.0,0.0,0.0,0.0,0.0,0.0,0.0,0.0,0.0,0.0,0.0,0.0,0.0,0.0,0.0,0.0,0.0,0.0,0.0,0.0,0.0,0.0,0.0,0.0,0.0,0.0,0.0,0.0,0.0,0.0,0.0,0.0,0.0,0.0,0.0,0.0,0.0,0.0,0.0,0.0,0.0,0.0,0.0,0.0,0.0,0.0,0.0,0.0,0.0,0.0,0.0,0.0,0.0,0.0,0.0,0.0,0.0,0.0,0.0,0.0,0.0,0.0,0.0,0.0,0.0,0.0,0.0,0.0,0.0,0.0,0.0,0.0,0.0,0.0,0.0,0.0,0.0,0.0,0.0,0.0,0.0,0.0,0.0,0.0,0.0,0.0,0.0,0.0,0.0,0.0,0.0,0.0,0.0,0.0,0.0,0.0,0.0,0.0,0.0,0.0,0.0,0.0,0.0,0.0,0.0,0.0,0.0,0.0,0.0,0.0,0.0,0.0,0.0,0.0,0.0,0.0,0.0,0.0,0.0,0.0,0.0,0.0,0.0,0.0,0.0,0.0,0.0,0.0,0.0,0.0,0.0,0.0,0.0,0.0,0.0,0.0,0.0,0.0,0.0,0.0,0.0,0.0,0.0,0.0,0.0,0.0,0.0,0.0,0.0,0.0,0.0,0.0,0.0,0.0,0.0,0.0,0.0,0.0,0.0,0.0,0.0,0.0,0.0,0.0,0.0,0.0,0.0,0.0,0.0,0.0,0.0,0.0,0.0,0.0,0.0,0.0,0.0,0.0,0.0,0.0,0.0,0.0,0.0,0.0,0.0,0.0,0.0,0.0,0.0,0.0,0.0,0.0,0.0,0.0,0.0,0.0,0.0,0.0,0.0,0.0,0.0,0.0,0.0,0.0,0.0,0.0,0.0,0.0,0.0,0.0,0.0,0.0,0.0,0.0,0.0,0.0,0.0,0.0,0.0,0.0,0.0,0.0,0.0,0.0,0.0,0.0,0.0,0.0,0.0,0.0,0.0,0.0,0.0,0.0,0.0,0.0,0.0,0.0,0.0,0.0,0.0,0.0,0.0,0.0,0.0,0.0,0.0,0.0,0.0,0.0,0.0,0.0,0.0,0.0,0.0,0.0,0.0,0.0,0.0,0.0,0.0,0.0,0.0,0.0,0.0,0.0,0.0,0.0,0.0,0.0,0.0,0.0,0.0,0.0,0.0,0.0,0.0,0.0,0.0,0.0,0.0,0.0,0.0,0.0,0.0,0.0,0.0,0.0,0.0,0.0,0.0,0.0,0.0,0.0,0.0,0.0,0.0,0.0,0.0,0.0,0.0,0.0,0.0,0.0,0.0,0.0,0.0,0.0,0.0,0.0,0.0,0.0,0.0,0.0,0.0,0.0,0.0,0.0,0.0,0.0,0.0,0.0,0.0,0.0,0.0,0.0,0.0,0.0,0.0,0.0,0.0,0.0,0.0,0.0,0.0,0.0,0.0,0.0,0.0,0.0,0.0,0.0,0.0,0.0,0.0,0.0,0.0,0.0,0.0,0.0,0.0,0.0,0.0,0.0,0.0,0.0,0.0,0.0,0.0,0.0,0.0,0.0,0.0,0.0,0.0,0.0,0.0,0.0,0.0,0.0,0.0,0.0,0.0,0.0,0.0,0.0,0.0,0.0,0.0,0.0,0.0,0.0,0.0,0.0,0.0,0.0,0.0,0.0,0.0,0.0,0.0,0.0,0.0,0.0,0.0,0.0,0.0,0.0,0.0,0.0,0.0,0.0,0.0,0.0,0.0,0.0,0.0,0.0,0.0,0.0,0.0,0.0,0.0,0.0,0.0,0.0,0.0,0.0,0.0,0.0,0.0,0.0,0.0,0.0,0.0,0.0,0.0,0.0,0.0,0.0,0.0,0.0,0.0,0.0,0.0,0.0,0.0,0.0,0.0,0.0,0.0,0.0,0.0,0.0,0.0,0.0,0.0,0.0,0.0,0.0,0.0,0.0,0.0,0.0,0.0,0.0,0.0,0.0,0.0,0.0,0.0,0.0,0.0,0.0,0.0,0.0,0.0,0.0,0.0,0.0,0.0,0.0,0.0,0.0,0.0,0.0,0.0,0.0,0.0,0.0,0.0,0.0,0.0,0.0,0.0,0.0,0.0,0.0,0.0,0.0,0.0,0.0,0.0,0.0,0.0,0.0,0.0,0.0,0.0,0.0,0.0,0.0,0.0,0.0,0.0,0.0,0.0,0.0,0.0,0.0,0.0,0.0,0.0,0.0,0.0,0.0,0.0,0.0,0.0,0.0,0.0,0.0,0.0,0.0,0.0,0.0,0.0,0.0,0.0,0.0,0.0,0.0,0.0,0.0,0.0,0.0,0.0,0.0,0.0,0.0,0.0,0.0,0.0,0.0,0.0,0.0,0.0,0.0,0.0,0.0,0.0,0.0,0.0,0.0,0.0,0.0,0.0,0.0,0.0,0.0,0.0,0.0,0.0,0.0,0.0,0.0,0.0,0.0,0.0,0.0,0.0,0.0,0.0,0.0,0.0,0.0,0.0,0.0,0.0,0.0,0.0,0.0,0.0,0.0,0.0,0.0,0.0,0.0,0.0,0.0,0.0,0.0,0.0,0.0,0.0,0.0,0.0,0.0,0.0,0.0,0.0,0.0,0.0,0.0,0.0,0.0,0.0,0.0,0.0,0.0,0.0,0.0,0.0,0.0,0.0,0.0,0.0,0.0,0.0,0.0,0.0,0.0,0.0,0.0,0.0,0.0,0.0,0.0,0.0,0.0,0.0,0.0,0.0,0.0,0.0,0.0,0.0,0.0,0.0,0.0,0.0,0.0,0.0,0.0,0.0,0.0,0.0,0.0,0.0,0.0,0.0,0.0,0.0,0.0,0.0,0.0,0.0,0.0,0.0,0.0,0.0,0.0,0.0,0.0,0.0,0.0,0.0,0.0,0.0,0.0,0.0,0.0,0.0,0.0,0.0,0.0,0.0,0.0,0.0,0.0,0.0,0.0,0.0,0.0,0.0,0.0,0.0,0.0,0.0,0.0,0.0,0.0,0.0,0.0,0.0,0.0,0.0,0.0,0.0,0.0,0.0,0.0,0.0,0.0,0.0,0.0,0.0,0.0,0.0,-0.2065,0.0,0.0,0.0,0.0,0.0,0.0,0.0,0.0,0.0,0.0,0.0,0.0,0.0,0.0,0.0,0.0,0.0,0.0,0.0,0.0,0.0,0.0,0.0,0.0,0.0,0.0,0.0,0.0,0.0,0.0,0.0,0.0,0.0,0.0,0.0,0.0,0.0,0.0,0.0,0.7871,0.9113,1.0962,1.0346,0.9211,0.7596,0.0,0.0,0.0,0.0,0.0,0.0,0.0,0.0,0.0,0.0,0.0,0.0,0.0,0.0,0.0,0.0,0.0,0.0,0.0,0.0,0.0,0.0,0.0,0.0,0.0,0.0,0.0,0.0,0.0,0.0,0.0,0.0,0.0,0.0,0.0,0.0,0.0,0.0,0.0,0.0,0.0,0.0,0.0,0.0,0.0,0.0,0.0,0.0,0.0,0.0,0.0,0.0,0.0,0.0,0.0,0.0,0.0,0.0,0.0,0.0,0.0,0.0,0.0,0.0,0.0,0.0,0.0,0.0,0.0,0.0,0.0,-0.1861,0.0,0.0,0.0,0.0,0.0,0.0,0.0,0.0,0.0,0.0,0.0,0.0,0.0,0.0,0.0,0.0,0.0,0.0,0.0,0.0,0.0,0.0,0.0,0.0,0.0,0.0,0.0,0.0,0.0,0.0,0.0,0.0,0.0,0.0,0.0,0.7112,0.7313,0.7766,0.9506,1.1441,1.3474,1.3827,1.2809,1.0613,0.8864,0.0,0.0,0.0,0.0,0.0,0.0,0.0,0.0,0.0,0.0,0.0,0.0,0.0,0.0,0.0,0.0,0.0,0.0,0.0,0.0,0.0,0.0,0.0,0.0,0.0,0.0,0.0,0.0,0.0,0.0,0.0,0.0,0.0,0.0,0.0,0.0,0.0,0.0,0.0,0.0,0.0,0.0,0.0,0.0,0.0,0.0,0.0,0.0,0.0,0.0,0.0,0.0,0.0,0.0,0.0,0.0,0.0,0.0,0.0,0.0,0.0,0.0,0.0,0.0,0.0,-0.1386,-0.1386,-0.11,-0.0676,-0.1145,-0.1142,-0.0858,0.0,0.0,0.0,0.0,0.0,0.0,0.0,0.0,0.0,0.0,0.0,0.0,0.0,0.0,0.0,0.0,0.0,0.0,0.0,0.0,0.0,0.0,0.0,0.7098,0.7098,0.7098,0.0,0.0,0.0,0.0,0.0,0.0,0.0,0.7339,0.721,0.7811,0.9208,1.2837,1.5141,1.6215,1.6546,1.6514,1.6066,1.3292,1.2465,1.2997,0.0,0.0,0.0,0.0,0.0,0.0,0.0,0.0,0.0,0.0,0.0,0.0,0.0,0.0,0.0,0.0,0.0,0.0,0.0,0.0,0.0,0.0,0.0,0.0,0.0,0.0,0.0,0.0,0.0,0.0,0.0,0.0,0.0,0.0,0.0,0.0,0.0,0.0,0.0,0.0,0.0,0.7379,0.7013,0.0,0.0,0.0,0.0,0.0,0.0,0.0,0.0,0.0,0.0,0.0,0.0,0.0,0.0,-0.0895,-0.0637,-0.0506,-0.0513,-0.03,-0.0153,-0.0231,-0.0231,-0.0153,-0.0076,-0.0148,0.0,-0.0805,-0.095,0.0,0.0,0.0,0.0,0.0,0.0,0.0,0.0,0.0,0.0,0.0,0.0,0.0,0.0,0.0,0.0,0.0,0.0,0.0,0.0,0.0,0.0,0.8844,0.8844,1.0066,1.0224,0.0,0.0,0.0,0.0,0.0,0.7258,0.7244,0.805,0.9894,1.2798,1.5666,1.7765,1.9155,1.9665,1.9962,2.0052,1.8448,1.6384,1.403,1.2567,0.0,0.0,0.0,0.0,0.0,0.0,0.0,0.0,0.0,0.0,0.0,0.0,0.0,0.0,0.0,0.0,0.0,0.0,0.0,0.0,0.0,0.0,0.0,0.0,0.0,0.0,0.0,0.0,0.0,0.0,0.0,0.0,0.0,0.0,0.0,0.0,0.0,0.0,0.0,0.6975,0.7041,0.6704,0.6624,0.6354,0.0,0.0,0.0,0.0,0.0,0.0,0.0,0.0,0.0,-0.0628,-0.0642,-0.0582,-0.037,-0.0228,-0.0155,-0.0158,-0.008,0.0,0.0,0.0,0.0,0.0,0.0,-0.0153,-0.0353,-0.0651,-0.183,-0.3364,0.0,0.0,0.0,0.0,0.0,0.0,0.0,0.0,0.0,0.0,0.0,0.0,0.0,0.0,0.0,0.0,0.0,0.0,0.0,0.9686,1.0911,1.1063,1.271,1.2761,1.0533,0.0,0.0,0.0,0.0,0.7292,0.7213,0.9429,1.2405,1.6175,1.8185,1.9979,2.1683,2.2205,2.2552,2.2739,2.2231,1.9864,1.6172,1.5444,1.4015,1.2125,0.0,0.0,0.0,0.0,0.0,0.0,0.0,0.0,0.0,0.0,0.0,0.0,0.0,0.0,0.0,0.0,0.0,0.0,0.0,0.0,0.0,0.0,0.0,0.0,0.0,0.0,0.0,0.0,0.0,0.0,0.0,0.0,0.0,0.0,0.0,0.0,0.0,0.696,0.7185,0.6669,0.7148,0.7172,0.0,0.0,0.0,0.0,0.0,0.0,0.3115,0.1185,0.0,-0.0302,-0.0308,-0.0235,0.0,0.0,0.0,0.0,0.0,0.0,0.0,0.0,0.0,0.0,0.0,0.0,0.0,-0.0421,-0.1173,-0.2097,-0.2492,-0.3277,0.0,-0.5574,-0.6289,-0.6832,0.0,0.0,0.0,0.0,0.0,0.0,0.0,0.0,0.0,0.0,0.0,0.0,0.0,1.1619,1.2909,1.3466,1.3656,1.2894,1.0979,1.0453,0.9366,0.7464,0.7224,0.724,0.757,1.1443,1.5054,1.8349,2.0448,2.2005,2.322,2.3541,2.3688,2.3688,2.338,2.2777,2.1885,1.9929,1.8298,1.6771,1.392,0.0,0.0,0.0,0.0,0.0,0.0,0.0,0.0,0.0,0.0,0.0,0.0,0.0,0.0,0.0,0.0,0.0,0.0,0.0,0.0,0.0,0.0,0.0,0.0,0.0,0.0,0.0,0.0,0.0,0.0,0.0,0.0,0.0,0.0,0.0,0.0,0.0,0.0,0.7508,0.8896,0.0,0.0,0.0,0.0,0.6846,0.713,0.6067,0.3088,0.2867,0.2034,0.0082,0.0,0.0,0.0,0.0,0.0,0.0,0.0,0.0,0.0,0.0,0.0,0.0,0.0,0.0,0.0,0.0,-0.0903,-0.2192,-0.2196,-0.3123,-0.4453,-0.4391,-0.5493,-0.7069,0.0,0.0,0.0,0.0,0.0,0.0,0.0,0.0,0.0,0.0,0.0,0.0,0.0,1.3339,1.5542,1.6177,1.7444,1.7329,1.5311,1.3477,1.1623,0.9754,0.8222,0.8649,1.1226,1.4494,1.7491,2.0164,2.2058,2.338,2.4168,2.4275,2.4436,2.4596,2.4302,2.3941,2.346,2.1948,2.0009,1.7865,1.6363,1.3804,0.0,0.0,0.0,0.0,0.0,0.0,0.0,0.0,0.0,0.0,0.0,0.0,0.0,0.0,0.0,0.0,0.0,0.0,0.0,0.0,0.0,0.0,0.0,0.0,0.0,0.0,0.0,0.0,0.0,0.0,0.0,0.0,0.0,0.0,0.0,0.0,0.0,0.8477,0.9811,0.0,0.9062,0.9641,0.993,0.9456,0.9097,0.779,0.5229,0.4061,0.2338,0.0086,0.0,0.0,0.0,0.0,0.0,0.0,0.0,0.0,0.0,0.0,0.0,0.0,0.0,0.0,0.0,0.0,-0.0291,-0.0757,-0.0795,-0.109,-0.1751,-0.2759,-0.4253,-0.5982,0.0,0.0,0.0,0.0,0.0,0.0,0.0,0.0,0.0,0.0,0.0,1.1106,1.2264,1.5514,1.7867,1.858,1.9894,1.9533,1.6762,1.4789,1.2545,0.9929,0.9106,1.065,1.4845,1.7114,1.955,2.2151,2.3541,2.4462,2.493,2.493,2.4983,2.5077,2.4983,2.477,2.4449,2.3754,2.196,1.9475,1.887,1.6646,1.3462,0.0,0.0,0.0,0.0,0.0,0.0,0.0,0.0,0.0,0.0,0.0,0.0,0.0,0.0,0.0,0.0,0.0,0.0,0.0,0.0,0.0,0.0,0.0,0.0,0.0,0.0,0.0,0.0,0.0,0.0,0.0,0.0,0.0,0.0,0.0,0.9819,0.912,1.0767,1.146,1.0281,1.1052,1.1682,1.1682,1.1276,0.9662,0.6643,0.5402,0.3317,0.0089,0.0,0.0,0.0,0.0,0.0,0.0,0.0,0.0,0.0,0.0,0.0,0.0,0.0,0.0,0.0,0.0,0.0,0.0,0.0,0.0,-0.013,-0.1239,-0.2788,-0.4625,0.0,0.0,0.0,0.0,0.0,0.0,0.0,0.0,0.0,0.0,1.1103,1.3331,1.5647,1.7978,1.9805,2.0628,2.0681,1.9003,1.4945,1.4072,1.1887,0.7888,0.9879,1.3324,1.8008,1.9169,2.1205,2.4222,2.481,2.5237,2.5531,2.5518,2.5358,2.5104,2.5384,2.5344,2.5104,2.5398,2.4195,2.207,2.1344,1.9976,1.7815,0.0,0.0,0.0,0.0,0.0,0.0,0.0,0.0,0.0,0.0,0.0,0.0,0.0,0.0,0.0,0.0,0.0,0.0,0.0,0.0,0.0,0.0,0.0,0.0,0.0,0.0,0.0,0.0,0.0,0.0,0.0,0.0,0.0,0.8108,0.9594,1.0466,0.959,1.1709,1.2755,1.1428,1.2463,1.3207,1.32,1.3523,1.1738,0.7121,0.6931,0.4829,0.018,0.0,0.0,0.0,0.0,0.0,0.0,0.0,0.0,0.0,0.0,0.0,0.0,0.0,0.0,0.0,0.0,0.0,0.0,0.0,0.0,0.0,0.0,-0.121,-0.3274,0.0,0.0,0.0,0.0,0.0,0.0,0.0,0.0,0.0,0.0,1.1277,1.3572,1.5923,1.8442,2.0347,2.1293,2.0922,1.9698,1.728,1.4907,1.2598,1.0308,1.3476,1.6426,1.885,2.1101,2.303,2.4516,2.5104,2.5545,2.5825,2.5611,2.5464,2.5398,2.5478,2.5344,2.5117,2.5625,2.5331,2.4422,2.3169,2.1201,1.8749,0.0,0.0,0.0,0.0,0.0,0.0,0.0,0.0,0.0,0.0,0.0,0.0,0.0,0.0,0.0,0.0,0.0,0.0,0.0,0.0,0.0,0.0,0.0,0.0,0.0,0.0,0.0,0.0,0.0,0.0,0.0,0.0,1.0184,0.9679,1.1038,1.2079,1.2272,1.3238,1.3743,1.3372,1.3718,1.3946,1.3831,1.2457,1.0195,0.7204,0.5444,0.3134,0.009,0.0,0.0,0.0,0.0,0.0,0.0,0.0,0.0,0.0,0.0,0.0,0.0,0.0,0.0,0.0,0.0,0.0,0.0,0.0,0.0,0.0,0.0,-0.1947,-0.4942,0.0,0.0,0.0,0.0,0.0,0.0,0.0,0.0,0.0,0.0,1.1704,1.4059,1.6746,1.8821,2.0254,2.0775,1.9842,1.837,1.6331,1.388,1.2812,1.3667,1.6239,1.8655,2.0841,2.2815,2.4302,2.5184,2.5651,2.5972,2.6132,2.5959,2.5745,2.5518,2.5772,2.5651,2.5304,2.5892,2.6039,2.5798,2.4823,2.3327,2.1505,1.9658,1.803,1.6686,1.5623,1.5175,1.491,1.3612,0.0,0.0,0.0,0.0,0.0,0.0,0.0,0.0,0.0,0.0,0.0,0.0,0.0,0.0,0.0,0.0,0.0,0.0,0.0,0.0,0.0,0.0,0.0,0.0,1.0548,1.1365,1.1521,1.2276,1.3051,1.3532,1.3933,1.4163,1.4163,1.4245,1.4265,1.4177,1.2997,1.0717,0.7324,0.5811,0.349,0.009,0.0,0.0,0.0,0.0,0.0,0.0,0.0,0.0,0.0,0.0,0.0,0.0,0.0,0.0,0.0,0.0,0.0,0.0,0.0,0.0,0.0,0.0,-0.2861,-0.5492,0.0,0.0,0.0,0.0,0.0,0.0,0.0,0.0,0.0,0.0,0.0,1.4344,1.7542,1.8931,1.9639,1.9746,1.8083,1.6045,1.372,1.2238,1.3245,1.7219,1.8409,2.0399,2.3363,2.4329,2.5197,2.6052,2.6279,2.6413,2.644,2.64,2.6092,2.5585,2.6146,2.6079,2.5598,2.6159,2.6386,2.6373,2.6106,2.5611,2.4674,2.166,2.0367,1.9964,1.7723,1.6597,1.6121,1.5818,0.0,0.0,0.0,0.0,0.0,0.0,0.0,0.0,0.0,0.0,0.0,0.0,0.0,0.0,0.0,0.0,0.0,0.0,0.0,0.0,0.0,0.0,0.0,0.0,1.1435,1.242,1.3146,1.3397,1.36,1.3865,1.4136,1.4299,1.4299,1.4299,1.4299,1.4299,1.4033,1.2059,0.7773,0.0,0.0,0.0,0.0,0.0,0.0,0.0,0.0,0.0,0.0,0.0,0.0,0.0,0.0,0.0,0.0,0.0,0.0,0.0,0.0,0.0,0.0,0.0,-0.0205,-0.1661,-0.3415,0.0,0.0,0.0,0.0,0.0,0.0,0.0,0.0,0.0,0.0,1.037,1.1527,1.3353,1.695,1.7956,1.8677,1.9386,1.7439,1.5535,1.4013,1.4564,1.6014,1.8443,2.0786,2.2773,2.4283,2.5251,2.6012,2.6653,2.648,2.6507,2.6734,2.6493,2.6199,2.5892,2.6239,2.6199,2.5892,2.6239,2.6386,2.6386,2.6333,2.5665,2.4576,2.372,2.2819,2.1818,2.089,2.0631,2.0412,1.836,1.7743,1.7588,1.5886,1.4713,0.0,0.0,0.0,0.0,0.0,0.0,0.0,0.0,0.0,0.0,0.0,0.0,0.0,0.0,0.0,0.0,0.0,0.0,0.0,1.0894,1.2045,1.3003,1.3627,1.3953,1.415,1.4204,1.4265,1.4299,1.4299,1.4299,1.4299,1.4299,1.2503,1.0984,1.0091,0.6347,0.0,0.2919,0.0974,0.0,0.0,0.0,0.0,0.0,0.0,0.0,0.0,0.0,0.0,0.0,0.0,0.0,0.0,0.0,0.0,0.0,0.0,0.0,-0.0067,-0.0331,-0.2432,-0.5096,0.0,0.0,0.0,0.0,0.0,0.0,0.0,0.0,0.0,0.0,0.9729,1.123,1.3768,1.4585,1.5105,1.5683,1.4752,1.4037,1.3876,1.4658,1.6286,1.8824,2.0848,2.2325,2.3292,2.5098,2.6172,2.66,2.6466,2.6466,2.66,2.6453,2.6239,2.605,2.6266,2.6306,2.6186,2.6333,2.6466,2.66,2.6453,2.5865,2.5064,2.4917,2.4302,2.3474,2.3033,2.2686,2.2218,2.0812,2.0142,1.9658,1.8416,1.7143,1.5802,0.0,0.0,0.0,0.0,0.0,0.0,0.0,0.0,0.0,0.0,0.0,0.0,0.0,0.0,0.9093,0.0,0.0,1.0951,1.1823,1.266,1.3336,1.3777,1.4109,1.4299,1.4299,1.4299,1.4299,1.4299,1.4299,1.4299,1.4299,1.3224,1.1965,1.0717,0.7289,0.4781,0.3612,0.1229,0.0,0.0,0.0,0.0,0.0,0.0,0.0,0.0,0.0,0.0,0.0,0.0,0.0,0.0,0.0,0.0,0.0,0.0,0.0,-0.0133,-0.0909,-0.2317,-0.3909,0.0,0.0,0.0,0.0,0.0,0.0,0.0,0.0,0.0,0.0,0.7955,0.9076,1.0578,1.1194,1.1425,0.0,1.1933,1.2575,1.3119,1.3984,1.5759,1.853,1.9849,2.0791,2.1425,2.3667,2.5137,2.5818,2.5356,2.5356,2.5818,2.5356,2.5043,2.4852,2.5529,2.5818,2.5897,2.6308,2.6613,2.68,2.6507,2.6106,2.5665,2.5491,2.5064,2.4502,2.4155,2.346,2.2659,2.2418,2.175,2.0962,2.0601,1.9486,1.7815,1.5387,1.4878,0.0,0.0,0.0,0.0,0.0,0.0,0.0,0.0,0.8632,0.8545,0.9148,0.9583,1.0022,1.0633,1.1122,1.177,1.2545,1.3132,1.3539,1.3804,1.4082,1.4258,1.4258,1.4285,1.4299,1.4299,1.4299,1.4299,1.4299,1.4299,1.3489,1.1522,0.9123,0.6693,0.4389,0.1918,0.0431,0.0,0.0,0.0,0.0,0.0,0.0,0.0,0.0,0.0,0.0,0.0,0.0,0.0,0.0,0.0,0.0,0.0,0.0,-0.0196,-0.1533,-0.2214,-0.2713,0.0,0.0,0.0,0.0,0.0,0.0,0.0,0.0,0.0,0.0,0.0,0.0,0.0,0.0,0.0,0.8497,1.0681,1.1827,1.1196,1.3422,1.5539,1.7315,1.832,1.9094,1.9501,2.0203,2.168,2.3899,2.1713,2.1713,2.3887,2.1621,2.0625,2.0684,2.2878,2.3899,2.4061,2.5944,2.6787,2.68,2.6507,2.6346,2.6213,2.5424,2.477,2.4182,2.3621,2.2846,2.2071,2.2044,2.1456,2.0802,2.132,2.0753,1.9348,1.6345,1.4805,1.3357,1.0116,0.9019,0.8859,0.9354,0.9052,0.8978,0.0,1.03,1.0207,1.0967,1.1295,1.1529,1.1649,1.2026,1.2397,1.2691,1.322,1.3661,1.3817,1.3987,1.4095,1.4095,1.4217,1.4299,1.4299,1.4299,1.4299,1.4299,1.4299,1.421,1.3938,1.1599,0.9193,0.6765,0.442,0.2139,0.0,0.0,0.0,0.0,0.0,0.0,0.0,0.0,0.0,0.0,0.0,0.0,0.0,0.0,0.0,0.0,0.0,0.0,0.0,-0.0193,-0.1222,-0.2556,0.0,0.0,0.0,0.0,0.0,0.0,0.0,0.0,0.0,0.0,0.0,0.0,0.0,0.0,0.0,0.6284,0.8823,1.0543,1.077,1.2279,1.3798,1.5259,1.6186,1.6823,1.7239,1.8818,2.011,2.117,2.0199,2.0199,2.117,2.0175,1.9795,1.9805,2.092,2.1508,2.1791,2.3767,2.4783,2.4976,2.5832,2.5932,2.5545,2.4836,2.3875,2.2817,2.1939,2.1245,0.0,2.0221,1.9762,1.9458,1.9499,1.9231,1.8133,1.4572,1.3966,1.3835,1.1287,0.9624,0.8761,0.9268,0.9455,0.9787,1.0484,1.0688,1.0892,1.1615,1.2013,1.2277,1.2454,1.2712,1.2942,0.0,1.3478,1.3743,1.3722,1.3844,1.3871,1.3702,1.3736,1.3878,1.4143,1.4163,1.4204,1.4292,1.4299,1.4299,1.4299,1.1916,1.0125,0.9085,0.5442,0.3015,0.1983,0.0653,0.0,0.0,0.0,0.0,0.0,0.0,0.0,0.0,0.0,0.0,0.0,0.0,0.0,0.0,0.0,0.0,0.0,0.0,-0.0444,-0.1065,0.0,0.0,0.0,0.0,0.0,0.0,0.0,0.0,0.0,0.0,0.0,0.0,0.0,0.0,0.4786,0.4786,0.6932,0.8669,0.97,1.0663,1.1752,1.3062,1.3922,1.4473,1.4789,1.6578,1.7811,1.8436,1.7955,1.7983,1.8524,1.8055,1.7839,1.7904,1.8756,1.9212,1.9561,2.1524,2.274,2.3537,2.4551,2.47,2.4178,2.3805,2.2392,2.0457,2.0132,1.953,1.8764,1.7937,1.753,1.7256,1.7279,1.7185,1.6495,1.3089,1.2425,1.2488,1.097,0.9703,0.8934,0.9452,1.0084,1.0688,1.0912,1.1188,1.1563,1.2182,1.2447,1.2698,1.2922,1.3044,1.3166,1.3315,1.3553,1.3682,1.358,1.362,1.3559,1.3308,1.3207,1.3315,1.3729,1.3912,1.4068,1.4224,1.4238,1.4238,1.4238,1.2409,1.1138,1.0506,0.6466,0.4049,0.3367,0.1126,0.0,0.0,0.0,0.0,0.0,0.0,0.0,0.0,0.0,0.0,0.0,0.0,0.0,0.0,0.0,0.0,0.0,0.0,0.0,0.0,0.0,0.0,0.0,0.0,0.0,0.0,0.0,0.0,0.0,0.0,0.0,0.0,0.0,0.0,0.43,0.43,0.5115,0.6051,0.7142,0.8343,0.952,1.077,1.1514,1.1985,1.2216,1.2663,1.3975,1.613,1.4139,1.4221,1.6256,1.4149,1.3279,1.3499,1.5934,1.7087,1.7342,1.9488,2.1416,2.3105,2.26,2.2312,2.2152,2.2384,2.0092,1.6937,1.8569,1.808,1.6449,1.5456,1.4745,1.4331,1.4908,1.5276,1.5063,1.2842,1.0143,0.7885,0.8026,0.8283,0.8815,1.012,1.1038,1.1708,1.2149,1.2481,1.2613,1.2705,1.2834,1.2949,1.3043,1.2963,1.3017,1.3159,1.3308,1.341,1.341,1.3281,1.3139,1.299,1.2712,1.2651,0.0,1.3512,1.3912,1.4068,1.4082,1.4082,1.4082,1.384,1.2655,1.0397,0.8001,0.5719,0.3408,0.1112,0.0,0.0,0.0,0.0,0.0,0.0,0.0,0.0,0.0,0.0,0.0,0.0,0.0,0.0,0.0,0.0,0.0,0.0,0.0,0.0,0.0,0.0,0.0,0.0,0.0,0.0,0.0,0.0,0.0,0.0,0.0,0.0,0.0,0.0,0.0,0.0,0.4505,0.5279,0.623,0.7402,0.8524,0.9587,1.0452,1.1104,1.1457,1.1714,1.23,1.3237,1.2559,1.2636,1.3497,1.2846,1.2542,1.2674,1.3627,1.4171,1.4303,1.6647,1.7854,1.8495,1.944,1.9658,1.9166,1.8216,1.6817,1.5247,0.0,1.3632,1.3372,1.2293,1.1992,1.202,1.1727,1.1841,1.1695,0.9747,0.8559,0.7968,0.8462,0.9106,0.9901,1.0829,1.1581,1.2128,1.2372,1.2583,1.2732,1.2732,1.23,1.194,1.204,1.1901,1.1874,1.2212,1.2795,1.3112,1.3112,1.3234,1.3125,1.2583,1.2508,0.0,0.0,0.0,0.0,1.3743,1.3682,1.3709,1.3905,1.3682,1.3191,1.238,0.8616,0.6271,0.5463,0.1796,0.0,0.0,0.0,0.0,0.0,0.0,0.0,0.0,0.0,0.0,0.0,0.0,0.0,0.0,0.0,0.0,0.0,0.0,0.0,0.0,0.0,0.0,0.0,0.0,0.0,0.0,0.0,0.0,0.0,0.0,0.0,0.0,0.0,0.0,0.0,0.0,0.0,0.4534,0.541,0.6246,0.7154,0.8043,0.886,0.9324,0.9592,0.9845,0.9967,0.9998,1.062,1.0979,1.1006,1.1677,1.1999,1.206,1.2305,1.244,1.2572,1.4129,1.4794,1.5017,1.6158,1.6173,1.5364,1.4738,1.3508,0.0,1.097,1.0375,0.9997,0.9552,0.9598,0.9753,0.9087,0.9065,0.9123,0.8119,0.7924,0.8264,0.9224,0.9965,1.0688,1.1655,1.2203,1.2569,1.2712,1.2779,1.2766,1.2603,1.1956,1.1317,1.1237,1.1071,1.0928,1.0933,1.1635,1.2259,1.2364,1.2549,1.2568,1.2406,1.24,1.2413,0.0,0.0,0.0,1.3424,1.3478,1.3539,1.3675,1.3451,1.3322,1.3322,0.9572,0.7166,0.6492,0.2851,0.0685,0.0,0.0,0.0,0.0,0.0,0.0,0.0,0.0,0.0,0.0,0.0,0.0,0.0,0.0,0.0,0.0,0.0,0.0,0.0,0.0,0.0,0.0,0.0,0.0,0.0,0.0,0.0,0.0,0.0,0.0,0.0,0.0,0.0,0.0,0.0,0.0,0.0,0.4588,0.4969,0.5459,0.6123,0.6664,0.6786,0.6569,0.7062,0.7114,0.6593,0.8317,0.9069,0.8897,1.0408,1.1164,1.1317,1.1457,1.1597,1.1885,1.1891,1.2194,1.2702,1.283,1.1999,1.0934,1.2065,1.0328,0.7562,0.9048,0.8312,0.6697,0.7334,0.7553,0.7497,0.7169,0.7235,0.7494,0.8082,0.8213,0.8545,1.0105,1.0677,1.1097,1.2407,1.2854,1.299,1.3112,1.3024,1.2786,1.2338,1.1682,1.1017,0.0,0.0,1.0178,0.949,1.0156,1.0896,1.1283,1.1401,1.1694,0.0,0.0,0.0,0.0,0.0,0.0,1.3119,0.0,1.3526,1.3397,1.3247,1.3159,1.3152,1.073,0.843,0.6484,0.3971,0.1802,0.0,0.0,0.0,0.0,0.0,0.0,0.0,0.0,0.0,0.0,0.0,0.0,0.0,0.0,0.0,0.0,0.0,0.0,0.0,0.0,0.0,0.0,0.0,0.0,0.0,0.0,0.0,0.0,0.0,0.0,0.0,0.0,0.0,0.0,0.0,0.0,0.0,0.3821,0.4348,0.4586,0.4491,0.5141,0.5367,0.5009,0.5111,0.5254,0.538,0.5823,0.606,0.608,0.6421,0.6836,0.7262,0.7428,0.7822,0.8454,0.8618,0.8787,0.8956,0.9115,0.8913,0.8538,0.8294,0.7777,0.7221,0.6995,0.6706,0.6541,0.7014,0.7223,0.7408,0.7931,0.8258,0.8476,0.8706,0.9312,1.0031,1.0804,1.155,1.2143,1.28,1.2935,1.2908,1.2718,1.2474,1.2087,1.1055,1.0147,0.9329,0.8596,0.8787,0.0,0.9404,1.0779,0.0,1.2156,1.2608,0.0,1.2854,1.2908,1.2922,1.2854,1.2908,0.0,0.0,1.2983,1.3037,1.322,1.3091,1.2963,1.2847,1.0474,0.8324,0.6403,0.2642,0.052,0.0,0.0,0.0,0.0,0.0,0.0,0.0,0.0,0.0,0.0,0.0,0.0,0.0,0.0,0.0,0.0,0.0,0.0,0.0,0.0,0.0,0.0,0.0,0.0,0.0,0.0,0.0,0.0,0.0,0.0,0.0,0.0,0.0,0.0,0.0,0.0,0.0,0.0,0.3392,0.3309,0.3014,0.3268,0.3191,0.2657,0.2709,0.2787,0.274,0.3465,0.3769,0.3737,0.4393,0.484,0.5126,0.532,0.5847,0.6589,0.6709,0.6687,0.0,0.0,0.6589,0.6109,0.5875,0.5959,0.6216,0.5941,0.6177,0.675,0.715,0.7365,0.764,0.827,0.8763,0.9142,0.9528,1.0225,1.1031,1.1817,1.2464,1.2956,1.3193,1.3152,1.2862,1.2114,1.1671,1.1134,0.9944,0.8999,0.8214,0.759,0.8051,0.8511,0.0,0.0,0.0,1.1759,1.2251,1.2715,0.0,1.3186,0.0,1.3159,1.3227,1.3241,0.0,1.3071,1.3044,1.3078,1.3003,1.2861,1.2637,1.1256,0.9036,0.6122,0.2896,0.0881,0.0,0.0,0.0,0.0,0.0,0.0,0.0,0.0,0.0,0.0,0.0,0.0,0.0,0.0,0.0,0.0,0.0,0.0,0.0,0.0,0.0,0.0,0.0,0.0,0.0,0.0,0.0,0.0,0.0,0.0,0.0,0.0,0.0,0.0,0.0,0.0,0.0,0.0,0.0,0.0,0.166,0.1391,0.0941,0.0179,0.0314,0.0224,-0.0179,0.1199,0.1785,0.1645,0.2914,0.358,0.3647,0.3819,0.4309,0.5115,0.5173,0.505,0.4701,0.5162,0.4901,0.4257,0.0,0.4876,0.5132,0.5503,0.616,0.6915,0.7432,0.7855,0.8216,0.8654,0.9199,0.9869,1.0555,1.1134,1.1788,1.282,1.322,1.3464,1.3593,1.337,1.2795,1.1517,1.0877,1.011,0.8812,0.807,0.7496,0.7041,0.7645,0.7999,0.7383,0.0,1.028,1.0948,1.1418,1.2086,1.3119,1.3322,1.341,1.3431,1.341,1.339,1.337,1.3356,1.322,1.2942,1.2908,1.2752,1.242,1.1956,0.9871,0.6187,0.4014,0.2034,0.0363,0.0142,0.0,0.0,0.0,0.0,0.0,0.0,0.0,0.0,0.0,0.0,0.0,0.0,0.0,0.0,0.0,0.0,0.0,0.0,0.0,0.0,0.0,0.0,0.0,0.0,0.0,0.0,0.0,0.0,0.0,0.0,0.0,0.0,0.0,0.0,0.0,0.0,0.0,0.0,0.0,0.0672,0.0045,-0.1077,-0.1077,-0.1077,-0.1166,-0.0864,-0.0785,-0.0893,-0.0631,-0.0298,0.0101,0.0103,0.057,0.1401,0.2022,0.2422,0.2609,0.3542,0.4027,0.4254,0.4527,0.0,0.0,0.4993,0.5435,0.6238,0.7414,0.8518,0.9586,1.047,1.0994,1.151,1.2025,1.2192,1.2444,1.3152,1.3451,1.3593,1.362,1.3214,1.2494,1.1232,1.0372,0.9342,0.7758,0.715,0.6785,0.6236,0.6793,0.7524,0.8178,0.9303,1.0582,1.171,1.2181,1.2579,0.0,1.3383,1.3451,1.3573,1.3478,0.0,0.0,0.0,0.0,1.2779,1.2651,1.2386,1.1959,1.0288,0.8971,0.8021,0.4627,0.2662,0.2184,0.0695,0.0,0.0,0.0,0.0,0.0,0.0,0.0,0.0,0.0,0.0,0.0,0.0,0.0,0.0,0.0,0.0,0.0,0.0,0.0,0.0,0.0,0.0,0.0,0.0,0.0,0.0,0.0,0.0,0.0,0.0,0.0,0.0,0.0,0.0,0.0,0.0,0.0,0.0,0.0,0.0,0.0,0.0,-0.1451,-0.1459,-0.1459,0.0,-0.1513,-0.1528,-0.156,-0.1433,-0.1196,-0.1208,-0.0757,0.005,0.0858,0.1512,0.2068,0.3027,0.3653,0.0,0.0,0.0,0.0,0.4904,0.5408,0.6173,0.694,0.8368,0.9977,1.102,1.1694,1.2237,1.2535,1.2732,1.2949,1.3397,1.3627,1.3722,1.3648,1.3119,1.2223,1.0602,0.9588,0.8486,0.6756,0.6284,0.6153,0.6129,0.6775,0.7521,0.8193,0.927,1.0299,1.1226,1.1777,1.2291,1.2969,1.3261,1.3458,1.3614,1.3492,0.0,0.0,0.0,0.0,1.2617,1.2318,1.202,1.1728,1.0686,0.9612,0.8378,0.5672,0.3738,0.27,0.0896,0.0,0.0,0.0,0.0,0.0,0.0,0.0,0.0,0.0,0.0,0.0,0.0,0.0,0.0,0.0,0.0,0.0,0.0,0.0,0.0,0.0,0.0,0.0,0.0,0.0,0.0,0.0,0.0,0.0,0.0,0.0,0.0,0.0,0.0,0.0,0.0,0.0,0.0,0.0,0.0,0.0,0.0,0.0,0.0,0.0,-0.1538,0.0,0.0,0.0,0.0,0.0,0.0,-0.1263,-0.0606,0.0404,0.1159,0.0,0.0,0.0,0.0,0.0,0.0,0.0,0.0,0.5409,0.6053,0.6515,0.7807,0.9365,1.0425,1.1365,1.2116,1.2373,1.2615,1.2916,1.3428,1.3709,1.3763,1.3614,1.3017,1.1993,1.0099,0.8957,0.7812,0.6129,0.5692,0.5701,0.6149,0.6774,0.7357,0.7992,0.8779,0.9684,1.0551,1.11,1.1763,1.2549,1.303,0.0,1.3471,1.3376,0.0,0.0,0.0,0.0,0.0,1.1993,1.1721,1.1572,1.1423,1.0563,0.8894,0.7083,0.5178,0.3275,0.1434,0.0408,0.0,0.0,0.0,0.0,0.0,0.0,0.0,0.0,0.0,0.0,0.0,0.0,0.0,0.0,0.0,0.0,0.0,0.0,0.0,0.0,0.0,0.0,0.0,0.0,0.0,0.0,0.0,0.0,0.0,0.0,0.0,0.0,0.0,0.0,0.0,0.0,0.0,0.0,0.0,0.0,0.0,0.0,0.0,0.0,0.0,0.0,0.0,0.0,0.0,0.0,0.0,0.0,0.0,0.0151,0.0,0.0,0.0,0.0,0.0,0.0,0.0,0.0,0.0,0.5161,0.5322,0.6266,0.6886,0.7387,0.8312,0.9587,1.0875,1.1288,1.1473,1.1772,1.3231,1.3641,1.3614,1.3458,1.2861,1.1773,0.9899,0.8701,0.7622,0.6103,0.5643,0.5607,0.6053,0.6196,0.662,0.7728,0.8016,0.8677,1.0315,1.0803,1.128,1.2257,0.0,0.0,1.3024,0.0,0.0,0.0,0.0,0.0,0.0,1.1728,1.1565,1.1416,1.126,1.1042,1.0629,0.8905,0.7075,0.5104,0.3293,0.1615,0.0,0.0,0.0,0.0,0.0,0.0,0.0,0.0,0.0,0.0,0.0,0.0,0.0,0.0,0.0,0.0,0.0,0.0,0.0,0.0,0.0,0.0,0.0,0.0,0.0,0.0,0.0,0.0,0.0,0.0,0.0,0.0,0.0,0.0,0.0,0.0,0.0,0.0,0.0,0.0,0.0,0.0,0.0,0.0,0.0,0.0,0.0,0.0,0.0,0.0,0.0,0.0,0.0,0.0,0.0,0.0,0.0,0.0,0.0,0.0,0.0,0.0,0.0,0.0,0.5206,0.5643,0.6246,0.6798,0.6517,0.7281,0.8645,1.0251,1.0938,1.1524,1.2755,1.3288,1.3437,1.3193,1.2265,1.1049,0.9579,0.8183,0.6985,0.5823,0.5631,0.5795,0.6178,0.6431,0.6851,0.7671,0.7768,0.8156,0.9224,0.9715,1.0337,1.1471,1.1965,0.0,0.0,0.0,0.0,0.0,0.0,0.0,0.0,1.1375,1.1274,1.1131,1.1063,1.0962,1.0812,0.8979,0.7742,0.6965,0.4091,0.235,0.1612,0.0467,0.0,0.0,0.0,0.0,0.0,0.0,0.0,0.0,0.0,0.0,0.0,0.0,0.0,0.0,0.0,0.0,0.0,0.0,0.0,0.0,0.0,0.0,0.0,0.0,0.0,0.0,0.0,0.0,0.0,0.0,0.0,0.0,0.0,0.0,0.0,0.0,0.0,0.0,0.0,0.0,0.0,-0.1539,0.0,0.0,0.0,0.0,0.0,0.0,0.0,0.0,0.0,0.0,0.0,0.0,0.0,0.0,0.0,0.0,0.0,0.0,0.0,0.0,0.0,0.0,0.0,0.6168,0.5456,0.5795,0.6777,0.8762,0.9938,1.0798,1.1821,1.2601,1.3078,1.2827,1.1743,1.0435,0.9422,0.7901,0.6577,0.5886,0.5721,0.5846,0.6365,0.6606,0.6898,0.7503,0.7597,0.7827,0.8436,0.8951,0.9518,1.0474,0.0,0.0,0.0,0.0,0.0,0.0,0.0,0.0,0.0,0.0,1.1009,1.088,1.084,1.0826,1.0724,0.9437,0.8501,0.7964,0.5492,0.3689,0.2684,0.139,0.0526,0.0,0.0,0.0,0.0,0.0,0.0,0.0,0.0,0.0,0.0,0.0,0.0,0.0,0.0,0.0,0.0,0.0,0.0,0.0,0.0,0.0,0.0,0.0,0.0,0.0,0.0,0.0,0.0,0.0,0.0,0.0,0.0,0.0,0.0,0.0,0.0,0.0,0.0,0.0,0.0,-0.162,-0.1602,-0.1617,0.0,0.0,0.0,0.0,0.0,0.0,0.0,0.0,0.0,0.0,0.0,0.0,0.0,0.0,0.0,0.0,0.0,0.0,0.0,0.0,0.0,0.0,0.0,0.5382,0.5608,0.671,0.8018,0.9331,1.0429,1.1612,1.2474,1.2332,1.1299,1.0135,0.9448,0.7973,0.6672,0.6446,0.589,0.5661,0.6548,0.6497,0.6532,0.7209,0.7437,0.7718,0.8337,0.8759,0.9115,0.0,0.0,0.0,0.0,0.0,0.0,0.0,0.0,0.0,0.0,0.0,1.0792,1.0873,1.0799,1.0724,1.0717,1.0651,0.9775,0.803,0.7964,0.6093,0.2684,0.2712,0.0,0.0,0.0,0.0,0.0,0.0,0.0,0.0,0.0,0.0,0.0,0.0,0.0,0.0,0.0,0.0,0.0,0.0,0.0,0.0,0.0,0.0,0.0,0.0,0.0,0.0,0.0,0.0,0.0,0.0,0.0,0.0,0.0,0.0,0.0,0.0,0.0,0.0,0.0,0.0,0.0,-0.154,-0.1592,-0.1617,-0.1617,-0.1768,0.0,0.0,0.0,0.0,0.0,0.0,0.0,0.0,0.0,0.0,0.0,0.0,0.0,0.0,0.0,0.0,0.0,0.0,0.0,0.0,0.0,0.0,0.0,0.5687,0.6762,0.8039,0.9062,0.9751,1.0195,0.9992,0.9188,0.8237,0.7796,0.6717,0.5926,0.5998,0.6014,0.6163,0.6604,0.6826,0.6974,0.7261,0.7309,0.7448,0.0,0.0,0.0,0.9472,1.0607,0.0,0.0,0.0,0.0,0.0,0.0,0.0,0.0,0.0,1.0744,1.0792,1.0744,1.0717,1.0717,1.0717,1.0386,0.9842,0.8486,0.667,0.4556,0.0,0.0,0.0,0.0,0.0,0.0,0.0494,0.0,0.0,0.0,0.0,0.0,0.0,0.0,0.0,0.0,0.0,0.0,0.0,0.0,0.0,0.0,0.0,0.0,0.0,0.0,0.0,0.0,0.0,0.0,0.0,0.0,0.0,0.0,0.0,0.0,0.0,0.0,0.0,0.0,-0.1483,-0.1515,-0.1478,-0.1576,-0.1606,-0.1617,-0.1768,-0.1768,-0.1617,0.0,0.0,0.0,0.0,0.0,0.0,0.0,0.0,0.4627,0.0,0.0,0.0,0.0,0.0,0.0,0.0,0.0,0.0,0.0,0.0,0.0,0.0,0.5808,0.6727,0.7728,0.8474,0.8944,0.893,0.8172,0.747,0.7441,0.6599,0.5895,0.6279,0.6325,0.6442,0.6826,0.6932,0.707,0.7258,0.7307,0.7361,0.0,0.0,0.0,0.9389,0.0,0.0,0.0,0.0,0.0,0.0,0.0,0.0,0.0,0.0,1.0697,1.0636,1.069,1.0717,1.0717,1.0663,1.0636,1.0629,0.937,0.7871,0.6243,0.0,0.0,0.0,0.0,0.0,0.0,0.0679,0.0,0.0,0.0,0.0,0.0,0.0,0.0,0.0,0.0,0.0,0.0,0.0,0.0,0.0,0.0,0.0,0.0,0.0,0.0,0.0,0.0,0.0,0.0,0.0,0.0,0.0,0.0,0.0,0.0,0.0,0.0,0.0,0.0,-0.1466,-0.1495,-0.1478,-0.1558,-0.1591,-0.162,-0.162,-0.162,-0.162,-0.1618,0.0,0.0,0.0,0.0,0.0,0.0,0.0,0.0,0.0,0.0,0.0,0.0,0.0,0.0,0.0,0.0,0.0,0.0,0.0,0.0,0.0,0.0,0.0,0.0,0.7521,0.8344,0.8597,0.796,0.7412,0.8016,0.7164,0.0,0.7043,0.6715,0.6492,0.7099,0.6932,0.6826,0.7154,0.7247,0.0,0.0,0.8177,0.0,0.0,0.0,0.0,0.0,0.0,0.0,0.0,0.0,0.0,0.0,0.0,0.0,0.0,1.0616,1.069,1.069,1.0548,1.0473,1.0473,1.0331,0.936,0.762,0.0,0.0,0.0,0.0,0.0,0.0,0.0925,0.0183,0.0181,0.006,0.0,0.0,0.0,0.0,0.0,0.0,0.0,0.0,0.0,0.0,0.0,0.0,0.0,0.0,0.0,0.0,0.0,0.0,0.0,0.0,0.0,0.0,0.0,0.0,0.0,0.0,0.0,0.0,0.0,0.0,-0.1466,-0.1495,-0.1478,-0.158,-0.1622,-0.1651,-0.1651,-0.1651,-0.1651,-0.1628,0.0,0.0,0.0,0.0,0.0,0.0,0.0,0.0,0.0,0.0,0.0,0.5035,0.5047,0.0,0.0,0.0,0.0,0.0,0.0,0.0,0.0,0.5157,0.5256,0.5499,0.0,0.6147,0.6205,0.5978,0.5833,0.0,0.6093,0.6005,0.6695,0.6715,0.6715,0.7099,0.7154,0.7099,0.721,0.0,0.0,0.7594,0.0,0.0,0.0,0.0,0.0,0.0,0.0,0.0,0.0,0.0,0.0,0.0,0.0,0.0,1.0337,1.0365,1.0385,1.0385,1.0344,1.0331,1.0331,1.0175,0.9218,0.0,0.0,0.0,0.0,0.0,0.0,0.0,0.3136,0.194,0.1773,0.0473,0.0,0.0,0.0,0.0,0.0,0.0,0.0,0.0,0.0,0.0,0.0,0.0,0.0,0.0,0.0,0.0,0.0,0.0,0.0,0.0,0.0,0.0,0.0,0.0,0.0,0.0,0.0,0.0,0.0,0.0,-0.1452,-0.1482,-0.1478,-0.1558,-0.1598,-0.1641,-0.1641,-0.1641,-0.164,-0.1624,0.0,0.0,0.0,0.0,0.0,0.3423,0.0,0.0,0.0,0.0,0.0,0.4949,0.4949,0.0,0.5014,0.5047,0.5047,0.0,0.0,0.0,0.0,0.5181,0.528,0.533,0.5305,0.5384,0.5704,0.5698,0.5759,0.6296,0.6349,0.6414,0.6856,0.6932,0.6988,0.7154,0.7276,0.7254,0.7199,0.7326,0.0,0.0,0.0,0.0,0.0,0.0,0.0,0.0,0.0,0.0,0.0,0.0,0.0,0.0,0.0,0.0,0.0,1.0175,1.0209,1.0283,1.0209,1.0175,1.0175,1.0019,0.9445,0.0,0.0,0.0,0.0,0.0,0.0,0.6966,0.4451,0.3028,0.2264,0.1337,0.0573,0.0,0.0,0.0,0.0,0.0,0.0,0.0,0.0,0.0,0.0,0.0,0.0,0.0,0.0,0.0,0.0,0.0,0.0,0.0,0.0,0.0,0.0,0.0,0.0,0.0,0.0,0.0,0.0,-0.1391,-0.1391,-0.1417,-0.1519,-0.1534,-0.1569,-0.1624,-0.1633,-0.1632,-0.1624,-0.162,-0.1566,0.0,0.0,0.0,0.0,0.2822,0.0,0.0,0.0,0.0,0.0,0.0,0.0,0.0,0.4924,0.4949,0.4953,0.5021,0.0,0.0,0.0,0.0,0.0,0.5457,0.5425,0.5515,0.6093,0.6155,0.6275,0.6913,0.6959,0.691,0.7078,0.7172,0.7177,0.7216,0.727,0.7362,0.0,0.0,0.0,0.8592,0.0,0.0,0.0,0.0,0.0,0.0,0.0,0.0,0.0,0.0,0.0,0.0,0.0,0.0,0.0,0.995,1.008,1.0209,1.008,0.995,0.995,0.9863,0.9788,0.9781,0.9639,0.0,0.0,0.0,0.0,0.7148,0.5506,0.4122,0.2921,0.2635,0.1646,0.0336,0.0336,0.0168,0.0,0.0,0.0,0.0,0.0,0.0,0.0,0.0,0.0,0.0,0.0,0.0,0.0,0.0,0.0,0.0,0.0,0.0,0.0,0.0,0.0,0.0,0.0,0.0,0.0,0.0,0.0,-0.1452,-0.1487,-0.1565,-0.1621,-0.1708,-0.1759,-0.1756,-0.1705,-0.1628,-0.1465,-0.1213,-0.0101,0.1019,0.2214,0.3152,0.0,0.0,0.0,0.0,0.0,0.0,0.0,0.0,0.48,0.4855,0.4871,0.4949,0.0,0.0,0.0,0.0,0.0,0.539,0.5793,0.6192,0.5998,0.5993,0.609,0.6429,0.64,0.6401,0.6781,0.6937,0.7089,0.7192,0.7219,0.7265,0.7345,0.0,0.8487,0.0,0.0,0.0,0.0,0.0,0.0,0.0,0.0,0.0,0.0,0.0,0.0,0.0,0.0,0.0,0.0,0.0,0.9869,0.989,0.9869,0.9856,0.9856,0.9707,0.9639,0.9639,0.9483,0.9415,0.0,0.0,0.0,0.891,0.7206,0.6383,0.6057,0.469,0.3231,0.1844,0.1844,0.1064,0.0,0.0,0.0,0.0,0.0,0.0,0.0,0.0,0.0,0.0,0.0,0.0,0.0,0.0,0.0,0.0,0.0,0.0,0.0,0.0,0.0,0.0,0.0,0.0,0.0,0.0,0.0,-0.1475,-0.1505,-0.158,-0.1633,-0.1715,-0.1743,-0.1732,-0.1637,-0.1624,-0.1576,-0.1436,-0.0615,0.0566,0.1965,0.0,0.0,0.0,0.0,0.0,0.0,0.0,0.0,0.0,0.0,0.4784,0.4792,0.4883,0.0,0.0,0.0,0.0,0.0,0.5496,0.5994,0.6479,0.6416,0.6495,0.6695,0.6965,0.6922,0.6861,0.6984,0.7057,0.7133,0.7176,0.7315,0.7588,0.8108,0.0,0.0,0.0,0.0,0.0,0.0,0.0,0.0,0.0,0.0,0.0,0.0,0.0,0.0,0.0,0.0,0.0,0.0,0.0,0.0,0.9707,0.9707,0.9707,0.9707,0.9557,0.949,0.9483,0.9327,0.9316,0.0,0.0,0.9144,0.9087,0.8282,0.7505,0.672,0.5985,0.4778,0.3352,0.2515,0.1287,0.0,0.0,0.0,0.0,0.0,0.0,0.0,0.0,0.0,0.0,0.0,0.0,0.0,0.0,0.0,0.0,0.0,0.0,0.0,0.0,0.0,0.0,0.0,0.0,0.0,0.0,0.0,-0.1493,-0.1516,-0.1591,-0.1647,-0.1735,-0.1721,-0.165,-0.1628,-0.162,-0.1578,-0.1445,-0.098,0.0103,0.1543,0.0,0.0,0.0,0.0,0.0,0.0,0.0,0.0,0.0,0.0,0.0,0.0,0.0,0.0,0.0,0.4784,0.5186,0.5586,0.5586,0.6174,0.6748,0.6776,0.6907,0.7183,0.7533,0.7513,0.7373,0.734,0.7393,0.7387,0.7299,0.7492,0.0,0.8663,0.0,0.0,0.0,0.0,0.0,0.0,0.0,0.0,0.0,0.0,0.0,0.0,0.0,0.0,0.0,0.0,0.0,0.0,0.0,0.0,0.9557,0.9517,0.9517,0.9557,0.9401,0.9327,0.932,0.9171,0.9103,0.9096,0.8988,0.8885,0.8885,0.8885,0.8208,0.7204,0.7204,0.6311,0.4804,0.3296,0.179,0.0504,0.0,0.0,0.0,0.0,0.0,0.0,0.0,0.0,0.0,0.0,0.0,0.0,0.0,0.0,0.0,0.0,0.0,0.0,0.0,0.0,0.0,0.0,0.0,0.0,0.0,-0.1466,-0.1482,-0.1483,-0.1652,-0.174,-0.1797,-0.174,-0.1714,-0.171,-0.1629,-0.1315,-0.0861,-0.081,0.0,0.1212,0.1262,0.0,0.0,0.0,0.0,0.0,0.0,0.0,0.0,0.0,0.0,0.0,0.0,0.0,0.4784,0.4784,0.5186,0.5586,0.5586,0.6326,0.7009,0.6826,0.6743,0.6815,0.7515,0.7481,0.7399,0.7797,0.7932,0.7901,0.7528,0.7716,0.7974,0.8307,0.0,0.0,0.0,0.0,0.0,0.0,0.0,0.0,0.0,0.0,0.0,0.0,0.0,0.0,0.0,0.0,0.0,0.0,0.0,0.0,0.9395,0.9316,0.9316,0.9395,0.9303,0.9228,0.9221,0.9022,0.8898,0.8898,0.8892,0.8885,0.8885,0.8885,0.883,0.8712,0.8712,0.782,0.6366,0.486,0.3352,0.2068,0.0,0.0,0.0,0.0,0.0,0.0,0.0,0.0,0.0,0.0,0.0,0.0,0.0,0.0,0.0,0.0,0.0,0.0,0.0,0.0,0.0,0.0,0.0,-0.1391,-0.1391,-0.1483,-0.1509,-0.1509,-0.1611,-0.1726,-0.1747,-0.1725,-0.1601,-0.1378,-0.1369,-0.1169,-0.0873,-0.066,0.0051,0.0973,0.1114,0.1865,0.0,0.0,0.0,0.0,0.0,0.0,0.0,0.0,0.4784,0.4784,0.4784,0.4784,0.4784,0.4784,0.5186,0.5586,0.5586,0.6223,0.6905,0.6803,0.6782,0.6918,0.7753,0.7855,0.7815,0.7765,0.8058,0.8249,0.7843,0.0,0.8533,0.0,0.0,0.0,0.0,0.0,0.0,0.0,0.0,0.0,0.0,0.0,0.0,0.0,0.0,0.0,0.0,0.0,0.0,0.0,0.0,0.0,0.0,0.9049,0.8954,0.8825,0.8954,0.9022,0.9015,0.8905,0.8885,0.8885,0.8885,0.8885,0.8885,0.8885,0.8885,0.8885,0.8885,0.7932,0.6493,0.6065,0.4827,0.3303,0.0,0.0,0.0,0.0,0.0,0.0,0.0,0.0,0.0,0.0,0.0,0.0,0.0,0.0,0.0,0.0,0.0,0.0,0.0,0.0,0.0,0.0,0.0,-0.1391,-0.1391,-0.1486,-0.1516,-0.1478,-0.1607,-0.1704,-0.1714,0.0,-0.1483,-0.1213,-0.1213,-0.1017,-0.0721,-0.0511,-0.0051,0.0565,0.077,0.1325,0.0,0.0,0.0,0.0,0.0,0.0,0.0,0.0,0.4784,0.4784,0.4784,0.4784,0.4784,0.4784,0.5214,0.5688,0.5688,0.6184,0.6735,0.6834,0.6898,0.7133,0.8017,0.8147,0.8119,0.8208,0.8327,0.8352,0.8131,0.8442,0.0,0.0,0.0,0.0,0.0,0.0,0.0,0.0,0.0,0.0,0.0,0.0,0.0,0.0,0.0,0.0,0.0,0.0,0.0,0.0,0.0,0.0,0.0,0.8798,0.8689,0.8486,0.8696,0.8798,0.8798,0.8845,0.8811,0.8811,0.8865,0.8858,0.8811,0.8811,0.8838,0.8798,0.8798,0.8129,0.7135,0.7219,0.627,0.4762,0.0,0.0,0.0,0.0,0.0,0.0,0.0,0.0,0.0,0.0,0.0,0.0,0.0,0.0,0.0,0.0,0.0,0.0,0.0,0.0,0.0,0.0,0.0,-0.1391,-0.1391,-0.1466,-0.1497,-0.1479,-0.1587,-0.1632,-0.1714,-0.163,-0.1465,-0.1213,-0.1213,-0.091,-0.0405,-0.0412,-0.0257,0.0,0.0,0.0469,0.1263,0.0,0.0,0.0,0.0,0.0,0.0,0.0,0.4784,0.4784,0.4784,0.4784,0.4784,0.4784,0.5268,0.5776,0.5776,0.6214,0.6651,0.6949,0.7054,0.7345,0.8278,0.8318,0.8345,0.9205,0.8805,0.833,0.8465,0.8375,0.0,0.0,0.0,0.0,0.0,0.0,0.0,0.0,0.0,0.0,0.0,0.0,0.0,0.0,0.0,0.0,0.0,0.0,0.0,0.0,0.0,0.0,0.0,0.8479,0.8479,0.8479,0.8479,0.8479,0.8486,0.8635,0.871,0.8716,0.8811,0.8797,0.871,0.871,0.8621,0.8479,0.8479,0.8479,0.8479,0.8479,0.758,0.6321,0.0,0.0,0.0,0.0,0.0,0.0,0.0,0.0,0.0,0.0,0.0,0.0,0.0,0.0,0.0,0.0,0.0,0.0,0.0,0.0,0.0,0.0,0.0,0.0,0.0,0.0,-0.1549,-0.1558,-0.1598,-0.1621,0.0,-0.1418,-0.1162,-0.091,-0.0707,-0.0454,-0.0101,-0.0102,-0.0051,0.0,0.0,0.0153,0.0505,0.0,0.0,0.0,0.0,0.0,0.0,0.0,0.0,0.0,0.4784,0.4784,0.4784,0.4784,0.5214,0.5638,0.5638,0.6333,0.6982,0.6889,0.7264,0.7781,0.8265,0.8288,0.8452,0.9242,0.902,0.865,0.8689,0.8831,0.0,0.0,0.0,0.0,0.0,0.0,0.0,0.0,0.0,0.0,0.0,0.0,0.0,0.0,0.0,0.0,0.0,0.0,0.0,0.0,0.0,0.0,0.0,0.0,0.8282,0.8174,0.8174,0.8282,0.8486,0.8526,0.8554,0.8554,0.8601,0.8587,0.8554,0.8554,0.852,0.8479,0.8479,0.8418,0.8395,0.8445,0.8157,0.758,0.0,0.0,0.0,0.0,0.0,0.0,0.0,0.0,0.0,0.0,-0.0141,-0.0336,0.0,0.0,0.0,0.0,0.0,0.0,0.0,0.0,0.0,0.0,0.0,0.0,0.0,-0.1547,-0.1621,0.0,0.0,0.0,-0.1617,-0.1415,-0.1162,-0.0808,-0.0606,-0.0353,0.0,0.0,0.0,0.0,0.0,0.0051,0.0303,0.0,0.0,0.0,0.0,0.0,0.0,0.0,0.0,0.0,0.4784,0.4784,0.4826,0.4993,0.5327,0.5763,0.6012,0.6579,0.7125,0.7229,0.7636,0.8047,0.8387,0.8624,0.8937,0.9431,0.9225,0.895,0.9003,0.904,0.0,0.0,0.0,0.0,0.0,0.0,0.0,0.0,0.0,0.0,0.0,0.0,0.0,0.0,0.0,0.0,0.0,0.0,0.0,0.0,0.0,0.0,0.0,0.0,0.0,0.7988,0.7988,0.8083,0.8309,0.837,0.8397,0.8397,0.8397,0.8397,0.8391,0.833,0.8309,0.8309,0.8309,0.8255,0.8187,0.8275,0.8255,0.8113,0.0,0.0,0.0,0.0,0.0,0.0,0.0,0.0,0.0,0.0,0.0,-0.0098,0.0,0.0,0.0,0.0,0.0,0.0,0.0,0.0,0.0,0.0,0.0,0.0,0.0,0.0,0.0,0.0,0.0,0.0,-0.1617,-0.1566,-0.1263,-0.0808,-0.0757,-0.0454,0.0,0.0,0.0,0.0,0.0052,0.0208,0.0507,0.1337,0.0,0.0,0.0,0.0,0.0,0.0,0.0,0.0,0.4784,0.4784,0.4868,0.5232,0.5489,0.5805,0.6524,0.672,0.6881,0.7621,0.7776,0.7871,0.8224,0.8894,0.9433,0.966,0.0,0.9262,0.932,0.0,0.0,0.0,0.0,0.0,0.0,0.0,0.0,0.0,0.0,0.0,0.0,0.0,0.0,0.0,0.0,0.0,0.0,0.0,0.0,0.0,0.0,0.0,0.0,0.0,0.0,0.0,0.0,0.7988,0.7995,0.8187,0.8248,0.8248,0.8248,0.8248,0.8241,0.8099,0.7988,0.7988,0.7988,0.7988,0.7988,0.7988,0.7988,0.8008,0.0,0.0,0.0,0.0,0.0,0.0,0.0,0.0,0.0,0.0,0.0,0.0,0.0,0.0,0.0,0.0,0.0,0.0,0.0,0.0,0.0,0.0,0.0,0.0,0.0,0.0,0.0,0.0,0.0,-0.1617,-0.1566,-0.1162,-0.091,-0.0757,-0.0353,-0.0101,0.0,0.0,0.0,0.0,0.0204,0.0359,0.0516,0.1529,0.25,0.0,0.0,0.0,0.0,0.0,0.0,0.0,0.4784,0.4784,0.483,0.4914,0.4658,0.4663,0.5852,0.5277,0.463,0.5804,0.5704,0.5328,0.5527,0.6647,0.7904,0.888,0.9239,0.9273,0.0,0.0,0.0,0.0,0.0,0.0,0.0,0.0,0.0,0.0,0.0,0.0,0.0,0.0,0.0,0.0,0.0,0.0,0.0,0.0,0.0,0.0,0.0,0.0,0.7988,0.7988,0.7988,0.0,0.7988,0.7988,0.7988,0.8022,0.8092,0.8092,0.8092,0.8092,0.8035,0.8002,0.7988,0.7988,0.7988,0.7988,0.7988,0.7988,0.7988,0.8008,0.0,0.0,0.0,0.0,0.0,0.0,0.0,0.0,0.0,0.0,0.0,0.0,0.0,0.0,0.0,0.0,0.0,0.0,0.0,0.0,0.0,0.0,0.0,0.0,0.0,0.0,0.0,0.0,0.0,-0.1516,-0.1415,-0.1112,-0.0858,-0.0606,-0.0303,-0.0101,0.0,0.0,0.0,0.0,0.0153,0.0359,0.0666,0.1228,0.2097,0.3066,0.3035,0.0,0.0,0.0,0.0,0.0,0.0,0.0,0.4826,0.5034,0.4819,0.4707,0.5352,0.4875,0.4288,0.4818,0.4725,0.4535,0.4574,0.5226,0.601,0.6671,0.8109,0.0,0.0,0.0,0.0,0.0,0.0,0.0,0.0,0.0,0.0,0.0,0.0,0.0,0.0,0.0,0.0,0.0,0.0,0.0,0.0,0.0,0.0,0.0,0.0,0.0,0.7988,0.7988,0.7988,0.7988,0.7988,0.7988,0.7988,0.7988,0.7988,0.7988,0.7988,0.7988,0.7988,0.7988,0.7988,0.7988,0.7988,0.7988,0.7988,0.7988,0.7988,0.8002,0.0,0.0,0.0,0.0,0.0,0.0,0.0,0.0,0.0,0.0,0.0,0.0,0.0,0.0,0.0,0.0,0.0,0.0,0.0,0.0,0.0,0.0,0.0,0.0,0.0,0.0,0.0,0.0,-0.1617,-0.1415,-0.1112,-0.1112,-0.0858,-0.0404,-0.0353,-0.0202,0.0,0.0,0.0,0.0,0.0103,0.0412,0.0813,0.093,0.1748,0.2737,0.2271,0.2975,0.4135,0.3629,0.0,0.0,0.0,0.0,0.4468,0.4946,0.4918,0.4732,0.4739,0.4577,0.4253,0.3639,0.3604,0.3716,0.3716,0.3928,0.4192,0.4404,0.6746,0.0,0.0,0.0,0.0,0.0,0.0,0.0,0.0,0.0,0.0,0.0,0.0,0.0,0.0,0.0,0.0,0.0,0.0,0.0,0.0,0.0,0.0,0.0,0.0,0.7988,0.7988,0.7988,0.7988,0.7988,0.7988,0.7988,0.7988,0.7988,0.7988,0.7988,0.7988,0.7988,0.7988,0.7988,0.7988,0.7988,0.7988,0.7988,0.7988,0.7988,0.7988,0.7988,0.0,0.0,0.0,0.0,0.0,0.0,0.0,0.0,0.0,0.0,0.0,-0.0101,0.0,0.0,0.0,0.0,0.0,0.0,0.0,0.0,0.0,0.0,0.0,0.0,0.0,0.0,0.0,0.0,-0.1617,-0.1364,-0.0858,-0.0858,-0.0707,-0.0404,-0.0151,-0.005,0.0,0.0,0.0,0.0051,0.0567,0.083,0.0932,0.1401,0.2125,0.2836,0.2486,0.2773,0.3324,0.3025,0.2823,0.0,0.0,0.0,0.2871,0.3616,0.3332,0.2909,0.3589,0.3248,0.2365,0.0914,0.0572,0.0586,0.0586,0.0,0.2815,0.0,0.0,0.0,0.0,0.0,0.0,0.0,0.0,0.0,0.0,0.0,0.0,0.0,0.0,0.0,0.0,0.0,0.0,0.0,0.0,0.0,0.0,0.0,0.7928,0.7848,0.7921,0.0,0.7988,0.7988,0.7988,0.7988,0.7988,0.7988,0.7988,0.7988,0.7988,0.7988,0.7988,0.7988,0.7988,0.7988,0.7988,0.7988,0.7988,0.7988,0.7988,0.7988,0.7988,0.7988,0.0,0.0,0.0,0.0,0.0,0.0,0.0,0.0,0.0,0.0,0.0,-0.0149,0.0,0.0,0.0,0.0,0.0,0.0,0.0,0.0,0.0,-0.1615,-0.1617,-0.1617,0.0,0.0,0.0,-0.1617,-0.1617,-0.1314,-0.0808,-0.0808,-0.0555,-0.0151,-0.005,0.0,0.0,0.0,0.0101,0.0253,0.0516,0.0718,0.0908,0.1289,0.164,0.1912,0.1765,0.2169,0.2672,0.2269,0.237,0.2672,0.2874,0.0,0.0,0.0,0.2909,0.2589,0.2483,0.1883,0.1089,0.0199,0.0,0.0,0.0,0.0517,0.1136,0.0,0.0,0.0,0.0,0.0,0.0,0.0,0.0,0.0,0.0,0.0,0.0,0.0,0.0,0.0,0.0,0.0,0.0,0.0,0.0,0.0,0.0,0.7875,0.7841,0.7699,0.7834,0.0,0.7794,0.7794,0.7834,0.7916,0.7948,0.7988,0.7988,0.7988,0.7988,0.7988,0.7988,0.7988,0.7988,0.7988,0.7988,0.7988,0.7988,0.7988,0.7988,0.7988,0.7988,0.7988,0.0,0.0,0.0,0.0,0.0,0.0,0.0,0.0,0.0,0.0,0.0,0.0,0.0,0.0,0.0,0.0,0.0,0.0,0.0,0.0,0.0,-0.1615,-0.1617,-0.1617,-0.1617,0.0,0.0,-0.1617,-0.1516,-0.1263,-0.0808,-0.0707,-0.0454,0.0,0.0,0.0,0.0,0.005,0.0202,0.0405,0.0513,0.0658,0.0837,0.1064,0.1104,0.1124,0.1195,0.1554,0.1955,0.1511,0.1765,0.217,0.2118,0.1967,0.0,0.0,0.0,0.2509,0.2057,0.1546,0.1055,0.048,0.0339,0.0293,0.0,0.0,0.0,0.0,0.0,0.0,0.0,0.0,0.0,0.0,0.0,0.0,0.0,0.0,0.0,0.0,0.0,0.0,0.0,0.0,0.0,0.0,0.0,0.0,0.776,0.7794,0.7726,0.755,0.7685,0.7706,0.7604,0.7597,0.7672,0.7814,0.788,0.7955,0.7988,0.7988,0.7988,0.7988,0.7988,0.7988,0.7988,0.7988,0.7988,0.7988,0.7988,0.7988,0.7988,0.7988,0.7988,0.7988,0.0,0.0,0.0,0.0,0.0,0.0,0.0,0.0,0.0,0.0,0.0,0.0,-0.005,-0.0505,-0.0808,-0.0858,-0.1314,0.0,0.0,0.0,0.0,-0.1617,-0.1617,0.0,-0.1617,-0.1617,-0.1617,-0.1617,-0.1364,-0.1061,-0.0808,-0.0555,-0.0252,0.0,0.0,0.0,0.0,0.0252,0.0404,0.0404,0.0759,0.085,0.0785,0.0886,0.0875,0.0862,0.1123,0.1082,0.0887,0.0853,0.0707,0.0606,0.111,0.0757,0.0252,0.0,0.0,0.0,0.2748,0.309,0.2945,0.1646,0.1345,0.1097,0.0,0.0,0.0,0.0,0.0,0.0,0.0,0.0,0.0,0.0,0.0,0.0,0.0,0.0,0.0,0.0,0.0,0.0,0.0,0.0,0.0,0.0,0.0,0.0,0.7624,0.774,0.7678,0.7439,0.7529,0.7604,0.7597,0.7597,0.7672,0.7814,0.7821,0.7896,0.7988,0.7988,0.7988,0.7988,0.7988,0.7988,0.7988,0.7988,0.7988,0.7988,0.7988,0.7988,0.7988,0.7988,0.7988,0.7988,0.0,0.0,0.0,0.0,0.0,0.0,0.0,0.0,0.0,0.0,0.0,0.0,0.0,-0.0404,-0.0707,-0.1011,-0.1415,0.0,0.0,0.0,0.0,-0.1617,-0.1617,-0.1617,-0.1617,-0.1415,-0.1364,-0.1364,-0.1061,-0.0808,-0.0555,-0.0454,-0.0252,0.0,0.0,0.0101,0.0252,0.0353,0.0606,0.0908,0.0847,0.0834,0.082,0.1026,0.0866,0.061,0.1019,0.1129,0.1033,0.0841,0.0,0.0,0.0656,0.0353,0.0202,0.116,0.1699,0.2068,0.2783,0.3035,0.2967,0.252,0.1911,0.1311,0.1092,0.0,0.0,0.0,0.0,0.0,0.0,0.0,0.0,0.0,0.0,0.0,0.0,0.0,0.0,0.0,0.0,0.0,0.0,0.0,0.0,0.0,0.0,0.0,0.7604,0.7556,0.7434,0.7231,0.7373,0.7407,0.726,0.7407,0.7482,0.7529,0.7631,0.7753,0.7896,0.7896,0.7894,0.7988,0.7988,0.7988,0.7988,0.7988,0.7988,0.7988,0.7988,0.7988,0.7988,0.7988,0.7988,0.7988,0.0,0.0,0.0,0.0,0.0,0.0,0.0,0.0,0.0,0.0,0.0,0.0,0.0,0.0,-0.0555,-0.1011,-0.1314,-0.1415,-0.1314,-0.1415,-0.1465,-0.1465,-0.1465,-0.1465,-0.1465,-0.1314,-0.1162,-0.1061,-0.0808,-0.0555,-0.0404,-0.0303,-0.0151,0.0,0.0,0.0151,0.0404,0.0505,0.0808,0.1159,0.0884,0.0872,0.0915,0.0915,0.0761,0.0563,0.0,0.0,0.0,0.0,0.0,0.0,0.035,0.0201,0.0353,0.1412,0.204,0.2584,0.3397,0.3752,0.3832,0.3506,0.2951,0.2352,0.2122,0.0,0.0,0.0,0.0,0.0,0.0,0.0,0.0,0.0,0.0,0.0,0.0,0.0,0.0,0.0,0.0,0.0,0.0,0.0,0.0,0.0,0.0,0.0,0.7529,0.7428,0.7299,0.7098,0.7238,0.7244,0.7098,0.7244,0.7319,0.7419,0.7475,0.7597,0.774,0.774,0.7821,0.7914,0.7914,0.7941,0.7988,0.7988,0.7988,0.7988,0.7988,0.7988,0.7988,0.7988,0.7988,0.7988,0.0,0.0,0.0,0.0,0.0,0.0,0.0,0.0,0.0,0.0,0.0,0.0,0.0,0.0,0.0,-0.0757,-0.1011,-0.1061,-0.0808,-0.1061,-0.1213,-0.1213,0.0,0.0,0.0,-0.1162,-0.1061,-0.0808,-0.0505,-0.0404,-0.0404,-0.0101,0.0,0.0,0.0,0.0151,0.0404,0.0707,0.096,0.1209,0.0921,0.0965,0.1124,0.0611,0.0562,0.0,0.0762,0.0811,0.0,0.0477,0.0,0.0,0.0098,0.0199,0.0656,0.1715,0.2684,0.3652,0.0,0.0,0.0,0.4607,0.0,0.0,0.3282,0.0,0.0,0.0,0.0,0.0,0.0,0.0,0.0,0.0,0.0,0.0,0.0,0.0,0.0,0.0,0.0,0.0,0.0,0.0,0.0,0.0,0.0,0.7529,0.7426,0.7412,0.7292,0.7098,0.7098,0.7098,0.7098,0.7098,0.7217,0.7412,0.7412,0.7448,0.759,0.759,0.7672,0.7807,0.7807,0.7896,0.7982,0.7988,0.7988,0.7988,0.7988,0.7988,0.7988,0.7988,0.7988,0.7988,0.0,0.0,0.0,0.0,0.0,0.0,0.0,0.0,0.0,0.0,0.0,0.0,0.0,-0.0252,-0.0454,-0.0505,-0.0757,-0.0858,-0.0808,-0.0858,-0.091,-0.091,-0.091,-0.091,-0.091,-0.0707,-0.0606,-0.0505,-0.0252,-0.0101,-0.0101,-0.005,0.0,0.0,0.0202,0.0454,0.0707,0.0757,0.1061,0.1462,0.0984,0.0824,0.0,0.0,0.0,0.0,0.0,0.062,0.0763,0.0,0.068,0.0946,0.065,0.0946,0.1585,0.2559,0.3315,0.3996,0.5176,0.0,0.0,0.0,0.0,0.0,0.0,0.0,0.0,0.0,0.0,0.0,0.0,0.0,0.0,0.0,0.0,0.0,0.0,0.0,0.0,0.0,0.0,0.0,0.0,0.0,0.0,0.0,0.0,0.746,0.7419,0.7265,0.7139,0.7098,0.7098,0.7098,0.7098,0.7098,0.7119,0.7204,0.7204,0.7285,0.7434,0.7434,0.7516,0.7665,0.7767,0.7834,0.7882,0.7941,0.7988,0.7988,0.7988,0.7988,0.7988,0.7988,0.7988,0.7988,0.0,0.0,0.0,0.0,0.0,0.0,0.0,0.0,0.0,0.0,0.0,0.0,0.0,-0.0151,-0.0252,-0.025,-0.0499,-0.0599,-0.0449,-0.0595,-0.0646,-0.0656,-0.0651,-0.0651,-0.0656,-0.0505,-0.0353,-0.0252,-0.0101,0.0,0.0,0.0,0.005,0.0151,0.0353,0.0606,0.096,0.096,0.1213,0.0,0.103,0.0,0.0,0.0521,0.0373,0.0,0.0,0.0,0.0571,0.0328,0.0525,0.0,0.0,0.1039,0.1787,0.2934,0.353,0.4115,0.5442,0.568,0.5626,0.5783,0.0,0.0,0.5136,0.481,0.0,0.0,0.0,0.0,0.0,0.0,0.0,0.0,0.0,0.0,0.0,0.0,0.0,0.0,0.0,0.0,0.0,0.0,0.0,0.0,0.7278,0.7278,0.7278,0.7146,0.7098,0.7098,0.7098,0.7098,0.7098,0.7098,0.7098,0.7098,0.7098,0.7146,0.7278,0.7278,0.736,0.7509,0.759,0.7699,0.7821,0.7909,0.7934,0.7988,0.7988,0.7988,0.7988,0.7988,0.7988,0.7988,0.0,0.0,0.0,0.0,0.0,0.0,0.0,0.0047,0.0048,0.0,0.0,0.0,0.0,0.0,0.0,0.0,-0.0196,-0.0245,0.0,-0.0241,-0.0339,-0.0351,-0.0346,-0.0345,-0.0351,-0.0352,-0.0252,0.0,0.0,0.0,0.0,0.005,0.0151,0.0404,0.0,0.0,0.1213,0.1213,0.0,0.1507,0.1019,0.0965,0.0,0.0,0.0514,0.0662,0.0419,0.0374,0.0378,0.0137,0.0231,0.0,0.0,0.0,0.0,0.0,0.3607,0.4083,0.5506,0.5893,0.586,0.5712,0.0,0.0,0.5977,0.6183,0.0,0.0,0.0,0.0,0.0,0.0,0.0,0.0,0.0,0.0,0.0,0.0,0.0,0.0,0.0,0.0,0.0,0.0,0.0,0.7098,0.7098,0.7098,0.7098,0.7098,0.7098,0.7098,0.7098,0.7098,0.7098,0.7098,0.7098,0.7098,0.7098,0.7098,0.7098,0.7098,0.7217,0.7346,0.7426,0.7543,0.7787,0.7821,0.7916,0.7988,0.7988,0.7988,0.7988,0.7988,0.7988,0.7988,0.0,0.0,0.0,0.0,0.0,0.0,0.0,0.0193,0.0246,0.005,0.0,0.0,0.0,0.0,0.0,0.0,-0.0048,-0.0048,0.0,-0.0048,-0.0096,-0.0096,-0.0096,-0.0096,-0.0096,-0.0098,-0.0049,0.0,0.0,0.0,0.0,0.0202,0.0353,0.0404,0.0858,0.1112,0.1213,0.0,0.0,0.1283,0.1175,0.0,0.0861,0.0514,0.0276,0.0137,0.0092,0.0232,0.0419,0.0611,0.0516,0.0468,0.0,0.0,0.0,0.3385,0.0,0.4448,0.5582,0.5839,0.5718,0.0,0.0,0.0,0.5769,0.5963,0.6122,0.0,0.0,0.0,0.0,0.0,0.0,0.0,0.0,0.0,0.0,0.0,0.0,0.0,0.0,0.0,0.0,0.0,0.7098,0.7098,0.7098,0.7098,0.7098,0.7098,0.7098,0.7098,0.7098,0.7098,0.7098,0.7098,0.7098,0.7098,0.7098,0.7098,0.7098,0.7098,0.7112,0.7152,0.7448,0.759,0.7658,0.7847,0.7961,0.7988,0.7988,0.7988,0.7988,0.7988,0.7988,0.7988,0.0,0.0,0.0045,0.0,0.0,0.0,0.0386,0.0492,0.055,0.0404,0.0404,0.0353,0.0202,0.0199,0.0147,0.0,0.0,0.0,0.0,0.0,0.0,0.0,0.0,0.0,0.0,0.0,0.0,0.0,0.0151,0.0202,0.0202,0.0454,0.06,0.0639,0.1002,0.1199,0.1229,0.0,0.1609,0.1541,0.1171,0.0,0.0562,0.0322,0.0136,0.0,0.0,0.0091,0.0229,0.0373,0.0467,0.0,0.0,0.1446,0.2424,0.0,0.3811,0.4246,0.0,0.0,0.0,0.4665,0.0,0.0,0.0,0.48,0.4986,0.0,0.0,0.0,0.0,0.0,0.0,0.0,0.0,0.0,0.0,0.0,0.0,0.0,0.0,0.0,0.0,0.0,0.7018,0.7092,0.7098,0.7098,0.7098,0.7098,0.7098,0.7098,0.7098,0.7098,0.7098,0.7098,0.7098,0.7098,0.7098,0.7098,0.7098,0.7098,0.7098,0.7105,0.726,0.7461,0.7611,0.776,0.786,0.7988,0.7988,0.7988,0.7988,0.7988,0.7988,0.7988,0.009,0.009,0.0136,0.0,0.0,0.0,0.0,0.0846,0.0858,0.0858,0.0808,0.0656,0.0404,0.0347,0.0244,0.0,0.0,0.0,0.0,0.0046,0.0046,0.0,0.0093,0.0094,0.0097,0.0146,0.0148,0.0151,0.0353,0.0454,0.0505,0.0757,0.0894,0.0869,0.1088,0.1233,0.1304,0.1484,0.0,0.1736,0.0,0.0804,0.0653,0.0365,0.0181,0.0136,0.0045,0.0,0.0,0.0046,0.0368,0.0687,0.0603,0.1471,0.0,0.0,0.0,0.0,0.0,0.0,0.0,0.0,0.0,0.373,0.0,0.0,0.0,0.0,0.0,0.0,0.0,0.0,0.0,0.0,0.0,0.0,0.0,0.0,0.0,0.0,0.0,0.0,0.0,0.0,0.6964,0.7051,0.7105,0.7125,0.7098,0.7098,0.7098,0.7098,0.7098,0.7098,0.7098,0.7098,0.7098,0.7098,0.7098,0.7098,0.7098,0.7098,0.7098,0.7098,0.7125,0.7326,0.7556,0.7617,0.778,0.7948,0.7975,0.7988,0.7988,0.7988,0.7988,0.7988,0.0359,0.0359,0.0404,0.063,0.0,0.0,0.0,0.0,0.1162,0.1162,0.0757,0.0454,0.0404,0.0199,0.0049,0.0,0.0,0.0,0.0,0.0229,0.027,0.0,0.0406,0.0546,0.0372,0.0569,0.0724,0.069,0.0752,0.0,0.0,0.1011,0.1159,0.1153,0.1168,0.1318,0.1553,0.0,0.133,0.0,0.1091,0.1443,0.0,0.1263,0.0922,0.0644,0.0181,0.0,0.0044,0.0,0.0406,0.0531,0.0,0.1535,0.2187,0.327,0.0,0.0,0.0,0.0,0.0,0.0,0.363,0.0,0.0,0.0,0.0,0.0,0.0,0.0,0.0,0.0,0.0,0.0,0.0,0.0,0.0,0.0,0.0,0.0,0.0,0.0,0.0,0.0,0.0,0.6916,0.7197,0.7285,0.7105,0.7098,0.7098,0.7098,0.7098,0.7098,0.7098,0.7098,0.7098,0.7098,0.7098,0.7098,0.7098,0.7098,0.7098,0.7105,0.7285,0.7412,0.746,0.7678,0.7807,0.7848,0.7934,0.7988,0.7988,0.7988,0.7988,0.7988,0.0403,0.0403,0.0495,0.0866,0.0,0.0,0.0,0.0,0.1409,0.1443,0.1243,0.1048,0.0858,0.073,0.0529,0.0248,0.0238,0.0232,0.0,0.0,0.0409,0.0404,0.0583,0.0679,0.0555,0.07,0.0757,0.0724,0.0876,0.0,0.0,0.0,0.0,0.1221,0.1872,0.0,0.1181,0.0,0.1837,0.0,0.0,0.0,0.0,0.0912,0.0443,0.0307,0.0087,0.0,0.0,0.0,0.035,0.0,0.0,0.0,0.0,0.0,0.0,0.0,0.0,0.0,0.0,0.0,0.0,0.0,0.2412,0.0,0.2464,0.0,0.0,0.0,0.0,0.0,0.0,0.0,0.0,0.0,0.0,0.0,0.0,0.0,0.0,0.0,0.0,0.0,0.0,0.0,0.0,0.717,0.6984,0.697,0.7011,0.7092,0.7098,0.7098,0.7098,0.7098,0.7098,0.7098,0.7098,0.7098,0.7098,0.7098,0.7098,0.7098,0.721,0.7285,0.7426,0.7502,0.7611,0.7692,0.776,0.784,0.7988,0.7988,0.7988,0.7988,0.0628,0.0583,0.0721,0.1098,0.0,0.0,0.0,0.0,0.1584,0.1562,0.151,0.1371,0.1192,0.1016,0.0769,0.0448,0.0339,0.0285,0.0,0.0,0.0504,0.0,0.0,0.0,0.0,0.0833,0.0935,0.0906,0.1097,0.0,0.0,0.0,0.0,0.1694,0.0,0.2332,0.1734,0.0,0.2662,0.2302,0.2028,0.2168,0.2367,0.0798,0.0302,0.0421,0.0421,0.0628,0.0876,0.0929,0.1191,0.0,0.2076,0.0,0.0,0.0,0.0,0.0,0.484,0.0,0.0,0.0,0.0,0.0,0.0,0.0,0.0,0.0,0.0,0.0,0.0,0.0,0.0,0.2981,0.0,0.0,0.0,0.0,0.0,0.0,0.0,0.0,0.0,0.0,0.0,0.0,0.7014,0.0,0.6878,0.6862,0.693,0.7038,0.7078,0.7098,0.7098,0.7098,0.7098,0.7098,0.7098,0.7098,0.7098,0.7098,0.7098,0.7098,0.7098,0.7204,0.7312,0.7398,0.7434,0.7543,0.7584,0.7733,0.7867,0.7867,0.7894,0.7921,0.1077,0.1077,0.1166,0.1347,0.1461,0.0,0.0,0.0,0.0,0.0,0.0,0.0,0.0,0.0,0.0,0.0,0.0,0.0,0.0,0.0,0.0504,0.0,0.0,0.1178,0.0,0.0,0.1495,0.1478,0.1478,0.0,0.0,0.0,0.2031,0.2764,0.2659,0.3082,0.3927,0.4053,0.3859,0.3455,0.3707,0.3514,0.291,0.0,0.109,0.1551,0.1551,0.0,0.0,0.3284,0.3409,0.0,0.0,0.0,0.0,0.0,0.0,0.0,0.0,0.0,0.0,0.3342,0.0,0.0,0.0,0.0,0.1391,0.0,0.0,0.0,0.0,0.1884,0.223,0.2139,0.3751,0.0,0.0,0.0,0.0,0.0,0.0,0.0,0.0,0.0,0.0,0.0,0.7109,0.0,0.6729,0.6851,0.6889,0.6896,0.7024,0.7098,0.7098,0.7098,0.7098,0.7098,0.7098,0.7098,0.7098,0.7098,0.7098,0.7098,0.7098,0.7098,0.7112,0.7312,0.7419,0.7439,0.7543,0.7604,0.7611,0.7611,0.7699,0.7801,0.1301,0.1301,0.1301,0.1391,0.1399,0.0,0.0,0.1453,0.0,0.0,0.0,0.0,0.0,0.0738,0.0528,0.0,0.0,0.0622,0.1515,0.1028,0.0,0.0,0.0,0.1902,0.0,0.0,0.0,0.0,0.0,0.0,0.2922,0.2922,0.3212,0.3749,0.0,0.4272,0.0,0.0,0.0,0.0,0.0,0.362,0.3241,0.0,0.0,0.2601,0.2601,0.2826,0.0,0.3221,0.3359,0.3601,0.425,0.4666,0.5048,0.5543,0.5682,0.0,0.0,0.0,0.5272,0.4601,0.0,0.0,0.0,0.0,0.0,0.0,0.0,0.0,0.0,0.22,0.2372,0.2356,0.3434,0.4417,0.0,0.0,0.0,0.0,0.0,0.0,0.0,0.0,0.0,0.6566,0.673,0.0,0.0,0.6695,0.6824,0.6883,0.7024,0.7098,0.7098,0.7098,0.7098,0.7098,0.7098,0.7098,0.7098,0.7098,0.7098,0.7098,0.7098,0.7098,0.7098,0.7152,0.7217,0.7224,0.7227,0.736,0.7461,0.7563,0.7631,0.7678,0.1525,0.1525,0.1525,0.1436,0.0,0.0,0.0,0.0,0.0,0.0,0.236,0.0,0.2438,0.0,0.2152,0.0,0.1886,0.2162,0.2924,0.2438,0.0,0.4332,0.3236,0.0,0.0,0.0,0.0,0.0,0.0,0.339,0.3829,0.3829,0.413,0.4735,0.0,0.5305,0.4941,0.5431,0.5278,0.0,0.0,0.4582,0.0,0.0,0.4042,0.0,0.0,0.3904,0.4258,0.4258,0.4339,0.4584,0.5107,0.5308,0.5508,0.6032,0.6151,0.6106,0.615,0.6222,0.0,0.0,0.491,0.0,0.347,0.0,0.0,0.0,0.0,0.0,0.0,0.0,0.2506,0.2753,0.3609,0.4559,0.0,0.6517,0.0,0.0,0.0,0.0,0.0,0.0,0.681,0.6538,0.6573,0.6566,0.0,0.0,0.6668,0.6763,0.6916,0.7018,0.7018,0.7071,0.7098,0.7098,0.7098,0.7098,0.7098,0.7098,0.7098,0.7098,0.7098,0.7098,0.7098,0.7098,0.7098,0.7098,0.7098,0.7204,0.7299,0.74,0.7468,0.7543,0.1749,0.1839,0.0,0.0,0.166,0.0,0.0,0.0,0.3518,0.0,0.4644,0.5242,0.5348,0.5145,0.4936,0.4801,0.4597,0.4379,0.4142,0.4429,0.0,0.0,0.4473,0.4618,0.4346,0.0,0.0,0.0,0.0,0.0,0.4418,0.4418,0.4838,0.5685,0.5814,0.0,0.6527,0.6644,0.6539,0.63,0.63,0.6306,0.6313,0.6306,0.0,0.4964,0.481,0.5434,0.63,0.63,0.63,0.63,0.63,0.63,0.63,0.63,0.63,0.6327,0.6463,0.6504,0.6337,0.5776,0.0,0.0,0.0,0.0,0.3077,0.0,0.0,0.0,0.0,0.0,0.2536,0.3359,0.4194,0.5314,0.6827,0.0,0.0,0.0,0.0,0.0,0.0,0.7177,0.7139,0.6566,0.6742,0.6709,0.0,0.0,0.0,0.6525,0.677,0.6889,0.6896,0.7031,0.7098,0.7098,0.7098,0.7098,0.7098,0.7098,0.7098,0.7098,0.7098,0.7098,0.7098,0.7098,0.7098,0.7098,0.7098,0.7098,0.7098,0.7098,0.7231,0.7426,0.2065,0.211,0.2198,0.0,0.2287,0.211,0.0,0.0,0.0,0.0,0.4299,0.4886,0.4754,0.4693,0.4629,0.4553,0.4508,0.0,0.0,0.0,0.0,0.6838,0.5485,0.5299,0.6643,0.5241,0.0,0.6082,0.0,0.0,0.5852,0.5852,0.6144,0.6645,0.0,0.6713,0.6797,0.6842,0.6634,0.63,0.63,0.6361,0.0,0.0,0.6231,0.6091,0.5957,0.606,0.63,0.63,0.63,0.63,0.63,0.63,0.63,0.63,0.63,0.6306,0.634,0.6354,0.6349,0.6291,0.5798,0.5303,0.0,0.0,0.0,0.0,0.0,0.0,0.0,0.0,0.0,0.4431,0.526,0.5902,0.6302,0.0,0.0,0.0,0.0,0.0,0.0,0.6851,0.673,0.6647,0.6512,0.0,0.0,0.0,0.0,0.0,0.6831,0.6937,0.7045,0.7078,0.7098,0.7098,0.7098,0.7098,0.7098,0.7098,0.7098,0.7098,0.7098,0.7098,0.7098,0.7098,0.7098,0.7098,0.7098,0.7098,0.7098,0.7098,0.7119,0.7224,0.2601,0.0,0.0,0.3715,0.0,0.0,0.3313,0.0,0.0,0.4975,0.5822,0.0,0.6331,0.6493,0.6489,0.6335,0.632,0.0,0.7016,0.0,0.0,0.7851,0.6766,0.6605,0.7535,0.6368,0.0,0.6866,0.0,0.0,0.6694,0.6694,0.6834,0.0,0.0,0.6966,0.6876,0.6783,0.6586,0.6388,0.6327,0.0,0.0,0.6327,0.6347,0.6409,0.6327,0.63,0.63,0.63,0.63,0.63,0.63,0.63,0.63,0.63,0.63,0.63,0.63,0.63,0.632,0.6402,0.6106,0.5741,0.5543,0.5208,0.4961,0.0,0.0,0.0,0.0,0.0,0.0,0.5166,0.5769,0.6213,0.0,0.0,0.0,0.0,0.0,0.0,0.0,0.0,0.0,0.0,0.0,0.0,0.0,0.0,0.0,0.0,0.6783,0.6862,0.6851,0.7109,0.7177,0.7004,0.7065,0.7098,0.7098,0.7098,0.7098,0.7098,0.7098,0.7098,0.7098,0.7098,0.7098,0.7098,0.7098,0.7098,0.7098,0.7098,0.7139,0.7251,0.3403,0.0,0.0,0.0,0.0,0.0,0.0,0.5826,0.0,0.7151,0.0,0.8594,0.8723,0.8954,0.8994,0.873,0.0,0.8506,0.8049,0.8194,0.814,0.7855,0.7921,0.786,0.7631,0.7461,0.7305,0.0,0.0,0.0,0.7098,0.0,0.0,0.0,0.0,0.0,0.0,0.6593,0.6504,0.0,0.6347,0.63,0.63,0.63,0.63,0.63,0.63,0.63,0.63,0.63,0.63,0.63,0.63,0.63,0.63,0.63,0.63,0.63,0.63,0.63,0.63,0.63,0.63,0.6178,0.5621,0.5531,0.5531,0.5531,0.5129,0.0,0.0,0.0,0.0,0.5566,0.0,0.0,0.0,0.0,0.0,0.0,0.0,0.0,0.0,0.0,0.0,0.0,0.0,0.0,0.0,0.0,0.0,0.0,0.6668,0.0,0.6559,0.0,0.7204,0.6987,0.7045,0.7098,0.7098,0.7098,0.7098,0.7098,0.7098,0.7098,0.7098,0.7098,0.7098,0.7098,0.7098,0.7098,0.7098,0.7098,0.7313,0.7566,0.4696,0.0,0.0,0.0,0.0,0.6435,0.6787,0.7036,0.724,0.7334,0.8205,0.8811,0.8844,0.8832,0.8764,0.8716,0.8594,0.0,0.0,0.0,0.0,0.7961,0.7975,0.7907,0.778,0.7509,0.7405,0.0,0.0,0.0,0.7098,0.7098,0.7098,0.0,0.0,0.0,0.6729,0.6546,0.0,0.6334,0.6313,0.63,0.63,0.63,0.63,0.63,0.63,0.63,0.63,0.63,0.63,0.63,0.63,0.63,0.63,0.63,0.63,0.63,0.63,0.63,0.63,0.63,0.63,0.6268,0.6178,0.6146,0.6146,0.6146,0.6087,0.608,0.6424,0.0,0.0,0.0,0.0,0.0,0.0,0.0,0.0,0.0,0.0,0.0,0.0,0.0,0.0,0.0,0.0,0.0,0.0,0.0,0.0,0.0,0.0,0.0,0.0,0.0,0.0,0.7292,0.719,0.7098,0.7098,0.7098,0.7098,0.7098,0.7098,0.7098,0.7098,0.7098,0.7098,0.7098,0.7098,0.7098,0.7098,0.7098,0.7775,0.8504,0.5675,0.0,0.0,0.0,0.0,0.0,0.0,0.7987,0.0,0.7967,0.8335,0.8594,0.8594,0.8594,0.856,0.8486,0.8418,0.8309,0.816,0.8153,0.8119,0.7995,0.7914,0.0,0.7706,0.7333,0.7228,0.7437,0.0,0.0,0.7326,0.7187,0.7098,0.7092,0.0,0.691,0.0,0.0,0.0,0.6402,0.6327,0.63,0.63,0.63,0.63,0.63,0.63,0.63,0.63,0.63,0.63,0.63,0.63,0.63,0.63,0.63,0.63,0.63,0.63,0.63,0.63,0.63,0.63,0.63,0.63,0.63,0.63,0.63,0.63,0.634,0.6484,0.6573,0.0,0.0,0.0,0.0,0.0,0.0,0.0,0.0,0.0,0.0,0.0,0.0,0.0,0.0,0.0,0.0,0.0,0.0,0.0,0.0,0.0,0.0,0.0,0.0,0.0,0.7021,0.7027,0.7024,0.7098,0.7098,0.7445,0.8017,0.8017,0.836,0.8921,0.8921,0.8921,0.8921,0.8921,0.8921,0.8921,0.8921,0.927,0.9618,0.0,0.6649,0.0,0.0,0.7868,0.0,0.8357,0.8601,0.8703,0.8554,0.8404,0.8368,0.8368,0.8391,0.8391,0.8333,0.8241,0.8167,0.7995,0.7988,0.7975,0.7941,0.7875,0.7733,0.7556,0.7143,0.7073,0.0,0.0,0.0,0.0,0.7349,0.0,0.0,0.0,0.0,0.0,0.0,0.6497,0.6457,0.6347,0.63,0.63,0.63,0.63,0.63,0.63,0.63,0.63,0.63,0.63,0.63,0.63,0.63,0.63,0.63,0.63,0.63,0.63,0.63,0.63,0.63,0.63,0.63,0.63,0.63,0.63,0.63,0.63,0.6334,0.645,0.6463,0.0,0.0,0.0,0.0,0.0,0.0,0.0,0.0,0.0,0.0,0.0,0.0,0.0,0.0,0.0,0.0,0.0,0.0,0.0,0.0,0.0,0.0,0.657,0.0,0.6865,0.0,0.6932,0.7121,0.7489,0.7489,0.8141,0.9279,0.9279,0.9749,1.0605,1.0605,1.0605,1.0605,1.0605,1.0605,1.0605,1.0605,1.0735,1.0821,0.0,0.0,0.0,0.0,0.0,0.0,0.0,0.8501,0.8811,0.871,0.8554,0.8465,0.8465,0.8357,0.8333,0.8327,0.814,0.8008,0.7988,0.7988,0.7928,0.7841,0.7821,0.7678,0.7446,0.7088,0.6939,0.0,0.0,0.0,0.0,0.0,0.0,0.0,0.0,0.0,0.0,0.6525,0.6436,0.632,0.6306,0.63,0.63,0.63,0.63,0.63,0.63,0.63,0.63,0.63,0.63,0.63,0.63,0.63,0.63,0.63,0.63,0.63,0.63,0.63,0.63,0.63,0.63,0.63,0.63,0.63,0.63,0.63,0.63,0.6306,0.632,0.632,0.6368,0.0,0.0,0.0,0.0,0.0,0.0,0.0,0.0,0.0,0.0,0.0,0.0,0.0,0.0,0.0,0.0,0.0,0.0,0.0,0.0,0.6978,0.7374,0.6922,0.0,0.7351,0.7183,0.765,0.8719,0.8719,0.9366,1.0443,1.0443,1.0486,1.0605,1.0605,1.0605,1.0605,1.0605,1.0605,1.0605,1.0605,1.1252,1.2109,0.0,0.0,0.0,0.0,0.0,0.0,0.0,0.8438,0.8513,0.8459,0.8465,0.8452,0.8364,0.8221,0.8133,0.8133,0.8022,0.7988,0.7988,0.7988,0.7921,0.7821,0.7733,0.7584,0.7419,0.6993,0.688,0.0,0.0,0.0,0.0,0.0,0.0,0.0,0.0,0.6709,0.6504,0.6422,0.6354,0.63,0.63,0.63,0.63,0.63,0.63,0.63,0.63,0.63,0.63,0.63,0.63,0.63,0.63,0.63,0.63,0.63,0.63,0.63,0.63,0.63,0.63,0.63,0.63,0.63,0.63,0.63,0.63,0.63,0.63,0.63,0.63,0.63,0.632,0.0,0.0,0.0,0.0,0.0,0.0,0.0,0.0,0.6585,0.0,0.0,0.0,0.0,0.0,0.0,0.0,0.0,0.0,0.6845,0.0,0.7276,0.7006,0.6709,0.6749,0.7109,0.6997,0.7665,0.8894,0.8894,0.9879,1.1638,1.2388,1.2687,1.2687,1.2687,1.2687,1.2687,1.2687,1.2687,1.2687,1.2687,1.2997,1.3379,0.7651,0.0,0.7842,0.0,0.8029,0.816,0.8323,0.8343,0.8303,0.8214,0.833,0.8364,0.8221,0.8106,0.7988,0.7988,0.7988,0.7988,0.7988,0.7948,0.7853,0.7753,0.7611,0.0,0.7305,0.6905,0.6833,0.7112,0.704,0.0,0.0,0.0,0.0,0.0,0.6646,0.6531,0.6443,0.634,0.63,0.63,0.63,0.63,0.63,0.63,0.63,0.63,0.63,0.63,0.63,0.63,0.63,0.63,0.63,0.63,0.63,0.63,0.63,0.63,0.63,0.63,0.63,0.63,0.63,0.63,0.63,0.63,0.63,0.63,0.63,0.63,0.63,0.63,0.6313,0.0,0.0,0.0,0.0,0.0,0.0,0.0,0.6492,0.6702,0.7026,0.0,0.0,0.0,0.0,0.0,0.0,0.0,0.0,0.0,0.0,0.0,0.0,0.0,0.7759,0.7971,0.7971,0.8673,0.9923,1.0269,1.1305,1.2899,1.373,1.4082,1.4082,1.4082,1.4082,1.4082,1.4082,1.4082,1.4082,1.4082,1.4082,1.4082,0.7828,0.8007,0.816,0.8018,0.8167,0.8214,0.8015,0.8296,0.8377,0.8029,0.8174,0.8214,0.8008,0.7988,0.7988,0.7988,0.7988,0.7988,0.7988,0.7896,0.7753,0.0,0.0,0.7299,0.7098,0.6851,0.6702,0.6702,0.0,0.0,0.6812,0.0,0.0,0.6805,0.6798,0.6601,0.63,0.63,0.63,0.63,0.63,0.63,0.63,0.63,0.63,0.63,0.63,0.63,0.63,0.63,0.63,0.63,0.63,0.63,0.63,0.63,0.63,0.63,0.63,0.63,0.63,0.63,0.63,0.63,0.63,0.63,0.63,0.63,0.63,0.63,0.63,0.63,0.6347,0.6491,0.0,0.0,0.0,0.0,0.0,0.0,0.7002,0.7506,0.8043,0.0,0.0,0.0,0.0,0.0,0.0,0.0,0.0,0.9831,1.0128,0.0,1.0439,1.0397,1.0415,1.0562,1.0562,1.1166,1.2279,1.3476,1.4039,1.4082,1.4082,1.4082,1.4082,1.4082,1.4082,1.4082,1.4082,1.4082,1.4082,1.4082,1.4082,1.4082,0.7957,0.8019,0.8033,0.8031,0.8029,0.8099,0.7995,0.8069,0.8147,0.8002,0.8029,0.8092,0.7995,0.7988,0.7988,0.0,0.7988,0.7948,0.0,0.7834,0.7699,0.7455,0.7446,0.7299,0.7098,0.6851,0.6702,0.6702,0.0,0.0,0.0,0.6936,0.6791,0.6446,0.6446,0.6379,0.63,0.63,0.63,0.63,0.63,0.63,0.63,0.63,0.63,0.63,0.63,0.63,0.63,0.63,0.63,0.63,0.63,0.63,0.63,0.63,0.63,0.63,0.63,0.63,0.63,0.63,0.63,0.63,0.63,0.63,0.63,0.63,0.63,0.63,0.63,0.63,0.6313,0.6361,0.0,0.0,0.0,0.0,0.0,0.0,0.7966,0.7991,0.0,0.8865,0.0,0.0,0.0,0.0,0.0,0.0,0.0,0.0,1.0357,0.0,1.0324,1.012,1.0231,1.0605,1.0605,1.1209,1.2322,1.3561,1.4082,1.4082,1.4082,1.4082,1.4082,1.4082,1.4082,1.4082,1.4082,1.3961,1.3814,1.4015,1.3961,1.3773,0.7988,0.7988,0.7988,0.7988,0.7988,0.7988,0.7988,0.7988,0.8187,0.8676,0.8775,0.8924,0.941,0.946,0.0,0.8088,0.7988,0.0,0.7902,0.7794,0.7834,0.8099,0.8019,0.8124,0.8404,0.0,0.0,0.7918,0.7804,0.7721,0.7721,0.7721,0.7624,0.7442,0.7442,0.7442,0.7442,0.7442,0.7442,0.7442,0.7442,0.7442,0.7442,0.7442,0.7442,0.7442,0.7442,0.7173,0.6872,0.6872,0.6602,0.63,0.63,0.63,0.63,0.63,0.63,0.63,0.63,0.63,0.63,0.63,0.63,0.6416,0.6795,0.6872,0.6872,0.6872,0.6872,0.6756,0.6377,0.6602,0.6872,0.6872,0.0,0.0,0.0,0.0,0.0,0.0,0.0,0.0,0.0,0.9866,0.0,0.0,0.0,0.0,0.0,0.0,0.0,1.0911,1.1431,0.0,1.1491,1.1475,1.1642,1.1906,1.1906,1.2291,1.2984,1.3773,1.4082,1.4082,1.4082,1.4082,1.4082,1.4082,1.4015,1.3935,1.4041,1.3908,1.364,1.3975,1.3975,1.3841,0.8237,0.8187,0.0,0.0,0.8287,0.0,0.8287,0.8287,0.8726,0.9953,1.0149,1.0583,1.1755,1.1901,1.0916,0.8464,0.0,0.0,0.0,0.7986,0.8326,0.9355,0.9161,0.0,1.0572,1.0457,1.0213,0.9857,0.9493,0.9301,0.9301,0.9301,0.9301,0.9301,0.9301,0.9301,0.9301,0.9301,0.9301,0.9301,0.9301,0.9301,0.9301,0.9301,0.9301,0.9301,0.9301,0.8694,0.7893,0.7893,0.7288,0.6486,0.6486,0.6486,0.6493,0.6338,0.63,0.63,0.63,0.63,0.63,0.6377,0.6454,0.6756,0.771,0.7893,0.7893,0.7893,0.7893,0.7633,0.6679,0.7288,0.7893,0.7893,0.8694,0.9339,0.9415,0.0,0.0,0.0,0.0,0.0,0.0,1.1354,1.1549,0.0,0.0,0.0,0.0,0.0,0.0,1.2705,1.3013,1.332,1.3573,1.3908,1.4068,1.4082,1.4082,1.4082,1.4082,1.4082,1.4082,1.4082,1.4082,1.4082,1.4082,1.4082,1.3921,1.3666,1.3975,1.3908,1.364,1.3975,1.4068,1.4055,0.0,0.0,0.9854,1.0828,1.0974,1.0974,1.0974,1.0974,1.1072,1.1414,1.1463,1.156,1.1853,1.1901,1.1589,1.0742,1.0872,1.0835,1.0529,1.0464,1.0359,1.0304,1.0231,1.0313,1.0605,1.0221,0.9827,0.9453,0.9352,0.9301,0.9301,0.9301,0.9301,0.9301,0.9301,0.9301,0.9301,0.9301,0.9301,0.9301,0.9301,0.9301,0.9301,0.9301,0.9301,0.9301,0.9301,0.915,0.896,0.896,0.877,0.858,0.858,0.858,0.8275,0.6756,0.63,0.63,0.63,0.63,0.6493,0.7249,0.8008,0.8656,0.8884,0.896,0.896,0.896,0.896,0.8884,0.8618,0.877,0.896,0.896,0.915,0.9556,1.0335,0.0,0.0,0.0,1.1019,1.0981,1.1922,1.1886,1.1712,0.0,0.0,0.0,0.0,0.0,1.1465,1.2412,1.2744,1.2999,1.3267,1.356,1.3868,1.4082,1.4082,1.4082,1.4082,1.4082,1.4082,1.4082,1.4082,1.4082,1.4082,1.4082,1.4041,1.3988,1.4055,1.3908,1.364,1.3975,1.3948,1.3733,1.1755,1.1365,1.1072,1.1804,1.1901,1.1901,1.1901,1.1901,1.2134,1.2716,1.2813,1.3054,1.3644,1.3588,1.346,1.331,1.2337,1.1589,1.1247,1.1136,1.1199,1.1521,1.1446,1.1551,1.1958,1.1723,1.1369,1.0907,1.0741,1.0683,1.0683,1.0683,1.0683,1.0683,1.0683,1.0683,1.0683,1.0683,1.0683,1.0683,1.0683,1.0683,1.0683,1.0683,1.0683,1.0683,1.0683,1.0383,1.0008,1.0008,0.9669,0.9301,0.9301,0.9301,0.9074,0.8008,0.7672,0.7557,0.7096,0.7326,0.7817,0.8351,0.8884,0.9405,0.9895,1.0008,1.0008,1.0008,1.0008,0.9857,0.9367,0.9669,1.0008,1.0008,1.0256,1.0704,1.1241,1.0839,0.0,1.1995,1.1734,1.17,1.2268,1.2158,1.2022,1.1848,0.0,0.0,1.1811,1.1811,1.2024,1.2505,1.2837,1.3106,1.336,1.3653,1.3935,1.4082,1.4082,1.4082,1.4082,1.4082,1.4082,1.4082,1.4082,1.4082,1.4082,1.4082,1.4001,1.3895,1.4041,1.3908,1.364,1.3975,1.3988,1.3868,1.2425,1.2328,1.228,1.2484,1.2474,1.2474,1.2474,1.2474,1.2909,1.4028,1.4172,1.4603,1.5676,1.5605,1.5431,1.5337,1.3298,1.192,1.1643,1.1455,1.1783,1.2762,1.2666,1.2903,1.3559,1.3507,1.324,1.2717,1.2425,1.2305,1.2305,1.2305,1.2305,1.2305,1.2305,1.2305,1.2305,1.2305,1.2305,1.2305,1.2305,1.2305,1.2305,1.2305,1.2305,1.2305,1.2305,1.1737,1.1007,1.1007,1.0458,0.9744,0.9744,0.9744,0.9707,0.9556,0.9631,0.948,0.8351,0.877,0.9518,0.9518,0.9631,0.997,1.082,1.1007,1.1007,1.1007,1.1007,1.0757,0.9895,1.0458,1.1056,1.1093,1.1531,1.1913,1.1948,0.0,0.0,1.1899,1.2131,1.2305,1.2305,1.2305,1.2305,1.2305,1.2305,0.0,0.0,1.2305,1.2412,1.2717,1.2973,1.3307,1.36,1.3935,1.4082,1.4082,1.4082,1.4082,1.4082,1.4082,1.4082,1.4082,1.4082,1.4055,1.4028,1.4068,1.3908,1.3626,1.3975,1.3935,1.3693,1.4001,1.4082,1.4082,1.4997,1.4316,1.3932,1.4997,1.5201,1.5201,1.5201,1.5201,1.5296,1.5486,1.5486,1.5581,1.5784,1.5744,1.5565,1.5115,1.4701,1.4302,1.3975,1.3955,1.3926,1.3864,1.3841,1.3726,1.3613,1.3146,1.2757,1.2371,1.2318,1.2305,1.2305,1.2305,1.2305,1.2305,1.2305,1.2305,1.2305,1.2305,1.2305,1.2305,1.2305,1.2305,1.2305,1.2305,1.2305,1.2305,1.2305,1.2194,1.207,1.207,1.1959,1.1811,1.1811,1.1811,1.1663,1.0832,1.1168,1.144,0.9556,0.982,1.0559,1.0559,1.1205,1.1885,1.2033,1.207,1.207,1.207,1.207,1.2033,1.1848,1.1959,1.2107,1.2291,1.21,1.197,0.0,0.0,1.1899,1.1899,1.2131,1.2305,1.2305,1.2305,1.2305,1.2305,1.2305,1.2305,1.2305,1.2305,1.2318,1.2371,1.2703,1.308,1.36,1.3935,1.4082,1.4082,1.4082,1.4082,1.4082,1.4082,1.4082,1.4082,1.4082,1.3948,1.3693,1.3988,1.3908,1.3626,1.3975,1.4055,1.4028,1.4068,1.4082,1.4082,1.5676,1.5343,1.5092,1.5689,1.5784,1.5784,1.5784,1.5784,1.5784,1.5784,1.5784,1.5784,1.5784,1.5685,1.5431,1.5048,1.4816,1.4603,1.4309,1.4282,1.4148,1.3813,1.3841,1.3627,1.3173,1.277,1.2438,1.2305,1.2305,1.2305,1.2305,1.2305,1.2305,1.2305,1.2305,1.2305,1.2305,1.2305,1.2305,1.2305,1.2305,1.2305,1.2305,1.2305,1.2305,1.2305,1.2305,1.2305,1.2305,1.2305,1.2305,1.2305,1.2305,1.2305,1.2218,1.1737,1.1539,1.1391,1.1019,1.1242,1.1613,1.1613,1.1959,1.2305,1.2305,1.2305,1.2305,1.2305,1.2305,1.2305,1.2305,1.2305,1.2342,1.2415,1.1989,0.0,0.0,1.18,1.169,1.1886,1.2131,1.2305,1.2305,1.2305,1.2305,1.2305,1.2305,1.2305,1.2305,1.2305,1.2305,1.2305,1.2623,1.2998,1.336,1.3653,1.3841,1.3854,1.4015,1.4082,1.4082,1.4082,1.4082,1.4082,1.3921,1.3868,1.3881,1.3854,1.3868,1.3895,1.4041,1.4082,1.4082,1.4082,1.4082,1.4082,1.5784,1.5784,1.5784,1.5784,1.5784,1.5784,1.5784,1.5784,1.5758,1.5738,1.5744,1.5731,1.5645,1.5484,1.5257,1.4897,1.4656,1.4402,1.4108,1.4082,1.3988,1.372,1.364,1.336,1.2797,1.2556,1.2371,1.2305,1.2305,1.2305,1.2305,1.2305,1.2305,1.2305,1.2305,1.2305,1.2305,1.2305,1.2305,1.2305,1.2305,1.2305,1.2305,1.2305,1.2305,1.2305,1.2305,1.2305,1.2305,1.2305,1.2305,1.2305,1.2305,1.2305,1.2305,1.2305,1.1737,1.1316,1.207,1.2305,1.2305,1.2305,1.2305,1.2305,1.2305,1.2358,1.2385,1.2318,1.2412,1.2465,1.2331,1.2358,1.2422,1.2392,0.0,0.0,0.0,1.1806,1.1717,1.1944,1.2225,1.2385,1.2305,1.2305,1.2305,1.2305,1.2305,1.2305,1.2305,1.2305,1.2305,1.2305,1.2623,1.2904,1.3093,1.336,1.3533,1.36,1.3881,1.4015,1.4082,1.4082,1.4082,1.4082,1.3841,1.3841,1.3975,1.3773,1.3841,1.3988,1.4055,1.4082,1.4082,1.4082,1.4082,1.4082,1.5784,1.5784,1.5784,1.5784,1.5784,1.5784,1.5784,1.5784,1.5725,1.5471,1.5658,1.5618,1.5129,1.5244,1.5164,1.4603,1.4536,1.4402,1.4108,1.4082,1.4082,1.4055,1.3746,1.336,1.2797,1.2757,1.2623,1.2305,1.2305,1.2305,1.2305,1.2305,1.2305,1.2305,1.2305,1.2305,1.2305,1.2305,1.2305,1.2305,1.2305,1.2305,1.2305,1.2305,1.2305,1.2305,1.2305,1.2305,1.2305,1.2305,1.2305,1.2305,1.2305,1.2305,1.2305,1.2305,1.2268,1.2231,1.2268,1.2305,1.2305,1.2305,1.2305,1.2305,1.2305,1.2556,1.2677,1.2358,1.2746,1.2973,1.2412,1.2569,1.2739,1.2603,0.0,0.0,1.2481,1.2361,1.2251,1.2265,1.2569,1.2636,1.2331,1.2305,1.2305,1.2305,1.2305,1.2305,1.2305,1.2305,1.2305,1.2305,1.2623,1.2797,1.2824,1.3093,1.3333,1.36,1.3626,1.3773,1.4082,1.4082,1.4082,1.4082,1.4068,1.3908,1.3653,1.3948,1.3908,1.3666,1.3975,1.4082,1.4082,1.4082,1.4082,1.4082,1.5792,1.5784,1.5784,1.5784,1.5784,1.5784,1.5784,1.5784,1.5678,1.5431,1.5498,1.5404,1.5048,1.5102,1.4963,1.4563,1.4522,1.4402,1.4108,1.4082,1.4001,1.3773,1.3347,1.3025,1.2784,1.2596,1.2412,1.2305,1.2305,1.2305,1.2305,1.2305,1.2305,1.2305,1.2305,1.2305,1.2305,1.2305,1.2305,1.2305,1.2305,1.2305,1.2305,1.2305,1.2305,1.2305,1.2305,1.2305,1.2305,1.2305,1.2305,1.2305,1.2305,1.2305,1.2305,1.2305,1.2305,1.2305,1.2305,1.2305,1.2305,1.2305,1.2305,1.2305,1.2305,1.2569,1.2757,1.2636,1.2919,1.3146,1.2906,1.2837,1.2849,1.2968,0.0,1.2342,1.2876,1.2782,1.261,1.261,1.2717,1.2663,1.2331,1.2305,1.2305,1.2305,1.2305,1.2305,1.2305,1.2305,1.2305,1.2305,1.2412,1.2478,1.2478,1.2959,1.3267,1.3347,1.3748,1.3975,1.4082,1.4082,1.4082,1.4082,1.3895,1.3854,1.3908,1.38,1.3854,1.3935,1.4041,1.4082,1.4082,1.4082,1.4082,1.4082,1.5631,1.5698,1.5725,1.5771,1.5784,1.5784,1.5784,1.5752,1.5591,1.5297,1.5257,1.511,1.478,1.4763,1.471,1.4402,1.4389,1.4295,1.4095,1.4082,1.3948,1.3613,1.3253,1.2985,1.2784,1.2583,1.2398,1.2305,1.2305,1.2305,1.2305,1.2305,1.2305,1.2305,1.2305,1.2305,1.2305,1.2305,1.2305,1.2305,1.2305,1.2305,1.2305,1.2305,1.2305,1.2305,1.2305,1.2305,1.2305,1.2305,1.2305,1.2305,1.2305,1.2305,1.2305,1.2305,1.2305,1.2305,1.2305,1.2305,1.2305,1.2305,1.2305,1.2305,1.2305,1.2612,1.2904,1.2811,1.3146,1.3427,1.324,1.3106,1.3066,1.3186,1.2866,1.2759,1.328,1.316,1.3038,1.2945,1.2931,1.277,1.2345,1.2385,1.2398,1.2305,1.2478,1.2545,1.2452,1.2438,1.2398,1.2305,1.2305,1.2345,1.2476,1.2852,1.312,1.3213,1.3707,1.4001,1.4082,1.4082,1.4082,1.4082,1.3868,1.3895,1.4068,1.3868,1.3908,1.4082,1.4082,1.4082,1.4124,1.4489,1.4615,1.4657,1.5337,1.5391,1.5484,1.5731,1.5784,1.5784,1.5784,1.5578,1.5297,1.5048,1.5008,1.478,1.4148,1.4349,1.4402,1.4108,1.4082,1.4082,1.4082,1.4082,1.3948,1.3613,1.36,1.336,1.2811,1.2784,1.2636,1.2305,1.2305,1.2305,1.2305,1.2305,1.2305,1.2305,1.2305,1.2305,1.2305,1.2305,1.2305,1.2305,1.2305,1.2305,1.2305,1.2305,1.2305,1.2305,1.2305,1.2305,1.2305,1.2305,1.2305,1.2305,1.2305,1.2305,1.2305,1.2305,1.2305,1.2305,1.2305,1.2305,1.2305,1.2305,1.2305,1.2305,1.2305,1.2772,1.312,1.2851,1.3507,1.3908,1.332,1.3413,1.3507,1.3267,1.3213,1.332,1.3573,1.36,1.3493,1.324,1.3213,1.2973,1.2358,1.261,1.2663,1.2331,1.2866,1.308,1.2849,1.2822,1.265,1.2355,1.2305,1.2489,1.2822,1.2822,1.2945,1.3213,1.3467,1.376,1.4082,1.4082,1.4082,1.4082,1.4082,1.4082,1.4082,1.4082,1.4082,1.4082,1.4082,1.4082,1.4208,1.5296,1.5696,1.5861,1.5337,1.5391,1.5484,1.5731,1.5784,1.5784,1.5784,1.5578,1.5297,1.5048,1.479,1.4509,1.4122,1.4162,1.4175,1.4095,1.4082,1.4082,1.4082,1.4082,1.4041,1.3961,1.372,1.352,1.3347,1.2998,1.2744,1.265,1.2412,1.2305,1.2305,1.2305,1.2305,1.2305,1.2305,1.2305,1.2305,1.2305,1.2305,1.2305,1.2305,1.2305,1.2305,1.2305,1.2305,1.2305,1.2305,1.2305,1.2305,1.2305,1.2305,1.2305,1.2305,1.2305,1.2305,1.2305,1.2305,1.2305,1.2305,1.2305,1.2305,1.2305,1.2489,1.265,1.265,1.308,1.3453,1.34,1.3761,1.4028,1.3854,1.368,1.364,1.3801,1.3654,1.3573,1.3908,1.3733,1.3493,1.324,1.3213,1.3053,1.269,1.2893,1.3039,1.2946,1.3106,1.3514,1.4166,1.419,1.4492,1.5166,1.4463,1.4103,1.419,1.3443,1.3227,1.348,1.3814,1.4001,1.4082,1.4082,1.4082,1.4082,1.4082,1.4082,1.4082,1.4082,1.4082,1.4082,1.4082,1.4082,1.4208,1.5296,1.5696,1.5861,1.5137,1.5231,1.5535,1.6411,1.6574,1.6574,1.6574,1.6309,1.5864,1.5093,1.471,1.4402,1.4122,1.4082,1.4082,1.4082,1.4489,1.4531,1.4124,1.4489,1.4531,1.4124,1.3908,1.3666,1.344,1.3038,1.273,1.261,1.2385,1.2305,1.2305,1.2305,1.2305,1.2305,1.2305,1.2305,1.2305,1.2305,1.2305,1.2305,1.2305,1.2305,1.2305,1.2305,1.2305,1.2305,1.2305,1.2305,1.2305,1.2305,1.2305,1.2305,1.2305,1.2305,1.2305,1.2305,1.2305,1.2305,1.2305,1.2305,1.2331,1.2452,1.265,1.2811,1.2945,1.3293,1.36,1.36,1.3881,1.4082,1.4082,1.3935,1.3881,1.4055,1.3935,1.3881,1.4055,1.3935,1.3667,1.3253,1.3691,1.387,1.3459,1.42,1.4702,1.4794,1.4731,1.4958,1.5607,1.5646,1.5877,1.638,1.5771,1.5505,1.5646,1.4997,1.4323,1.36,1.3948,1.4082,1.4082,1.4082,1.4082,1.4082,1.4082,1.4082,1.4124,1.4573,1.4727,1.4783,1.5186,1.5352,1.5519,1.6601,1.7009,1.7172,1.5127,1.5222,1.5774,1.7488,1.7779,1.7794,1.787,1.7538,1.6787,1.5349,1.4933,1.4634,1.4277,1.4334,1.4377,1.4377,1.5255,1.5421,1.4447,1.5296,1.5421,1.4419,1.4377,1.4104,1.3531,1.3089,1.273,1.2425,1.2371,1.2382,1.2479,1.2429,1.2415,1.2415,1.2415,1.2378,1.2305,1.2305,1.2305,1.2305,1.2305,1.2305,1.2305,1.2305,1.2305,1.2305,1.2305,1.2305,1.2305,1.2305,1.2305,1.2305,1.2305,1.2378,1.2415,1.2415,1.2415,1.2415,1.2415,1.2378,1.2371,1.2717,1.2811,1.2904,1.3173,1.344,1.364,1.364,1.3895,1.4082,1.4082,1.4082,1.4082,1.4082,1.4166,1.425,1.425,1.4307,1.4131,1.3585,1.4641,1.5215,1.4683,1.6041,1.705,1.7277,1.706,1.6979,1.7097,1.7097,1.6985,1.6784,1.667,1.6783,1.7097,1.6979,1.5927,1.3926,1.424,1.4377,1.4377,1.4292,1.4292,1.4377,1.4292,1.4292,1.4461,1.5421,1.582,1.5944,1.6927,1.7293,1.7415,1.8598,1.9015,1.921,1.7005,1.7206,1.7454,1.8418,1.8575,1.8672,1.9053,1.8552,1.7723,1.6566,1.6599,1.6366,1.5462,1.6124,1.6617,1.6617,1.6805,1.6846,1.6617,1.6805,1.6846,1.6617,1.6617,1.6451,1.6126,1.4337,1.3373,1.3307,1.2918,1.3054,1.3791,1.3506,1.339,1.339,1.339,1.2989,1.2305,1.2305,1.2305,1.2305,1.2305,1.2305,1.2305,1.2305,1.2305,1.2305,1.2305,1.2305,1.2305,1.2305,1.2305,1.2305,1.2305,1.2806,1.339,1.339,1.339,1.339,1.339,1.2842,1.2371,1.2717,1.2971,1.3186,1.344,1.3774,1.3988,1.3988,1.4041,1.4082,1.4082,1.4082,1.4082,1.4082,1.481,1.5338,1.5338,1.5919,1.6246,1.6086,1.637,1.6511,1.6364,1.6875,1.7251,1.7293,1.7268,1.762,1.8497,1.8536,1.8894,1.9677,1.8882,1.8465,1.8536,1.766,1.6976,1.649,1.6569,1.6617,1.6576,1.5752,1.5835,1.6576,1.5711,1.5835,1.6617,1.6846,1.6968,1.6968,1.7212,1.7293,1.7415,1.8598,1.9195,1.9611,1.7637,1.7811,1.8194,1.9477,1.9702,1.9866,2.029,1.9859,1.9039,1.7747,1.755,1.7244,1.6535,1.6968,1.7293,1.7293,1.7779,1.7859,1.7334,1.7819,1.7859,1.7334,1.7293,1.7251,1.7077,1.5969,1.5212,1.4939,1.4132,1.4153,1.4961,1.4773,1.46,1.4422,1.4422,1.4135,1.3665,1.3171,1.2989,1.2915,1.2475,1.2562,1.2989,1.2989,1.3266,1.3665,1.3665,1.3375,1.2915,1.2452,1.2305,1.2378,1.2842,1.3317,1.3774,1.4279,1.4422,1.4422,1.4422,1.3821,1.3397,1.4229,1.4297,1.4123,1.3682,1.3868,1.4082,1.4082,1.4489,1.4852,1.4852,1.5269,1.5628,1.5628,1.6124,1.6478,1.6478,1.6847,1.705,1.6907,1.749,1.8105,1.8632,1.8773,1.8877,1.8877,1.8877,1.9155,1.9726,1.9766,2.0001,2.0566,2.004,1.9766,1.9766,1.9155,1.8877,1.8859,1.7779,1.7293,1.7293,1.6723,1.6764,1.7253,1.6723,1.6764,1.7334,1.79,1.8101,1.8141,1.8661,1.8877,1.8957,1.955,1.9897,2.0165,1.8185,1.8294,1.879,2.0485,2.0839,2.1065,2.1449,2.1248,2.0451,1.8887,1.8583,1.8304,1.7751,1.788,1.7944,1.7876,1.8718,1.8877,1.794,1.8758,1.8838,1.79,1.7859,1.7859,1.7859,1.7658,1.7236,1.6563,1.5629,1.55,1.6114,1.6063,1.5827,1.5438,1.5438,1.5332,1.5171,1.4314,1.3954,1.3882,1.3135,1.3266,1.3954,1.3954,1.4458,1.519,1.519,1.4673,1.3846,1.3062,1.2806,1.2915,1.3702,1.4063,1.435,1.5273,1.5539,1.5556,1.5659,1.5129,1.4818,1.5956,1.5888,1.5338,1.4386,1.4393,1.4657,1.4657,1.5338,1.5985,1.5985,1.6683,1.7293,1.7293,1.7455,1.7577,1.7577,1.7738,1.778,1.7574,1.8544,1.9608,2.0527,2.0605,2.0605,2.0605,2.0605,2.0605,2.0605,2.0605,2.0605,2.0605,2.0605,2.0605,2.0605,2.0605,2.0605,2.0566,1.874,1.7859,1.7859,1.7658,1.7698,1.7859,1.7658,1.7698,1.794,1.8877,1.9274,1.9353,2.0235,2.0605,2.0625,2.0683,2.0664,2.0625,2.0038,2.0214,2.0407,2.1026,2.1453,2.19,2.2264,2.2283,2.1689,2.0165,2.0782,2.0821,1.9416,2.013,2.0539,2.0196,2.0274,2.0313,2.0157,2.0274,2.0313,2.0157,2.0157,2.0157,2.0157,1.9234,1.8249,1.7185,1.6816,1.6911,1.7434,1.7152,1.6813,1.6419,1.6419,1.5965,1.519,1.5065,1.4977,1.4994,1.4871,1.4871,1.4977,1.4977,1.51,1.519,1.519,1.5119,1.4977,1.4835,1.4816,1.4835,1.4942,1.5544,1.6316,1.6777,1.692,1.7027,1.7404,1.6842,1.6162,1.6325,1.6531,1.6655,1.6497,1.6669,1.6846,1.6846,1.6968,1.709,1.709,1.7212,1.7293,1.7293,1.8141,1.8758,1.8758,1.955,2.0138,2.012,2.0294,2.045,2.0605,2.0605,2.0605,2.0605,2.0605,2.0605,2.0605,2.0605,2.0605,2.0605,2.0605,2.0605,2.0605,2.0605,2.0605,2.0605,2.0274,2.0157,2.0118,1.9195,1.9274,2.0118,1.9155,1.9313,2.0157,2.0313,2.0372,2.0411,2.0527,2.0605,2.0644,2.0996,2.0898,2.0664,2.0527,2.0605,2.082,2.1484,2.1758,2.2109,2.2711,2.2656,2.2272,2.1575,2.1508,2.1242,2.0566,2.0718,2.0781,2.0625,2.0605,2.0605,2.0605,2.0605,2.0605,2.0605,2.0605,2.0605,2.0605,2.0118,1.9648,1.9155,1.8404,1.8372,1.8939,1.856,1.8145,1.7729,1.7502,1.7148,1.6733,1.6175,1.5965,1.593,1.5403,1.5508,1.5965,1.5965,1.6298,1.6698,1.6193,1.5965,1.5895,1.5367,1.519,1.5296,1.5825,1.6404,1.7061,1.7778,1.8182,1.8409,1.8635,1.8079,1.7617,1.8187,1.8225,1.8237,1.8843,1.9231,1.9138,1.7936,1.8182,1.8574,1.8574,1.9079,1.9388,1.9192,1.955,1.9883,1.9883,2.0274,2.0605,2.0605,2.0605,2.0605,2.0605,2.0605,2.0605,2.0605,2.0605,2.0605,2.0605,2.0605,2.0605,2.0605,2.0605,2.0723,2.0937,2.0937,2.0937,2.0937,2.1191,2.1075,2.0566,2.0118,2.0157,2.0566,2.0079,2.0292,2.0918,2.0703,2.0742,2.0918,2.0703,2.0605,2.0625,2.0781,2.0742,2.0625]}]]